     2.11           OBSERVATION DATA    G (GPS)             RINEX VERSION / TYPE
teqc 2010Oct21 OPUS Account 20111025 19:17:32UTC            PGM / RUN BY / DATE
T 1521                                                      MARKER NAME
1149                                                        MARKER NUMBER
CSMIDDLETON NGS                                             OBSERVER / AGENCY
0440103897 TRIMBLE 5700 1.04                                REC # / TYPE / VERS
12299603 TRM41249.00 NONE                                   ANT # / TYPE
  -738930.5426 -5469536.4512  3186258.5136                  APPROX POSITION XYZ
        1.9990        0.0000        0.0000                  ANTENNA: DELTA H/E/N
     1     1                                                WAVELENGTH FACT L1/2
     5    L1    L2    C1    P1    P2                        # / TYPES OF OBSERV
    15                                                      LEAP SECONDS
  2011     7    27     0     0   30.0000000     GPS         TIME OF FIRST OBS
                                                            END OF HEADER
 11  7 27  0  0 30.0000000  0  8G28G10G09G17G04G20G27G02
 -78292348.83158 -60989151.65855  21791843.0634                   21791839.8094
  -9022083.36757  -7015042.49554  23763765.2034                   23763765.5904
 -22101066.76757 -17204913.58555  22269813.1094                   22269811.3284
 -62846327.31557 -48910387.98356  21373259.4384                   21373256.9064
 -48928979.97458 -38108574.58256  19992442.2894                   19992440.7504
 -17840246.89956 -13890053.14152  24203372.7034                   24203370.3984
 -33570606.08457 -26142942.87155  22482748.1024                   22482746.2734
 -22056079.67257 -17169909.43555  22516912.3674                   22516909.3324
 11  7 27  0  1  0.0000000  0  8G28G10G09G17G04G20G27G02
 -78321412.29948 -61011798.56145  21786312.3134                   21786310.1994
  -9193178.82746  -7148363.48444  23731206.0944                   23731207.0204
 -22210529.20847 -17290208.97945  22248982.9694                   22248981.4774
 -62892889.84048 -48946670.47846  21364398.6094                   21364396.1374
 -49025507.08348 -38183790.49246  19974073.5864                   19974071.8244
 -17886742.14145 -13926283.10942  24194524.1954                   24194523.3874
 -33661765.88147 -26213976.47045  22465400.5004                   22465399.3984
 -22215225.79447 -17293919.32745  22486627.6174                   22486623.7234
 11  7 27  0  1 30.0000000  0  8G28G10G09G17G04G20G27G02
 -78350059.47548 -61034121.06245  21780861.5864                   21780859.4024
  -9364210.88947  -7281635.14644  23698660.4534                   23698660.6214
 -22319317.18347 -17374978.80945  22228280.7114                   22228279.9024
 -62939307.73547 -48982840.28546  21355565.4064                   21355562.9774
 -49121414.41948 -38258523.46447  19955823.1414                   19955821.1334
 -17932692.21846 -13962088.39142  24185780.5944                   24185778.9024
 -33752388.18547 -26284591.24345  22448155.6094                   22448154.1484
 -22374047.85147 -17417676.67445  22456404.8914                   22456400.7274
 11  7 27  0  2  0.0000000  0  8G28G10G09G17G04G20G27G02
 -78378297.88447 -61056125.04645  21775487.3984                   21775485.6214
  -9535184.47546  -7414861.18944  23666124.4454                   23666125.1644
 -22427437.58847 -17459228.45545  22207706.5394                   22207705.7274
 -62985589.39347 -49018903.90746  21346758.7974                   21346756.6724
 -49216709.75248 -38332779.54647  19937689.0314                   19937687.0434
 -17978105.13146 -13997475.06143  24177139.5634                   24177137.3634
 -33842480.55147 -26354793.10145  22431011.8754                   22431009.6524
 -22532552.48547 -17541186.71345  22426242.8524                   22426238.4024
 11  7 27  0  2 30.0000000  0  8G28G10G09G17G04G20G27G02
 -78406124.83347 -61077808.39245  21770192.1094                   21770190.1914
  -9706094.03947  -7548037.32744  23633601.7664                   23633602.3954
 -22534886.87447 -17542955.16445  22187259.4304                   22187257.5314
 -63031731.98447 -49054859.18746  21337978.2734                   21337975.6484
 -49311390.58548 -38406556.80147  19919671.7814                   19919669.8554
 -18022978.89046 -14032441.68043  24168599.8834                   24168598.1024
 -33932040.32747 -26424579.91945  22413969.5864                   22413967.1604
 -22690735.93248 -17664446.46845  22396141.9304                   22396137.2074
 11  7 27  0  3  0.0000000  0  8G28G10G09G17G04G20G27G02
 -78433540.14947 -61099170.99745  21764975.4304                   21764972.2584
  -9876936.78447  -7681161.41544  23601091.1254                   23601091.1914
 -22641664.51647 -17626158.52044  22166940.2424                   22166938.2664
 -63077736.86047 -49090707.15346  21329223.2734                   21329220.7194
 -49405457.21248 -38479855.46046  19901771.5554                   19901769.3674
 -18067314.22146 -14066988.64743  24160163.7344                   24160161.6764
 -34021067.63047 -26493951.84545  22397028.1254                   22397026.2424
 -22848596.87047 -17787454.93545  22366101.2344                   22366098.0204
 11  7 27  0  3 30.0000000  0  8G28G10G09G17G04G20G27G02
 -78460539.58748 -61120209.55945  21759837.7734                   21759834.7504
 -10047705.08746  -7814227.50844  23568595.2114                   23568595.7504
 -22747765.47747 -17708834.58845  22146750.8364                   22146748.3754
 -63123599.86347 -49126444.54746  21320495.1724                   21320493.2234
 -49498905.60348 -38552672.37946  19883988.9064                   19883987.0044
 -18111107.28946 -14101113.22743  24151829.6094                   24151827.2774
 -34109558.18347 -26562905.51945  22380188.4924                   22380186.4304
 -23006129.56647 -17910207.59145  22336123.3914                   22336121.4574
 11  7 27  0  4  0.0000000  0  8G28G10G09G17G04G20G27G02
 -78487127.14048 -61140927.15445  21754778.3444                   21754775.1134
 -10218399.85846  -7947236.30544  23536112.9224                   23536112.8094
 -22853192.94247 -17790985.86445  22126687.7814                   22126685.8324
 -63169324.98747 -49162074.53546  21311794.4774                   21311792.6454
 -49591739.73448 -38625010.65646  19866323.1724                   19866321.2074
 -18154362.55546 -14134818.66243  24143599.0004                   24143596.4104
 -34197515.68847 -26631443.85045  22363450.6174                   22363449.5234
 -23163336.23647 -18032706.23945  22306207.5474                   22306205.4384
 11  7 27  0  4 30.0000000  0  8G28G10G09G17G04G20G27G02
 -78513303.47248 -61161324.33645  21749796.7344                   21749794.4844
 -10389018.94546  -8080186.11144  23503645.2894                   23503644.9414
 -22957947.12647 -17872612.51545  22106753.1954                   22106752.3794
 -63214914.03047 -49197598.46146  21303119.0634                   21303117.6054
 -49683960.95848 -38696871.33346  19848774.1884                   19848772.5664
 -18197081.69346 -14168106.26043  24135469.4304                   24135467.1564
 -34284941.24647 -26699567.65845  22346814.3204                   22346813.3834
 -23320216.67347 -18154950.65145  22276354.4454                   22276351.6294
 11  7 27  0  5  0.0000000  0  8G28G10G09G17G04G20G27G02
 -78539066.32647 -61181399.32345  21744894.6644                   21744892.1174
 -10559556.76246  -8213072.64944  23471193.2814                   23471192.8634
 -23062025.01347 -17953712.13045  22086948.0784                   22086946.8634
 -63260364.92347 -49233014.75746  21294470.5554                   21294467.8444
 -49775566.82248 -38768252.50746  19831342.0164                   19831339.8244
 -18239262.67246 -14200974.63543  24127442.2734                   24127439.8054
 -34371832.11847 -26767274.84245  22330279.4694                   22330277.9454
 -23476766.82847 -18276937.73045  22246564.7814                   22246561.6214
 11  7 27  0  5 30.0000000  0  8G28G10G09G17G04G20G27G02
 -78564422.00747 -61201157.02545  21740069.0004                   21740066.7704
 -10730016.71646  -8345898.45843  23438754.8984                   23438754.3714
 -23165432.10247 -18034289.07745  22067270.0084                   22067269.2074
 -63305684.11048 -49268328.41646  21285846.3594                   21285844.2774
 -49866564.25348 -38839159.59046  19814025.8914                   19814023.7734
 -18280912.71046 -14233429.13343  24119517.0634                   24119514.1484
 -34458195.15147 -26834570.70745  22313845.0314                   22313844.3204
 -23632992.33547 -18398671.83345  22216835.3754                   22216832.3204
 11  7 27  0  6  0.0000000  0  8G28G10G09G17G04G20G27G02
 -78589360.42647 -61220589.58945  21735324.2114                   21735321.4964
 -10900385.43446  -8478653.21943  23406335.6484                   23406335.6094
 -23268157.81647 -18114335.10445  22047722.3674                   22047721.5084
 -63350862.31148 -49303532.21646  21277249.3524                   21277247.1454
 -49956943.21248 -38909584.74746  19796827.4614                   19796825.3834
 -18322022.39046 -14265462.68243  24111693.8444                   24111690.9224
 -34544020.17647 -26901447.35945  22297513.1484                   22297511.4804
 -23788881.40347 -18520143.76845  22187171.0084                   22187167.6994
 11  7 27  0  6 30.0000000  0  8G28G10G09G17G04G20G27G02
 -78613882.40347 -61239697.66745  21730657.8134                   21730655.2074
 -11070660.86447  -8611335.24243  23373932.7274                   23373932.7194
 -23370202.79347 -18193850.66945  22028304.1334                   22028301.8954
 -63395900.69448 -49338627.07046  21268678.8834                   21268676.6094
 -50046705.46448 -38979529.34347  19779745.8444                   19779744.1604
 -18362593.51946 -14297076.54543  24103974.5554                   24103971.1604
 -34629308.30347 -26967905.66845  22281283.1644                   22281281.6884
 -23944433.63747 -18641353.25245  22157569.7734                   22157565.6524
 11  7 27  0  7  0.0000000  0  8G28G10G09G17G04G20G27G02
 -78637997.94447 -61258489.02845  21726068.5864                   21726066.5234
 -11240849.77847  -8743949.88844  23341547.3914                   23341546.7194
 -23471576.29647 -18272842.98145  22009013.2274                   22009011.7034
 -63440809.46047 -49373620.91746  21260132.9384                   21260130.8984
 -50135860.80148 -39049001.02847  19762780.2034                   19762778.0554
 -18402636.31646 -14328278.71843  24096353.1644                   24096350.4104
 -34714069.54147 -27033953.39145  22265153.8674                   22265152.8484
 -24099658.05047 -18762307.27445  22128031.5704                   22128027.7664
 11  7 27  0  7 30.0000000  0  8G28G10G09G17G04G20G27G02
 -77086278.45247 -60049357.00345  22021351.1334                   22021349.3984
  -9835515.09947  -7648883.82943  23608971.9304                   23608972.9804
 -21996846.45447 -17123702.84645  22289645.1484                   22289643.2074
 -61910159.44748 -48180906.62346  21551406.0554                   21551403.6214
 -48648978.63748 -37890391.54847  20045724.5634                   20045722.5234
 -16866722.15446 -13131462.55343  24388627.5634                   24388625.7624
 -33222873.26047 -25871982.29345  22548919.3524                   22548917.6294
 -22679119.78747 -17655394.27945  22398351.3674                   22398347.4454
 11  7 27  0  8  0.0000000  0  8G28G10G09G17G04G20G27G02
 -77109564.64047 -60067502.10745  22016919.5554                   22016916.8324
 -10005504.72746  -7781343.18944  23576623.9694                   23576624.8324
 -22096858.51547 -17201634.30545  22270614.0314                   22270612.0274
 -61954793.29048 -48215686.24546  21542912.5634                   21542910.2384
 -48736904.77348 -37958905.40447  20028993.0704                   20028991.0044
 -16905693.98246 -13161830.17543  24381211.5704                   24381210.6764
 -33306564.51347 -25937196.25245  22532993.0004                   22532992.1764
 -22833667.19448 -17775820.74545  22368941.8914                   22368936.8554
 11  7 27  0  8 30.0000000  0  8G28G10G09G17G04G20G27G02
 -77132446.08347 -60085331.85945  22012566.0634                   22012562.5234
 -10175400.07447  -7913729.05844  23544294.4064                   23544295.6094
 -22196199.08047 -17279042.51745  22251709.5314                   22251707.5474
 -61999300.38348 -48250367.10146  21534443.3364                   21534440.4654
 -48824226.95248 -38026948.66347  20012376.0234                   20012374.4534
 -16944141.56946 -13191789.38943  24373895.2974                   24373893.4224
 -33389731.02347 -26002001.35645  22517167.1094                   22517166.4614
 -22987884.19748 -17895989.78845  22339595.1484                   22339592.2034
 11  7 27  0  9  0.0000000  0  8G28G10G09G17G04G20G27G02
 -77154917.36047 -60102841.97745  22008289.7344                   22008286.7154
 -10345192.19046  -8046034.52743  23511984.4614                   23511984.7584
 -22294861.90847 -17355922.64945  22232934.7344                   22232932.6294
 -62043675.06848 -48284944.77446  21525998.8754                   21525996.4184
 -48910939.99048 -38094517.25846  19995875.1254                   19995873.4184
 -16982059.58146 -13221335.90743  24366680.1414                   24366677.7934
 -33472367.09447 -26066393.10745  22501441.5864                   22501440.3094
 -23141763.65247 -18015895.80245  22310312.8754                   22310310.0204
 11  7 27  0  9 30.0000000  0  8G28G10G09G17G04G20G27G02
 -77176977.80848 -60120031.99045  22004091.8054                   22004088.2424
 -10514877.03447  -8178256.38244  23479695.0634                   23479694.0554
 -22392846.03147 -17432273.92445  22214288.9844                   22214286.3754
 -62087917.12647 -48319419.11746  21517579.8754                   21517578.0664
 -48997043.33448 -38161610.75747  19979490.1094                   19979487.8794
 -17019448.15146 -13250469.90043  24359565.6724                   24359563.4264
 -33554472.23147 -26130371.14145  22485818.1954                   22485816.6414
 -23295303.65847 -18135537.29045  22281094.6024                   22281091.6844
 11  7 27  0 10  0.0000000  0  8G28G10G09G17G04G20G27G02
 -77198629.01547 -60136903.09445  21999970.9304                   21999968.5514
 -10684453.22146  -8310393.64044  23447425.7664                   23447424.6294
 -22490152.97947 -17508097.51344  22195771.7034                   22195768.8874
 -62132028.75748 -48353791.81846  21509186.1414                   21509183.1134
 -49082539.33348 -38228231.01146  19963220.8204                   19963219.0514
 -17056310.17446 -13279193.62243  24352552.0864                   24352549.0514
 -33636048.83547 -26193937.31045  22470295.2114                   22470292.7934
 -23448504.91847 -18254914.85845  22251941.4304                   22251938.5044
 11  7 27  0 10 30.0000000  0  8G28G10G09G17G04G20G27G02
 -77219870.60247 -60153455.01545  21995929.7194                   21995927.1884
 -10853917.17046  -8442443.36944  23415177.0234                   23415176.2974
 -22586781.38947 -17583392.36145  22177384.1804                   22177381.6454
 -62176008.97748 -48388062.12846  21500816.7274                   21500813.7544
 -49167427.82148 -38294377.87847  19947067.0474                   19947065.1684
 -17092645.47746 -13307506.85743  24345636.5634                   24345635.1884
 -33717096.15947 -26257091.09045  22454871.6414                   22454870.7854
 -23601365.22348 -18374026.73445  22222853.8594                   22222850.4264
 11  7 27  0 11  0.0000000  0  8G28G10G09G17G04G20G27G02
 -77240701.66047 -60169687.04545  21991965.4614                   21991963.5004
 -11023264.52346  -8574402.22743  23382951.2814                   23382950.4454
 -22682730.10247 -17658157.58245  22159125.4924                   22159123.1454
 -62219857.40248 -48422229.73846  21492472.8134                   21492470.2304
 -49251708.24648 -38360050.92647  19931028.8204                   19931026.9774
 -17128454.08146 -13335409.68643  24338823.8134                   24338819.9614
 -33797613.26447 -26319831.71545  22439549.8674                   22439549.2814
 -23753882.37348 -18492871.20045  22193830.6804                   22193827.4144
 11  7 27  0 11 30.0000000  0  8G28G10G09G17G04G20G27G02
 -77261118.22847 -60185596.08045  21988080.0004                   21988078.7114
 -11192487.92646  -8706264.52544  23350748.3754                   23350748.5204
 -22777994.70147 -17732389.75145  22140997.8674                   22140994.6844
 -62263570.24648 -48456291.71446  21484154.0394                   21484151.7854
 -49335377.15248 -38425247.47147  19915107.3364                   19915105.3874
 -17163733.02046 -13362899.76143  24332109.8134                   24332108.4654
 -33877596.53547 -26382156.35945  22424328.8204                   22424328.4104
 -23906051.20348 -18611444.25045  22164873.3674                   22164870.0864
 11  7 27  0 12  0.0000000  0  8G28G10G09G17G04G20G27G02
 -77281128.53747 -60201188.56045  21984271.9694                   21984270.9734
 -11361592.29546  -8838034.04544  23318568.5084                   23318569.3834
 -22872582.70647 -17806094.70045  22122997.8444                   22122995.4024
 -62307156.00348 -48490254.64746  21475860.5474                   21475857.8984
 -49418443.04848 -38489974.13647  19899300.3834                   19899298.8404
 -17198490.48346 -13389983.51644  24325495.4454                   24325493.6644
 -33957054.30847 -26444071.51145  22409209.7274                   22409208.5434
 -24057878.20048 -18729750.93445  22135981.8834                   22135977.9964
 11  7 27  0 12 30.0000000  0  8G28G10G09G17G04G20G27G02
 -77300730.98947 -60216463.25745  21980542.2504                   21980540.5084
 -11530572.95146  -8969707.21144  23286413.1804                   23286412.5164
 -22966492.59047 -17879271.18945  22105127.9144                   22105124.3794
 -62350613.13948 -48524117.37546  21467590.7584                   21467588.3834
 -49500905.12048 -38554230.28547  19883608.4144                   19883606.4494
 -17232726.24946 -13416660.74343  24318979.8914                   24318978.5984
 -34035985.47347 -26505576.31245  22394189.4224                   22394188.2624
 -24209360.75448 -18847789.24645  22107155.9454                   22107152.1844
 11  7 27  0 13  0.0000000  0  8G28G10G09G17G04G20G27G02
 -77319916.55247 -60231413.04745  21976891.1024                   21976888.5474
 -11699417.35547  -9101274.16344  23254283.0784                   23254283.1954
 -23059714.85847 -17951911.90645  22087387.3914                   22087386.0044
 -62393932.75648 -48557872.93846  21459347.5864                   21459344.8444
 -49582754.48048 -38618008.98947  19868032.7734                   19868031.3014
 -17266431.87246 -13442924.93443  24312566.3134                   24312564.7544
 -34114381.19247 -26566663.90845  22379271.0474                   22379269.9064
 -24360488.39048 -18965550.98245  22078396.9694                   22078393.2504
 11  7 27  0 13 30.0000000  0  8G28G10G09G17G04G20G27G02
 -77338693.38447 -60246044.39145  21973318.3364                   21973316.4144
 -11868130.17546  -9232738.59044  23222178.2974                   23222179.2344
 -23152257.08547 -18024022.73645  22069777.4304                   22069774.9774
 -62437122.80247 -48591527.54646  21451128.2664                   21451126.2154
 -49663999.86548 -38681317.07647  19852572.4774                   19852570.2664
 -17299616.46946 -13468783.01643  24306251.3134                   24306249.6684
 -34192249.50347 -26627340.51545  22364453.1334                   22364452.5274
 -24511267.94747 -19083041.47945  22049703.9694                   22049699.7664
 11  7 27  0 14  0.0000000  0  8G28G10G09G17G04G20G27G02
 -77357064.51647 -60260359.58445  21969822.7424                   21969820.3674
 -12036710.76346  -9364100.04444  23190099.0784                   23190098.0124
 -23244122.02847 -18095605.79545  22052296.5394                   22052293.4534
 -62480186.36047 -48625083.57946  21442933.3984                   21442931.4024
 -49744644.42248 -38744156.97347  19837226.2894                   19837224.0864
 -17332283.36646 -13494237.77843  24300034.3984                   24300032.8954
 -34269593.53047 -26687608.61445  22349735.2274                   22349735.1684
 -24661700.79247 -19200261.83845  22021077.1724                   22021074.0004
 11  7 27  0 14 30.0000000  0  8G28G10G09G17G04G20G27G02
 -77375031.65047 -60274359.96045  21966403.1724                   21966400.5204
 -12205157.23546  -9495356.94244  23158043.5234                   23158043.6024
 -23335310.88847 -18166662.07545  22034943.3674                   22034941.8204
 -62523124.80447 -48658542.11546  21434762.4304                   21434760.2344
 -49824690.46448 -38806530.49946  19821994.3284                   19821991.8204
 -17364435.19446 -13519291.23243  24293917.4924                   24293915.4884
 -34346415.18747 -26747469.64745  22335116.9064                   22335115.8594
 -24811787.06247 -19317212.11945  21992517.3444                   21992513.7154
 11  7 27  0 15  0.0000000  0  8G28G10G09G17G04G20G27G02
 -77392586.91847 -60288039.44845  21963063.4454                   21963060.1604
 -12373458.42246  -9626500.64344  23126016.5084                   23126016.7974
 -23425815.66947 -18237185.28745  22017721.0944                   22017720.0124
 -62565930.88147 -48691897.51946  21426617.0314                   21426614.5784
 -49904130.46948 -38868431.79646  19806877.4144                   19806875.2664
 -17396064.90846 -13543937.77543  24287898.1174                   24287896.3364
 -34422706.72847 -26806917.61145  22320598.7344                   22320597.8134
 -24961517.55347 -19433885.18545  21964024.2664                   21964020.6884
 11  7 27  0 15 30.0000000  0  8G28G10G09G17G04G20G27G02
 -77409733.72447 -60301400.60745  21959799.1334                   21959796.9104
 -12541614.50046  -9757531.26744  23094018.1254                   23094017.9734
 -23515639.47447 -18307177.83345  22000628.0554                   22000626.7234
 -62608607.67547 -48725152.16646  21418495.6564                   21418493.1094
 -49982968.65048 -38929864.13946  19791874.5944                   19791872.4694
 -17427176.57347 -13568180.64543  24281978.6414                   24281976.0984
 -34498472.13947 -26865955.58545  22306181.3594                   22306179.3674
 -25110894.78547 -19550283.00045  21935599.1804                   21935595.0164
 11  7 27  0 16  0.0000000  0  8G28G10G09G17G04G20G27G02
 -77426471.54447 -60314443.08545  21956614.7814                   21956612.1454
 -12709621.59546  -9888445.81343  23062047.3984                   23062047.1254
 -23604781.56447 -18376639.20745  21983664.7974                   21983663.4494
 -62651154.71247 -48758305.72146  21410399.3594                   21410396.8714
 -50061204.75348 -38990827.30946  19776986.7734                   19776984.1684
 -17457770.59646 -13592020.14543  24276156.9614                   24276154.3014
 -34573710.92747 -26924583.20045  22291863.8524                   22291862.6054
 -25259916.42448 -19666403.70645  21907240.8674                   21907238.2814
 11  7 27  0 16 30.0000000  0  8G28G10G09G17G04G20G27G02
 -77442797.93847 -60327165.00745  21953507.7734                   21953506.6604
 -12877473.34946 -10019239.29744  23030105.4304                   23030105.6684
 -23693238.95747 -18445567.07845  21966832.4224                   21966830.6604
 -62693569.45047 -48791356.17846  21402328.0944                   21402326.1884
 -50138836.84948 -39051319.84246  19762214.1484                   19762211.8714
 -17487845.38346 -13615455.11543  24270433.8524                   24270431.1174
 -34648420.94447 -26982798.81945  22277647.2734                   22277645.0784
 -25408578.70248 -19782244.41145  21878951.7344                   21878947.7274
 11  7 27  0 17  0.0000000  0  9G28G12G10G09G17G04G20G27G02
 -77458714.93547 -60339567.92845  21950479.2734                   21950477.2304
   1323889.94557   1047048.10754  24508744.5164                   24508742.3364
 -13045168.51846 -10149910.77344  22998194.5004                   22998194.0434
 -23781013.85247 -18513963.08745  21950128.7114                   21950126.7344
 -62735853.78347 -48824305.01246  21394281.6804                   21394279.1994
 -50215867.60448 -39111343.79746  19747555.7344                   19747553.3164
 -17517403.74746 -13638487.58243  24264808.5474                   24264805.9574
 -34722604.47547 -27040604.16345  22263530.6724                   22263528.4104
 -25556882.23747 -19897805.54945  21850730.3134                   21850727.0044
 11  7 27  0 17 30.0000000  0  9G28G12G10G09G17G04G20G27G02
 -77474237.98747 -60351663.86945  21947525.5314                   21947524.1954
   1151425.25247    912660.06944  24475923.9384                   24475923.7854
 -13212718.14846 -10280468.87444  22966311.7814                   22966311.0274
 -23868120.88247 -18581838.71345  21933553.6724                   21933551.3984
 -62778023.05447 -48857164.19346  21386257.2584                   21386254.3674
 -50292312.65648 -39170911.35246  19733008.3444                   19733006.1024
 -17546461.52446 -13661129.99843  24259278.5784                   24259277.2464
 -34796276.89347 -27098011.24245  22249510.6884                   22249509.2814
 -25704840.94848 -20013098.01046  21822575.4454                   21822571.5354
 11  7 27  0 18  0.0000000  0  9G28G12G10G09G17G04G20G27G02
 -75913951.97147 -59135856.60645  22244438.7194                   22244435.4734
   2554386.16546   2005876.43243  24742899.2894                   24742898.1334
 -11804699.00046  -9183311.01344  23234247.9694                   23234247.1724
 -22379142.35547 -17421595.72745  22216896.2274                   22216894.6914
 -61244661.01847 -47662336.63846  21678045.6954                   21678043.9804
 -48792755.28648 -38002425.08047  20018364.5784                   20018362.7584
 -15999604.07246 -12455786.56043  24553636.3364                   24553633.2504
 -33294021.49647 -25927422.63445  22535380.0474                   22535379.0434
 -24277033.80647 -18900520.96246  22094277.4144                   22094274.4964
 11  7 27  0 18 30.0000000  0  9G28G12G10G09G17G04G20G27G02
 -75928697.80147 -59147346.88745  22241632.2274                   22241628.8634
   2381923.38746   1871490.01743  24710080.3834                   24710079.8404
 -11971958.37947  -9313642.92944  23202419.8674                   23202419.5474
 -22464923.73647 -17488438.37245  22200573.2974                   22200571.0234
 -61286610.15647 -47695024.28546  21670063.2424                   21670061.1604
 -48868041.20548 -38061089.41647  20004038.2034                   20004036.5704
 -16027674.05345 -12477659.35643  24548293.7034                   24548292.2034
 -33366683.23747 -25984042.16845  22521553.4224                   22521552.0904
 -24424308.90948 -19015280.74346  22066252.1484                   22066248.4414
 11  7 27  0 19  0.0000000  0  9G28G12G10G09G17G04G20G27G02
 -75943047.77347 -59158528.73845  22238900.9924                   22238897.7274
   2209471.27846   1737111.81243  24677264.0784                   24677262.7584
 -12139060.70446  -9443852.48044  23170620.7274                   23170621.7624
 -22550035.48947 -17554759.24245  22184376.4384                   22184374.1374
 -61328441.50847 -47727620.15046  21662103.5314                   21662101.1764
 -48942741.76548 -38119297.64046  19989823.1724                   19989821.1604
 -16055244.46145 -12499142.82543  24543046.7114                   24543045.5944
 -33438833.44947 -26040263.12545  22507823.1954                   22507823.0004
 -24571233.75648 -19129767.58346  22038293.0004                   22038289.6844
 11  7 27  0 19 30.0000000  0  9G28G12G10G09G17G04G20G27G02
 -75957003.97347 -59169403.74045  22236245.3914                   22236243.0904
   2037030.36546   1602742.39143  24644449.1334                   24644449.1094
 -12306003.68046  -9573937.90044  23138851.7114                   23138852.5314
 -22634479.08747 -17620559.45645  22168307.6954                   22168304.8594
 -61370157.33147 -47760126.00146  21654165.0234                   21654162.4144
 -49016858.79247 -38177051.15846  19975718.9144                   19975717.5824
                                  24537894.8204                   24537892.8874
 -33510473.66247 -26096086.67645  22494190.5554                   22494190.1254
 -24717808.30248 -19243981.45846  22010400.6414                   22010397.3524
 11  7 27  0 20  0.0000000  0  8G28G12G10G09G17G04G27G02
 -75970562.69347 -59179969.03345  22233665.3594                   22233663.0164
   1864606.23146   1468385.99943  24611638.8914                   24611636.1484
 -12472779.90946  -9703893.30544  23107115.6804                   23107116.8094
 -22718250.51547 -17685835.89445  22152366.4924                   22152364.3244
 -61411753.62747 -47792538.69346  21646249.4924                   21646247.0314
 -49090389.28348 -38234347.63846  19961726.8524                   19961725.2074
 -33581600.58547 -26151510.27245  22480656.2894                   22480654.6094
 -24864027.16248 -19357918.17546  21982576.0784                   21982572.5204
 11  7 27  0 20 30.0000000  0  8G28G12G10G09G17G04G27G02
 -75983721.69147 -59190222.88445  22231161.2584                   22231159.2424
   1692203.22247   1334045.98743  24578831.1334                   24578828.2974
 -12639383.61647  -9833714.34344  23075413.2894                   23075412.7384
 -22801347.03247 -17750586.46645  22136553.2894                   22136551.7234
 -61453227.88847 -47824856.31146  21638357.3444                   21638354.5594
 -49163331.55848 -38291185.76246  19947846.4694                   19947844.1484
 -33652212.21347 -26206532.34845  22467218.8204                   22467218.7074
 -25009886.72448 -19471574.93246  21954820.1254                   21954816.8324
 11  7 27  0 21  0.0000000  0  8G28G12G10G09G17G04G27G02
 -75996483.58447 -59200167.25945  22228733.3524                   22228731.0784
   1519821.06147   1199722.23943  24546027.2274                   24546026.6804
 -12805813.50846  -9963399.87344  23043742.3284                   23043740.9614
 -22883771.64147 -17814813.43245  22120868.3984                   22120866.6254
 -61494582.24647 -47857080.47746  21630488.0084                   21630485.3674
 -49235688.72147 -38347567.94946  19934077.2814                   19934075.0864
 -33722311.65347 -26261155.30545  22453879.5554                   22453878.6254
 -25155388.28248 -19584952.72646  21927131.7974                   21927128.2034
 11  7 27  0 21 30.0000000  0  9G28G12G10G09G17G04G20G27G02
 -76008847.51547 -59209801.55145  22226380.5474                   22226378.4534
   1347463.00246   1065417.35443  24513228.8754                   24513227.5984
 -12972064.92847 -10092946.35944  23012105.3134                   23012104.7154
 -22965523.20347 -17878515.94645  22105312.3594                   22105310.5904
 -61535815.32647 -47889210.16146  21622641.1644                   21622639.1024
 -49307460.53347 -38403494.00746  19920419.5314                   19920417.4804
   3110982.28815                  24518240.898
 -33791898.11047 -26315378.54145  22440637.9454                   22440637.4614
 -25300529.35648 -19698049.60546  21899512.2894                   21899508.8134
 11  7 27  0 22  0.0000000  0  9G28G12G10G09G17G04G20G27G02
 -76020814.71547 -59219126.66345  22224103.2034                   22224101.1024
   1175129.03347    931131.16344  24480434.7584                   24480433.7304
 -13138135.83446 -10222352.17744  22980503.0084                   22980503.7194
 -23046603.19347 -17941695.13845  22089882.8364                   22089881.2194
 -61576928.69447 -47921246.54846  21614817.7274                   21614815.9614
 -49378648.96048 -38458965.49546  19906872.8204                   19906870.5634
   3086401.73045 -12565740.96552  24513562.0704                   24513558.9184
 -33860973.57447 -26369203.59445  22427493.8984                   22427492.7774
 -25445310.00448 -19810865.64546  21871961.1954                   21871957.5354
 11  7 27  0 22 30.0000000  0  9G28G12G10G09G17G04G20G27G02
 -76032384.73247 -59228142.32045  22221901.0474                   22221899.3484
   1002822.31546    796866.22144  24447645.3594                   24447643.7664
 -13304021.50946 -10351613.63744  22948936.0864                   22948936.6174
 -23127010.25847 -18004349.99245  22074581.8984                   22074580.0824
 -61617921.11348 -47953188.69546  21607017.5704                   21607015.2704
 -49449253.85647 -38513982.29146  19893437.1024                   19893434.8054
   3062316.97945 -12584508.27042  24508978.4304                   24508976.7504
 -33929537.28647 -26422629.85645  22414445.7974                   22414445.6024
 -25589728.01348 -19923399.10846  21844479.5474                   21844476.4224
 11  7 27  0 23  0.0000000  0  9G28G12G10G09G17G04G20G27G02
 -76043559.80747 -59236850.18945  22219774.7504                   22219772.4924
    830542.57247    662622.32144  24414862.5704                   24414859.8914
 -13469720.81947 -10480729.92344  22917404.1644                   22917404.1684
 -23206746.97147 -18066482.48344  22059407.7114                   22059405.7304
 -61658794.08747 -47985037.78446  21599239.7114                   21599237.0354
 -49519278.24148 -38568546.75046  19880111.9224                   19880110.4884
   3038724.59445 -12602891.96942  24504488.9694                   24504487.3134
 -33997591.93247 -26475659.46245  22401494.9144                   22401494.0824
 -25733784.61148 -20035650.95446  21817066.2194                   21817063.0164
 11  7 27  0 23 30.0000000  0  9G28G12G10G09G17G04G20G27G02
 -76054338.31847 -59245249.05944  22217723.0474                   22217721.4534
    658293.72546    528402.45243  24382084.8594                   24382082.2704
 -13635228.32447 -10609696.72244  22885909.6724                   22885910.0164
 -23285811.86847 -18128091.48245  22044363.0234                   22044360.5664
 -61699546.16247 -48016792.62946  21591484.3284                   21591482.3834
 -49588721.06047 -38622658.03546  19866897.0944                   19866895.3164
   3015625.10245 -12620891.56843  24500093.9844                   24500091.8244
 -34065136.25047 -26528291.41245  22388642.0234                   22388640.5944
 -25877476.41748 -20147618.54446  21789722.7734                   21789718.9614
 11  7 27  0 24  0.0000000  0  9G28G12G10G09G17G04G20G27G02
 -76064720.58947 -59253339.21844  22215747.6024                   22215745.8794
    486078.11946    394208.54643  24349311.8054                   24349311.2624
 -13800539.99547 -10738510.94444  22854451.9924                   22854451.5864
 -23364204.84947 -18189176.93545  22029445.2424                   22029443.6724
 -61740176.89347 -48048452.94346  21583752.7814                   21583750.2464
 -49657582.92647 -38676316.62846  19853793.4224                   19853791.5124
   2993017.97546 -12638507.50943  24495792.0634                   24495789.4224
 -34132170.61247 -26580525.99945  22375886.3054                   22375884.8634
 -26020802.05848 -20259300.82546  21762449.0634                   21762444.6994
 11  7 27  0 24 30.0000000  0  9G28G12G10G09G17G04G20G27G02
 -76074707.99947 -59261121.64344  22213847.3984                   22213844.9494
    313896.05346    260040.76043  24316546.5394                   24316545.2464
 -13965654.06047 -10867171.15244  22823031.6564                   22823030.8554
 -23441927.62847 -18249740.16945  22014655.4694                   22014653.7854
 -61780687.69548 -48080019.79446  21576044.0314                   21576040.9264
 -49725866.18448 -38729524.36246  19840799.5634                   19840797.1254
   2970900.58546 -12655741.89243  24491583.4534                   24491579.9964
 -34198697.29248 -26632365.00945  22363226.7814                   22363225.5984
 -26163761.78248 -20370697.96946  21735244.1724                   21735240.3914
 11  7 27  0 25  0.0000000  0  9G28G12G10G09G17G04G20G27G02
 -76084303.31447 -59268598.56445  22212021.6334                   22212019.2034
    141747.53546    125899.07843  24283788.9064                   24283786.5984
 -14130569.28147 -10995676.42644  22791648.9924                   22791648.3284
 -23518982.76247 -18309783.11345  21999992.3284                   21999989.4924
 -61821080.51047 -48111494.70746  21568357.7424                   21568354.8594
 -49793573.98248 -38782283.68046  19827915.1644                   19827912.8874
   2949269.72346 -12672597.19542  24487465.8524                   24487465.9184
 -34264718.87247 -26683810.41745  22350663.2274                   22350661.7504
 -26306356.70348 -20481810.85546  21708109.8834                   21708106.3674
 11  7 27  0 25 30.0000000  0  9G28G12G10G09G17G04G20G27G02
 -76093503.68147 -59275767.71145  22210271.1024                   22210268.1454
    -30362.48346     -8212.56844  24251037.7664                   24251036.9614
 -14295278.49147 -11124021.19744  22760305.9384                   22760305.8054
 -23595367.07047 -18369303.36845  21985456.4844                   21985454.4804
 -61861351.60347 -48142874.77346  21560693.8524                   21560691.8554
 -49860703.84748 -38834592.66246  19815140.8284                   19815138.4264
   2928127.28545 -12689071.79742  24483443.1094                   24483441.6684
 -34330232.91847 -26734860.34345  22338196.4844                   22338195.0044
 -26448582.45148 -20592636.07246  21681045.0474                   21681041.5164
 11  7 27  0 26  0.0000000  0  9G28G12G10G09G17G04G20G27G02
 -76102310.10147 -59282629.90445  22208595.8834                   22208592.4184
   -202432.83246   -142293.28244  24218293.9844                   24218292.5594
 -14459779.40446 -11252203.64344  22729001.6884                   22729001.8834
 -23671082.40547 -18428302.32545  21971048.4614                   21971047.1134
 -61901502.09547 -48174160.87546  21553053.8674                   21553051.1094
 -49927257.86248 -38886452.91446  19802476.0944                   19802473.8714
   2907470.81545 -12705167.77342  24479512.3834                   24479509.4494
 -34395240.99147 -26785515.98045  22325825.4694                   22325824.8984
 -26590438.75248 -20703173.40446  21654050.6724                   21654046.7974
 11  7 27  0 26 30.0000000  0  9G28G12G10G09G17G04G20G27G02
 -76110728.40247 -59289189.64945  22206993.4144                   22206990.8364
   -374466.72547   -276345.60544  24185557.7814                   24185554.9454
 -14624073.68346 -11380225.08644  22697738.2274                   22697738.1644
 -23746134.10647 -18486784.17845  21956766.8444                   21956764.8714
 -61941537.28947 -48205357.13146  21545435.1724                   21545432.1604
 -49993242.07548 -38937869.17846  19789919.5394                   19789917.4104
   2887294.58046 -12720889.54742  24475673.1024                   24475671.2034
 -34459749.00347 -26835781.98445  22313549.9774                   22313549.8404
 -26731929.85548 -20813426.17546  21627125.0704                   21627121.2934
 11  7 27  0 27  0.0000000  0  8G28G12G10G09G17G04G27G02
 -76118753.07947 -59295442.67645  22205465.9924                   22205463.9614
   -546456.08647   -410363.27944  24152827.8444                   24152826.5124
 -14788151.70547 -11508077.99844  22666515.0084                   22666514.3324
 -23820516.71047 -18544744.65145  21942611.8444                   21942610.1764
 -61981450.90847 -48236458.65446  21537839.8914                   21537837.2074
 -50058651.64848 -38988837.66446  19777472.5474                   19777471.0124
 -34523751.84247 -26885654.34345  22301370.5554                   22301370.0634
 -26873048.59947 -20923388.79146  21600270.8674                   21600267.7504
 11  7 27  0 27 30.0000000  0  8G28G12G10G09G17G04G27G02
 -76126382.43947 -59301387.66445  22204013.3364                   22204012.7774
   -718396.84046   -544343.06144  24120108.1724                   24120107.8284
 -14952008.03647 -11635758.20344  22635333.5164                   22635333.1604
 -23894228.88947 -18602182.70445  21928584.7814                   21928583.9304
 -62021240.79147 -48267463.77046  21530268.1644                   21530265.6094
 -50123485.76048 -39039357.74946  19765134.9454                   19765132.7544
 -34587248.28847 -26935132.12245  22289287.4384                   22289286.7034
 -27013792.01248 -21033058.93846  21573488.3284                   21573484.8524
 11  7 27  0 28  0.0000000  0  8G28G12G10G09G17G04G27G02
 -76133605.29347 -59307015.91945  22202639.6024                   22202638.7544
   -890275.62546   -678274.57543  24087400.0634                   24087400.4614
 -15115627.67847 -11763253.96344  22604198.0314                   22604197.2274
 -23967259.33347 -18659089.54545  21914688.0634                   21914686.8484
 -62060895.16648 -48298363.28246  21522722.6564                   21522720.2074
 -50187733.84348 -39089421.19546  19752909.0234                   19752907.1454
 -34650227.44647 -26984206.79445  22277303.1804                   22277302.7424
 -27154147.31848 -21142426.65746  21546780.1644                   21546776.9454
 11  7 27  0 28 30.0000000  0  8G28G12G10G09G17G04G27G02
 -74564997.50247 -58084724.17245  22501135.9774                   22501134.5514
    513339.74146    415451.72943  24354499.0474                   24354499.5664
 -13703577.03146 -10662954.68244  22872902.1094                   22872902.1024
 -22464181.87947 -17487860.35845  22200713.9064                   22200712.4804
 -60524987.82748 -47101552.40046  21814995.8204                   21814993.8914
 -48675970.28248 -37911423.60446  20040587.5394                   20040585.9414
 -33137263.57247 -25805273.93845  22565210.7274                   22565209.8094
 -25718684.51048 -20023884.16046  21819939.7344                   21819936.0784
 11  7 27  0 29  0.0000000  0  8G28G12G10G09G17G04G27G02
 -74571404.15847 -58089716.41845  22499916.6334                   22499915.6994
    341596.06346    281625.48943  24321818.2424                   24321817.1134
 -13866707.28746 -10790069.12644  22841859.5474                   22841859.3674
 -22535845.79547 -17543702.38745  22187077.0634                   22187075.8524
 -60564365.34648 -47132236.19146  21807502.1804                   21807499.9104
 -48739044.61048 -37960572.43246  20028585.3914                   20028583.0554
 -33199205.62947 -25853540.47345  22553423.1094                   22553421.4804
 -25858255.79848 -20132640.95846  21793380.2344                   21793375.8364
 11  7 27  0 29 30.0000000  0  8G28G12G10G09G17G04G27G02
 -74577410.43347 -58094396.68444  22498773.6564                   22498771.3364
    169915.66447    147848.57843  24289148.3284                   24289147.8674
 -14029594.85047 -10916994.44544  22810863.5234                   22810863.3874
 -22606834.41847 -17599018.20145  22173568.2194                   22173566.4804
 -60603611.24947 -47162817.43046  21800034.5784                   21800031.8444
 -48801540.81148 -38009270.77046  20016692.6954                   20016690.8554
 -33260637.64847 -25901409.59845  22541733.4844                   22541732.2814
 -25997440.88548 -20241096.81746  21766893.7814                   21766889.7344
 11  7 27  0 30  0.0000000  0  8G28G12G10G09G17G04G27G02
 -74583020.63247 -58098768.31444  22497706.8204                   22497704.1724
     -1702.96046     14119.85943  24256489.9454                   24256488.8484
 -14192239.91547 -11043730.78644  22779912.8204                   22779912.7664
 -22677152.16247 -17653811.22545  22160186.9924                   22160184.9304
 -60642729.51647 -47193299.21346  21792590.3284                   21792587.9144
 -48863463.57948 -38057522.27446  20004909.4304                   20004907.2584
 -33321564.27147 -25948884.90845  22530139.1564                   22530137.8954
 -26136242.04148 -20349253.51846  21740480.6564                   21740477.0004
 11  7 27  0 30 30.0000000  0  8G28G12G10G09G17G04G27G02
 -74588233.45347 -58102830.27644  22496714.8134                   22496712.6884
   -173256.22647   -119557.97844  24223845.2814                   24223844.3914
 -14354637.51447 -11170274.31144  22749009.3754                   22749009.1374
 -22746797.98747 -17708080.71145  22146933.9384                   22146933.0124
 -60681717.97448 -47223679.85346  21785171.5004                   21785168.8984
 -48924812.83548 -38105326.88246  19993234.8914                   19993232.9144
 -33381984.82747 -25995965.85245  22518641.6804                   22518640.5514
 -26274656.87648 -20457109.18746  21714141.5864                   21714137.3834
 11  7 27  0 31  0.0000000  0  8G28G12G10G09G17G04G27G02
 -74593054.78747 -58106587.20844  22495797.6024                   22495795.8134
   -344747.00947   -253187.15244  24191212.2504                   24191210.6054
 -14516789.07547 -11296626.09644  22718152.9774                   22718153.1914
 -22815777.67447 -17761831.13645  22133808.4064                   22133806.3134
 -60720581.82947 -47253963.40246  21777775.2504                   21777773.5474
 -48985594.48448 -38152689.20846  19981668.6254                   19981666.8874
 -33441905.27647 -26042657.14545  22507239.4534                   22507237.7894
 -26412689.25748 -20564666.82746  21687874.7194                   21687870.9774
 11  7 27  0 31 30.0000000  0  8G28G12G10G09G17G04G27G02
 -74597485.38547 -58110039.69144  22494954.0634                   22494951.4024
   -516173.45947   -386766.23244  24158590.5554                   24158587.8204
 -14678691.37247 -11422783.64044  22687344.1564                   22687343.3524
 -22884092.48747 -17815063.47245  22120807.8204                   22120806.6334
 -60759320.93947 -47284149.75046  21770403.7194                   21770401.6294
 -49045810.33448 -38199610.62746  19970209.9844                   19970207.7624
 -33501326.83647 -26088959.65345  22495931.5004                   22495929.7974
 -26550338.82748 -20671926.18246  21661680.6334                   21661676.9344
 11  7 27  0 32  0.0000000  0  8G28G12G10G09G17G04G27G02
 -74601525.74047 -58113188.05544  22494184.9614                   22494182.1414
   -687533.44547   -520293.41144  24125981.3754                   24125978.9844
 -14840340.98947 -11548744.32145  22656583.3834                   22656581.8714
 -22951743.13747 -17867778.27445  22107934.3834                   22107932.7424
 -60797935.19547 -47314238.80046  21763055.6174                   21763053.2424
 -49105461.32548 -38246091.92046  19958858.6804                   19958856.6024
 -33560250.33047 -26134874.08145  22484718.0474                   22484717.0274
 -26687604.66348 -20778886.52246  21635559.6884                   21635556.3244
 11  7 27  0 32 30.0000000  0  8G28G12G10G09G17G04G27G02
 -74605177.23447 -58116033.42944  22493489.6484                   22493487.5554
   -858825.75147   -653767.93244  24093385.5634                   24093383.1054
 -15001735.02947 -11674505.86144  22625870.7894                   22625870.9804
 -23018731.20047 -17919976.79245  22095186.7504                   22095185.6294
 -60836424.92148 -47344230.80946  21755731.0314                   21755728.5514
 -49164549.65248 -38292134.76846  19947614.4454                   19947612.5704
 -33618677.44647 -26180401.72845  22473599.9064                   22473599.2154
 -26824486.40548 -20885547.58046  21609512.0554                   21609508.1024
 11  7 27  0 33  0.0000000  0  8G28G12G10G09G17G04G27G02
 -74608441.15947 -58118576.78044  22492869.4224                   22492867.5164
  -1030049.11847   -787188.70144  24060803.3524                   24060801.1024
 -15162870.70047 -11800066.06544  22595208.2274                   22595207.4734
 -23085058.15147 -17971660.14645  22082565.8914                   22082563.6174
 -60874790.70448 -47374126.24546  21748430.5004                   21748427.7464
 -49223077.35648 -38337740.76246  19936477.0004                   19936474.7624
 -33676610.08047 -26225544.04945  22462575.6484                   22462575.9694
 -26960984.14048 -20991909.40646  21583537.6334                   21583533.8594
 11  7 27  0 33 30.0000000  0  8G28G12G10G09G17G04G27G02
 -74611315.77047 -58120816.81245  22492322.4694                   22492321.0314
  -1201198.92947   -920552.13344  24028234.2894                   24028232.3164
 -15323742.25547 -11925420.47344  22564594.8134                   22564594.7974
 -23150722.42847 -18022827.13545  22070070.3754                   22070069.2194
 -60913030.11348 -47403923.20346  21741153.7734                   21741151.3554
 -49281043.32448 -38382909.05846  19925446.4304                   19925444.8324
 -33734046.95847 -26270300.06445  22451646.4774                   22451645.8834
 -27097094.23048 -21097969.18646  21557636.4454                   21557633.3164
 11  7 27  0 34  0.0000000  0  8G28G12G10G09G17G04G27G02
 -74613803.42247 -58122755.28445  22491849.3594                   22491847.7234
  -1372274.89847  -1053858.07444  23995679.2814                   23995678.7114
 -15484347.51947 -12050567.35144  22534032.2194                   22534032.1174
 -23215726.40047 -18073479.60145  22057700.6094                   22057698.0354
 -60951144.31048 -47433622.60646  21733900.3754                   21733898.5784
 -49338450.31148 -38427641.77946  19914522.0084                   19914519.9734
 -33790990.72047 -26314671.83645  22440810.4304                   22440809.0634
 -27232817.58547 -21203727.59446  21531809.2584                   21531805.5394
 11  7 27  0 34 30.0000000  0  8G28G12G10G09G17G04G27G02
 -74615905.29547 -58124393.13844  22491449.8284                   22491447.0004
  -1543275.50346  -1187105.19844  23963139.6724                   23963137.4614
 -15644683.77247 -12175504.62344  22503521.1414                   22503521.1254
 -23280072.18247 -18123619.18845  22045456.1564                   22045454.3794
 -60989133.67248 -47463224.72246  21726671.6094                   21726669.5594
 -49395300.39748 -38471940.54446  19903704.1644                   19903702.2584
 -33847443.02648 -26358660.66545  22430068.3834                   22430066.6054
 -27368153.90848 -21309184.42946  21506055.4534                   21506052.0004
 11  7 27  0 35  0.0000000  0  8G28G12G10G09G17G04G27G02
 -74617621.91547 -58125730.82844  22491123.0004                   22491120.6174
  -1714198.28646  -1320291.68844  23930613.8674                   23930612.2154
 -15804747.44747 -12300229.49444  22473062.2894                   22473061.7464
 -23343760.15847 -18173246.19545  22033335.9064                   22033334.5864
 -61026998.00048 -47492729.40546  21719466.4304                   21719464.3324
 -49451594.65248 -38515806.19546  19892991.3914                   19892989.2624
 -33903404.66447 -26402267.15045  22419418.8524                   22419417.1954
 -27503102.05748 -21414338.78846  21480376.1174                   21480372.4614
 11  7 27  0 35 30.0000000  0  8G28G12G10G09G17G04G27G02
 -74618957.01647 -58126771.19344  22490868.7664                   22490866.1054
  -1885044.12846  -1453418.23844  23898102.2424                   23898100.7894
 -15964538.26047 -12424741.76044  22442655.2504                   22442654.7854
 -23406794.46847 -18222363.89445  22021341.5864                   22021339.5314
 -61064740.36848 -47522139.06946  21712284.4844                   21712282.5394
 -49507337.85148 -38559242.45246  19882384.0234                   19882381.9734
 -33958879.96647 -26445494.69045  22408861.6334                   22408860.7504
 -27637664.78448 -21519192.81946  21454769.4694                   21454765.8444
 11  7 27  0 36  0.0000000  0  8G28G12G10G09G17G04G27G02
 -74619908.07247 -58127512.35344  22490687.3914                   22490684.8874
  -2055807.66646  -1586480.68344  23865606.1644                   23865605.2624
 -16124048.97347 -12549035.76645  22412301.7034                   22412300.8094
 -23469172.54947 -18270970.18945  22009471.6024                   22009469.0554
 -61102356.70048 -47551450.51946  21705126.1334                   21705123.9494
 -49562527.67248 -38602247.50946  19871882.0474                   19871879.9774
 -34013866.62247 -26488341.45745  22398399.0704                   22398397.3484
 -27771837.43748 -21623742.90646  21429237.1724                   21429233.7424
 11  7 27  0 36 30.0000000  0  8G28G12G10G09G17G04G27G02
 -74620480.03647 -58127958.07844  22490578.6954                   22490576.6844
  -2226490.88247  -1719480.53044  23833127.5554                   23833125.3284
 -16283280.81947 -12673112.47245  22382000.9304                   22382000.0744
 -23530899.93047 -18319069.44945  21997724.2894                   21997723.8634
 -61139851.13848 -47580666.98546  21697991.3444                   21697988.6884
 -49617170.03948 -38644825.97546  19861483.6884                   19861481.7114
 -34068370.24347 -26530811.83545  22388026.9064                   22388025.5124
 -27905623.45048 -21727991.71246  21403778.5704                   21403774.8984
 11  7 27  0 37  0.0000000  0  8G28G12G10G09G17G04G27G02
 -74620672.01147 -58128107.74644  22490541.9694                   22490539.9574
  -2397090.49947  -1852415.26444  23800663.6884                   23800662.0394
 -16442228.63447 -12796967.83644  22351753.8054                   22351752.9884
 -23591976.30747 -18366661.44445  21986103.0474                   21986101.0594
 -61177221.97848 -47609787.12446  21690879.8134                   21690877.7584
 -49671264.59648 -38686977.58347  19851189.5474                   19851187.4384
 -34122390.26347 -26572905.35245  22377747.3754                   22377746.3134
 -28039020.53248 -21831937.45746  21378393.4454                   21378390.3524
 11  7 27  0 37 30.0000000  0  8G28G12G10G09G17G04G27G02
 -74620482.28547 -58127959.93944  22490577.9774                   22490575.6684
  -2567601.70747  -1985281.07644  23768216.0944                   23768215.7854
 -16600886.21447 -12920597.05144  22321561.6484                   22321561.6914
 -23652400.21147 -18413744.99745  21974604.9454                   21974602.4184
 -61214466.33848 -47638808.72646  21683792.3524                   21683790.3324
 -49724810.47148 -38728701.63546  19841000.6564                   19840998.0394
 -34175925.27747 -26614620.99445  22367560.3284                   22367558.9104
 -28172025.55548 -21935577.71746  21353084.2344                   21353080.6644
 11  7 27  0 38  0.0000000  0  8G28G12G10G09G17G04G27G02
 -74619913.49647 -58127516.75144  22490686.3134                   22490683.8364
  -2738023.43247  -2118077.14944  23735785.2894                   23735784.1294
 -16759251.95947 -13043998.89944  22291425.6094                   22291425.1414
 -23712174.63447 -18460322.45845  21963229.3594                   21963228.3754
 -61251585.39048 -47667732.67246  21676729.0864                   21676726.6374
 -49777810.67048 -38770000.49146  19830914.8204                   19830912.4734
 -34228978.27547 -26655961.00645  22357464.4924                   22357463.5354
 -28304639.28548 -22038913.06446  21327848.3444                   21327844.6214
 11  7 27  0 38 30.0000000  0  8G28G12G10G09G17G04G27G02
 -74618969.68047 -58126781.34544  22490865.8204                   22490864.8594
  -2908357.53046  -2250804.98843  23703371.6644                   23703370.1294
 -16917325.76646 -13167173.23244  22261345.3364                   22261345.0984
 -23771304.14547 -18506397.42845  21951978.1954                   21951975.9884
 -61288583.12047 -47696562.08646  21669688.2424                   21669686.7154
 -49830270.39148 -38810878.18947  19820931.9224                   19820929.4694
 -34281554.06147 -26696929.16845  22347459.7424                   22347458.6414
 -28436864.38148 -22141945.59046  21302686.7894                   21302682.5554
 11  7 27  0 39  0.0000000  0  8G28G12G10G09G17G04G27G02
 -73042230.84347 -56898153.75444  22790909.6484                   22790908.3914
  -1503175.13646  -1155857.67544  23970768.7194                   23970766.4024
 -15499677.80047 -12062512.44145  22531115.4614                   22531113.8134
 -22254366.71247 -17324368.27545  22240641.0084                   22240639.4414
 -59750036.37348 -46497694.49746  21962463.7814                   21962461.7934
 -48306768.06548 -37623733.51446  20110844.8674                   20110842.9344
 -32758231.15847 -25509924.33145  22637338.0474                   22637337.2424
 -26993274.62648 -21017070.42146  21577392.6094                   21577388.5004
 11  7 27  0 39 30.0000000  0  8G28G12G10G09G17G04G27G02
 -73040536.01247 -56896833.18244  22791231.6094                   22791230.3524
  -1673323.72246  -1288440.89943  23938390.5554                   23938388.5474
 -15657153.73447 -12185220.91145  22501147.7814                   22501147.5864
 -22312206.16247 -17369437.97945  22229634.3984                   22229633.0944
 -59786786.15148 -46526330.70046  21955470.8364                   21955468.1604
 -48358147.17548 -37663769.18747  20101067.7114                   20101065.4104
 -32809852.80347 -25550149.01145  22627515.6334                   22627513.8984
 -27124716.70948 -21119492.80546  21552380.0784                   21552376.2424
 11  7 27  0 40  0.0000000  0  8G28G12G10G09G17G04G27G02
 -73038462.80447 -56895217.79944  22791627.0634                   22791624.5004
  -1843372.39547  -1420946.35644  23906031.6884                   23906030.5004
 -15814321.66047 -12307689.35745  22471240.1094                   22471239.2814
 -22369398.59447 -17414003.51245  22218751.2974                   22218749.7734
 -59823407.50548 -46554866.83246  21948502.3524                   21948499.5784
 -48408984.64548 -37703382.80346  20091393.9774                   20091392.1764
 -32860995.40247 -25590000.41645  22617783.2424                   22617781.6254
 -27255762.57447 -21221606.44146  21527442.4924                   21527438.6334
 11  7 27  0 40 30.0000000  0  8G28G12G10G09G17G04G27G02
 -73036014.61247 -56893310.18644  22792093.1414                   22792090.9734
  -2013321.32946  -1553374.06644  23873691.6254                   23873689.4614
 -15971180.43847 -12429916.89745  22441390.1414                   22441390.4144
 -22425947.94547 -17458067.95645  22207990.0164                   22207988.5204
 -59859902.55548 -46583304.53446  21941557.5944                   21941554.8204
 -48459284.35648 -37742577.38946  20081821.6024                   20081820.3874
 -32911662.73247 -25629481.46645  22608141.7584                   22608140.5004
 -27386413.82047 -21323412.58346  21502581.0234                   21502576.8364
 11  7 27  0 41  0.0000000  0  8G28G12G10G09G17G04G27G02
 -73033195.94647 -56891113.89944  22792629.6414                   22792627.7464
  -2183171.56147  -1685724.82444  23841370.3834                   23841368.1844
 -16127730.78447 -12551904.09145  22411599.8984                   22411599.4884
 -22481859.00747 -17501635.00245  22197350.6804                   22197349.3834
 -59896275.02148 -46611646.72346  21934636.3524                   21934633.9454
 -48509051.52448 -37781357.01046  20072351.7274                   20072349.6134
 -32961859.75647 -25668596.05745  22598589.0164                   22598587.3524
 -27516673.20448 -21424913.38046  21477792.8754                   21477789.4734
 11  7 27  0 41 30.0000000  0  8G28G12G10G09G17G04G27G02
 -73030004.62347 -56888627.22844  22793235.7034                   22793235.5204
  -2352918.63247  -1817995.24144  23809069.2114                   23809065.2734
 -16283965.75547 -12673645.57845  22381869.5944                   22381869.0354
 -22537129.76247 -17544703.13545  22186833.0864                   22186831.0594
 -59932521.20348 -46639890.50846  21927738.4304                   21927736.4614
 -48558284.45748 -37819720.34047  20062982.6414                   20062980.7934
 -33011584.39647 -25707342.54745  22589126.9614                   22589125.8984
 -27646536.94048 -21526105.87946  21453080.9924                   21453076.4924
 11  7 27  0 42  0.0000000  0  8G28G12G10G09G17G04G27G02
 -73026446.05147 -56885854.37244  22793913.3284                   22793912.3204
  -2522564.20146  -1950186.55044  23776786.3914                   23776784.1644
 -16439886.30347 -12795142.04645  22352198.7034                   22352197.7464
 -22591766.37247 -17587277.12145  22176436.3204                   22176433.8834
 -59968645.36148 -46668039.22646  21920864.2734                   21920862.6334
 -48606989.16848 -37857672.06647  20053714.7584                   20053713.0474
 -33060842.62447 -25745725.59645  22579753.1254                   22579752.3754
 -27776009.24748 -21626993.37446  21428443.2274                   21428439.1954
 11  7 27  0 42 30.0000000  0  8G28G12G10G09G17G04G27G02
 -73022517.78047 -56882793.46044  22794661.3834                   22794659.8364
  -2692102.65946  -2082294.40844  23744524.1024                   23744522.6484
 -16595485.52047 -12916388.16145  22322589.2974                   22322588.6484
 -22645767.12147 -17629355.66145  22166160.0784                   22166158.5084
 -60004643.90248 -46696090.04446  21914013.7274                   21914012.3324
 -48655164.17848 -37895211.04446  20044547.4064                   20044545.3554
 -33109632.81847 -25783743.93845  22570468.6724                   22570466.7464
 -27905085.84948 -21727572.52346  21403880.6804                   21403876.6884
 11  7 27  0 43  0.0000000  0  8G28G12G10G09G17G04G27G02
 -73018222.82247 -56879446.79144  22795479.1094                   22795475.5744
  -2861534.11146  -2214318.83344  23712282.6724                   23712280.1644
 -16750762.56047 -13037383.21645  22293041.0634                   22293039.3524
 -22699135.41547 -17670941.34745  22156004.1564                   22156002.4224
 -60040518.53348 -46724044.32246  21907187.5864                   21907185.3284
 -48702813.42648 -37932340.32847  20035479.9454                   20035477.9384
 -33157958.52347 -25821400.36445  22561272.2504                   22561270.8594
 -28033768.37648 -21827844.59146  21379393.1564                   21379389.5394
 11  7 27  0 43 30.0000000  0  8G28G12G10G09G17G04G27G02
 -73013558.99847 -56875812.70444  22796366.5004                   22796363.0084
  -3030852.89946  -2346255.51644  23680061.6884                   23680061.0634
 -16905710.60347 -13158121.91645  22263556.1414                   22263553.7504
 -22751869.34947 -17712032.73245  22145969.6644                   22145967.5904
 -60076265.61848 -46751899.20646  21900384.7894                   21900382.3754
 -48749934.92648 -37969058.38247  20026513.2974                   20026510.9694
 -33205817.68247 -25858693.24245  22552164.8914                   22552164.2274
 -28162052.76648 -21927806.41346  21354981.1094                   21354976.8634
 11  7 27  0 44  0.0000000  0  8G28G12G10G09G17G04G27G02
 -73008527.94747 -56871892.46544  22797323.4144                   22797321.4774
  -3200057.69747  -2478103.35244  23647862.7584                   23647861.8594
 -17060326.84847 -13278602.07145  22234132.6954                   22234131.7624
 -22803971.28747 -17752631.65245  22136054.6414                   22136053.2704
 -60111885.62847 -46779655.07846  21893607.0164                   21893603.7544
 -48796531.43648 -38005367.35147  20017646.2114                   20017643.8914
 -33253212.60747 -25895624.36845  22543146.7504                   22543145.3914
 -28289939.47848 -22027458.37446  21330645.1804                   21330641.1604
 11  7 27  0 44 30.0000000  0  8G28G12G10G09G17G04G27G02
 -73003135.56347 -56867690.65044  22798350.1644                   22798348.6454
  -3369150.94947  -2609864.30044  23615685.9384                   23615684.5474
 -17214612.81747 -13398824.82545  22204773.2034                   22204772.7304
 -22855447.67347 -17792743.13645  22126258.6954                   22126257.8754
 -60147383.57447 -46807315.81946  21886851.6954                   21886849.5474
 -48842609.09648 -38041272.01247  20008877.7424                   20008875.8984
 -33300149.70447 -25932198.75545  22534214.7274                   22534213.6914
 -28417432.71748 -22126803.73646  21306384.4454                   21306379.3484
 11  7 27  0 45  0.0000000  0  8G28G12G10G09G17G04G27G02
 -72997381.24547 -56863206.84444  22799445.0944                   22799443.6564
  -3538128.94347  -2741535.40744  23583530.5784                   23583528.7504
 -17368563.40747 -13518786.26745  22175477.1024                   22175476.1374
 -22906298.47847 -17832367.15345  22116582.2584                   22116581.4344
 -60182757.14747 -46834879.66046  21880120.3134                   21880117.6254
 -48888168.44948 -38076772.81246  20000208.1254                   20000205.6254
 -33346628.86847 -25968416.30345  22525369.9224                   22525369.4654
 -28544530.04148 -22225840.59646  21282198.2344                   21282194.7814
 11  7 27  0 45 30.0000000  0  8G28G12G10G09G17G04G27G02
 -72991264.85647 -56858440.86044  22800608.1094                   22800607.1094
  -3706988.22747  -2873114.06144  23551397.8134                   23551395.5514
 -17522174.29347 -13638483.02945  22146245.8364                   22146244.7464
 -22956523.98347 -17871503.92145  22107024.9454                   22107023.0704
 -60218004.89247 -46862345.44446  21873413.1174                   21873410.9614
 -48933209.94148 -38111870.07147  19991637.0554                   19991635.0164
 -33392650.36647 -26004277.24445  22516612.7424                   22516612.2704
 -28671230.15648 -22324567.93746  21258088.3284                   21258084.4654
 11  7 27  0 46  0.0000000  0  8G28G12G10G09G17G04G27G02
 -72984787.84147 -56853393.85444  22801841.1644                   22801839.3554
  -3875726.92347  -3004598.71544  23519287.3834                   23519285.0314
 -17675442.52847 -13757912.73245  22117080.1094                   22117079.6374
 -23006126.30947 -17910155.10445  22097586.0474                   22097584.1024
 -60253126.96447 -46889713.31646  21866729.3524                   21866727.6094
 -48977735.67548 -38146565.44646  19983163.8594                   19983162.0664
 -33438216.30547 -26039783.19945  22507942.2814                   22507941.8094
 -28797532.77748 -22422985.52046  21234053.3054                   21234049.5234
 11  7 27  0 46 30.0000000  0  8G28G12G10G09G17G04G27G02
 -72977952.13447 -56848067.40344  22803142.6094                   22803140.5004
  -4044343.78447  -3135988.45644  23487201.0234                   23487198.3714
 -17828365.43747 -13877073.39445  22087979.5164                   22087977.8284
 -23055108.19747 -17948322.83045  22088264.3594                   22088263.7304
 -60288124.07647 -46916983.82346  21860070.0864                   21860067.9964
 -49021748.29848 -38180860.99446  19974788.4614                   19974786.5784
 -33483329.44547 -26074936.29445  22499356.7344                   22499356.7274
 -28923438.34247 -22521093.72646  21210094.7424                   21210090.4964
 11  7 27  0 47  0.0000000  0  8G28G12G10G09G17G04G27G02
 -72970760.57547 -56842463.64944  22804511.0234                   22804509.4844
  -4212838.48747  -3267282.99744  23455137.5704                   23455135.3444
 -17980941.71547 -13995963.95345  22058945.4064                   22058943.7304
 -23103473.38947 -17986010.01045  22079060.8204                   22079059.9104
 -60322997.78947 -46944158.15246  21853433.5944                   21853431.6524
 -49065251.75448 -38214759.79646  19966510.0554                   19966508.4534
 -33527993.29347 -26109739.31045  22490857.7424                   22490856.5164
 -29048948.37548 -22618893.71346  21186210.4924                   21186205.9774
 11  7 27  0 47 30.0000000  0  8G28G12G10G09G17G04G27G02
 -72963214.64547 -56836583.77444  22805947.3054                   22805945.8444
  -4381209.24647  -3398480.97244  23423097.2114                   23423096.5594
 -18133168.36047 -14114582.06745  22029977.6954                   22029976.5824
 -23151223.71447 -18023218.06845  22069975.1094                   22069973.2464
 -60357748.13548 -46971236.35846  21846821.2584                   21846818.2114
 -49108248.16348 -38248263.49346  19958327.8284                   19958326.0124
 -33572209.73047 -26144193.68445  22482443.7194                   22482443.0004
 -29174062.82848 -22716385.45946  21162401.9774                   21162397.1454
 11  7 27  0 48  0.0000000  0  8G28G12G10G09G17G04G27G02
 -72955314.25547 -56830427.74244  22807449.9454                   22807449.1724
  -4549451.86447  -3529579.06444  23391082.2424                   23391079.9964
 -18285040.32647 -14232923.80545  22001077.1484                   22001076.6844
 -23198359.14447 -18059946.99445  22061005.3914                   22061003.9224
 -60392372.92148 -46998216.73145  21840231.7894                   21840229.2234
 -49150737.58148 -38281372.14346  19950242.8054                   19950240.7624
 -33615978.29546 -26178299.05745  22474114.3134                   22474113.7854
 -29298779.24248 -22813567.05746  21138669.2814                   21138664.7544
 11  7 27  0 48 30.0000000  0  8G28G12G10G09G17G04G27G02
 -72947061.41047 -56823996.99044  22809020.7274                   22809020.0164
  -4717565.28647  -3660576.52344  23359090.7034                   23359089.9414
 -18436555.72547 -14350987.70545  21972244.9694                   21972243.8594
 -23244883.11247 -18096199.45445  22052151.3284                   22052150.9654
 -60426873.34848 -47025100.17445  21833666.5234                   21833664.0274
 -49192722.97948 -38314088.03146  19942252.8914                   19942251.3754
 -33659302.05646 -26212057.84744  22465870.3204                   22465868.2424
 -29423098.59248 -22910439.24746  21115012.3364                   21115008.0594
 11  7 27  0 49  0.0000000  0  8G28G12G10G09G17G04G27G02
 -72938456.31847 -56817291.78545  22810658.8594                   22810657.6724
  -4885545.95147  -3791470.50544  23327125.5314                   23327124.0314
 -18587709.68547 -14468769.96045  21943481.2974                   21943479.6294
 -23290796.12047 -18131975.85145  22043414.0004                   22043413.7894
 -60461247.91147 -47051885.58345  21827125.7424                   21827122.7544
 -49234205.22548 -38346411.85546  19934359.1484                   19934357.4804
 -33702181.43947 -26245470.40644  22457710.6954                   22457709.7074
 -29547019.45848 -23007000.94146  21091431.1414                   21091426.6174
 11  7 27  0 49 30.0000000  0  8G28G12G10G09G17G04G27G02
 -71354080.26147 -55582713.11645  23112156.0234                   23112154.5944
  -3477966.50747  -2694655.31144  23594979.0634                   23594975.9774
 -17163074.00347 -13358664.18744  22214579.6724                   22214577.4734
 -21760678.63747 -16939676.55645  22334586.2424                   22334585.1684
 -58920075.08847 -45850971.71045  22120400.5944                   22120399.0554
 -47699764.89648 -37150744.07146  20226353.5784                   20226351.6024
 -32169197.14247 -25050937.22945  22749428.6254                   22749426.5824
 -28095117.25448 -21875648.53246  21367718.7034                   21367714.2114
 11  7 27  0 50  0.0000000  0  8G28G12G10G09G17G04G27G02
 -71344782.87547 -55575468.43944  23113925.1804                   23113923.4924
  -3645684.73947  -2825344.86144  23563061.9064                   23563059.1684
 -17313504.49147 -13475882.69344  22185953.8594                   22185951.3094
 -21805384.38547 -16974512.19245  22326079.1094                   22326078.0314
 -58954205.81247 -45877567.10045  22113906.5554                   22113904.1914
 -47740255.56048 -37182295.24346  20218648.4774                   20218646.7114
 -32211202.62347 -25083668.77845  22741434.8134                   22741433.2704
 -28218249.01948 -21971595.33146  21344287.0164                   21344283.0234
 11  7 27  0 50 30.0000000  0  8G28G12G10G09G17G04G27G02
 -71335137.89447 -55567952.88844  23115759.4844                   23115758.9224
  -3813264.72447  -2955926.61444  23531172.4454                   23531170.8874
 -17463565.30747 -13592813.13544  22157398.6724                   22157396.3244
 -21849485.81947 -17008876.96545  22317687.3444                   22317686.6914
 -58988210.75547 -45904064.46745  22107434.5084                   22107432.4064
 -47780249.95448 -37213459.69846  20211037.7974                   20211035.5704
 -32252770.31647 -25116059.22745  22733525.1414                   22733523.2704
 -28340982.41748 -22067231.71646  21320931.5634                   21320927.3754
 11  7 27  0 51  0.0000000  0  8G28G12G10G09G17G04G27G02
 -71325146.62647 -55560167.54744  23117660.9844                   23117660.0594
  -3980703.82747  -3086398.58144  23499310.8284                   23499308.8594
 -17613252.94147 -13709452.77945  22128913.6804                   22128912.2194
 -21892985.36647 -17042772.74345  22309408.8834                   22309408.5944
 -59022089.98947 -45930463.88645  22100988.1254                   22100985.2034
 -47819750.12548 -37244239.05046  20203521.3134                   20203519.5944
 -32293902.15447 -25148110.00345  22725697.0704                   22725696.0314
 -28463317.02748 -22162557.37046  21297652.3284                   21297647.7384
 11  7 27  0 51 30.0000000  0  8G28G12G10G09G17G04G27G02
 -71314809.62747 -55552112.79444  23119627.4774                   23119626.1954
  -4148000.10347  -3216759.21544  23467475.1644                   23467473.2584
 -17762563.91547 -13825798.97445  22100501.2034                   22100500.4064
 -21935884.42747 -17076200.62045  22301245.3444                   22301244.6254
 -59055842.27547 -45956764.39345  22094565.2664                   22094562.3484
 -47858757.43348 -37274634.35747  20196098.5394                   20196096.7344
 -32334599.37547 -25179822.17145  22717953.2664                   22717952.8014
 -28585252.10748 -22257571.69546  21274448.5394                   21274443.7934
 11  7 27  0 52  0.0000000  0  8G28G12G10G09G17G04G27G02
 -71304135.85147 -55543795.59744  23121659.2894                   23121657.5474
  -4315158.39247  -3347012.38944  23435666.3594                   23435664.2774
 -17911502.09947 -13941854.61645  22072158.7424                   22072158.1844
 -21978192.51747 -17109167.96045  22293195.4064                   22293193.0634
 -59089474.88147 -45982971.66445  22088165.5554                   22088163.1024
 -47897281.25248 -37304652.90946  20188767.5634                   20188765.7154
 -32374871.30847 -25211202.92345  22710290.1884                   22710289.5664
 -28706794.78348 -22352280.24146  21251320.1884                   21251315.2234
 11  7 27  0 52 30.0000000  0  8G28G12G10G09G17G04G27G02
 -71293119.55047 -55535211.53044  23123755.7504                   23123754.8984
  -4482169.48547  -3477150.82744  23403885.3524                   23403882.8794
 -18060057.62147 -14057612.14145  22043889.7664                   22043888.4574
 -22019904.28747 -17141670.63945  22285257.6724                   22285255.8634
 -59122980.89647 -46009080.26945  22081789.0394                   22081787.2274
 -47935316.72848 -37334290.94046  20181529.7344                   20181528.1454
 -32414712.79347 -25242248.26845  22702707.9614                   22702708.2774
 -28827937.76948 -22446677.34146  21228267.3204                   21228263.2814
 11  7 27  0 53  0.0000000  0  9G28G12G10G09G17G05G04G27G02
 -71281767.03047 -55526365.48743  23125915.6254                   23125914.7344
  -4649035.99647  -3607176.63944  23372130.4534                   23372129.3244
 -18208232.13947 -14173072.76145  22015693.1564                   22015691.7584
 -22061027.12947 -17173714.44745  22277431.9844                   22277431.4344
 -59156364.89147 -46035093.79645  22075436.4844                   22075435.2464
   7540042.35256   5895682.12152  24711820.2344                   24711818.2814
 -47972870.92848 -37363553.96046  20174383.3204                   20174381.1054
 -32454130.93647 -25272963.71945  22695207.7114                   22695205.8794
 -28948686.17248 -22540766.98246  21205289.4144                   21205285.1764
 11  7 27  0 53 30.0000000  0  9G28G12G10G09G17G05G04G27G02
 -71270091.37446 -55517267.62143  23128138.0084                   23128135.9694
  -4815767.36347  -3737097.12145  23340403.5944                   23340401.3834
 -18356033.90847 -14288242.90945  21987566.8524                   21987566.1804
 -22101574.81447 -17205310.07845  22269716.2504                   22269714.9454
 -59189638.12947 -46061021.01745  22069104.5554                   22069102.8554
   7361934.86146   5756897.39842  24677927.7034                   24677928.4964
 -48009957.67248 -37392452.73146  20167325.8674                   20167324.0514
 -32493139.11447 -25303359.70945  22687784.8984                   22687782.5594
 -29069051.08048 -22634557.80846  21182384.3204                   21182380.4884
 11  7 27  0 54  0.0000000  0  9G28G12G10G09G17G05G04G27G02
 -71258095.86246 -55507920.52043  23130420.2344                   23130418.4304
  -4982363.39447  -3866912.19045  23308700.6954                   23308699.1054
 -18503461.96147 -14403121.86145  21959512.1804                   21959511.1054
 -22141551.63247 -17236460.88545  22262109.5944                   22262107.0634
 -59222802.17647 -46086863.14945  22062793.9144                   22062792.2384
   7183757.16646   5618057.95543  24644020.8914                   24644022.8554
 -48046580.54448 -37420990.03047  20160357.2344                   20160354.7464
 -32531741.24147 -25333439.33445  22680439.0704                   22680437.9264
 -29189034.58948 -22728051.43846  21159552.5474                   21159548.3874
 11  7 27  0 54 30.0000000  0  9G28G12G10G09G17G05G04G27G02
 -71245777.77746 -55498322.09344  23132764.5554                   23132761.7034
  -5148817.80347  -3996616.86645  23277025.8444                   23277023.5314
 -18650509.44747 -14517704.25545  21931530.0784                   21931528.8674
 -22180955.58147 -17267165.24545  22254610.9694                   22254609.1454
 -59255852.92947 -46112617.00745  22056504.4534                   22056502.5904
   7005515.80045   5479168.88742  24610101.4924                   24610104.2974
 -48082738.06648 -37449164.72047  20153476.1804                   20153474.6884
 -32569935.36847 -25363201.04245  22673171.3054                   22673168.6804
 -29308632.09348 -22821244.28446  21136794.1954                   21136789.8674
 11  7 27  0 55  0.0000000  0  9G28G12G10G09G17G05G04G27G02
 -71233132.19546 -55488468.41344  23135171.2664                   23135168.9414
  -5315121.50647  -4126204.13345  23245379.7194                   23245377.9654
 -18797166.24847 -14631982.23945  21903622.4454                   21903620.5164
 -22219782.18546 -17297419.72244  22247222.1644                   22247220.2114
 -59288783.43247 -46138277.16745  22050237.9844                   22050235.4654
   6827220.06345   5340237.39043  24576172.6334                   24576176.3834
 -48118425.54848 -37476973.15847  20146685.8054                   20146684.0704
 -32607716.75847 -25392641.10445  22665980.9384                   22665979.0784
 -29427837.09448 -22914131.27746  21114110.0394                   21114105.5824
 11  7 27  0 55 30.0000000  0  9G28G12G10G09G17G05G04G27G02
 -71220162.81646 -55478362.46144  23137638.5554                   23137637.9654
  -5481274.77846  -4255674.13045  23213761.0314                   23213760.0784
 -18943431.85847 -14745955.40845  21875788.2664                   21875787.5354
 -22258036.44347 -17327228.27345  22239942.3284                   22239940.7274
 -59321595.91147 -46163845.34345  22043994.7344                   22043992.0554
   6648870.17146   5201263.76143  24542233.6254                   24542238.9614
 -48153647.58348 -37504418.90647  20139982.6254                   20139980.8794
 -32645089.77947 -25421762.98444  22658868.8594                   22658867.8794
 -29546652.02448 -23006714.30546  21091500.5314                   21091496.0474
 11  7 27  0 56  0.0000000  0  9G28G12G10G09G17G05G04G27G02
 -71206869.17947 -55468003.82544  23140169.3834                   23140168.5234
  -5647273.48247  -4385023.71145  23182173.3054                   23182171.9494
 -19089301.21847 -14859619.81045  21848031.1414                   21848029.5084
 -22295718.36447 -17356590.81645  22232772.1884                   22232769.9924
 -59354288.12547 -46189319.83045  22037773.7894                   22037770.7424
   6470470.68945   5062251.34643  24508285.2114                   24508288.7274
 -48188404.28548 -37531502.06546  20133368.3984                   20133366.9804
 -32682054.52947 -25450566.72045  22651835.1174                   22651833.5204
 -29665074.80548 -23098991.76846  21068965.5004                   21068960.8164
 11  7 27  0 56 30.0000000  0  9G28G12G10G09G17G05G04G27G02
 -71193251.32447 -55457392.57144  23142761.1334                   23142760.4694
  -5813114.21147  -4514250.22845  23150614.7974                   23150612.5864
 -19234769.68647 -14972971.82745  21820349.6254                   21820347.7234
 -22332829.09647 -17385508.29544  22225710.3524                   22225708.2274
 -59386858.42247 -46214699.29545  22031575.8524                   22031573.4494
   6292025.41445   4923203.45243  24474327.0704                   24474330.7734
 -48222696.55448 -37558223.30647  20126843.0944                   20126841.4024
 -32718611.71647 -25479052.86545  22644878.1884                   22644877.4264
 -29783103.69548 -23190962.31546  21046505.0944                   21046500.4804
 11  7 27  0 57  0.0000000  0  9G28G12G10G09G17G05G04G27G02
 -71179310.30447 -55446529.50144  23145413.6414                   23145413.3634
  -5978793.79047  -4643351.13145  23119086.4534                   23119085.5904
 -19379833.64848 -15086008.64445  21792745.0004                   21792743.1844
 -22369370.32447 -17413981.99344  22218756.7274                   22218754.3284
 -59419305.60247 -46239982.84345  22025400.1174                   22025398.7894
   6113537.28646   4784121.96743  24440362.2034                   24440364.2034
 -48256525.94348 -37584583.88146  20120405.5164                   20120403.4264
 -32754762.96047 -25507222.72545  22637999.6484                   22637998.2894
 -29900738.21348 -23282625.56046  21024119.5554                   21024116.1454
 11  7 27  0 57 30.0000000  0  9G28G12G10G09G17G05G04G27G02
 -71165047.88946 -55435416.02444  23148127.4454                   23148126.3134
  -6144310.62847  -4772325.27645  23087589.4844                   23087587.5124
 -19524490.75148 -15198728.41645  21765217.3284                   21765215.7464
 -22405344.93847 -17442014.18644  22211910.8054                   22211908.0474
 -59451630.65547 -46265171.21945  22019249.2034                   22019247.1844
   5935008.32446   4645008.76143  24406389.6334                   24406391.2424
 -48289895.34048 -37610586.01346  20114055.8834                   20114054.1294
 -32790510.84447 -25535078.27445  22631197.0784                   22631195.9344
 -30017978.66448 -23373981.73946  21001810.2194                   21001805.8634
 11  7 27  0 58  0.0000000  0  9G28G12G10G09G17G05G04G27G02
 -71150461.89647 -55424050.33544  23150903.0944                   23150902.4384
  -6309658.66747  -4901167.89744  23056124.7504                   23056123.5204
 -19668734.31048 -15311125.92545  21737767.9844                   21737766.4694
 -22440751.70947 -17469603.90045  22205174.0084                   22205170.8794
 -59483829.28247 -46290261.07245  22013121.8204                   22013119.8594
   5756444.83146   4505868.56743  24372410.6954                   24372412.2074
 -48322802.95748 -37636228.32446  20107793.7274                   20107791.5634
 -32825853.80647 -25562618.29845  22624471.1954                   22624469.6884
 -30134821.68348 -23465028.22046  20979575.1414                   20979570.8914
 11  7 27  0 58 30.0000000  0  9G28G12G10G09G17G05G04G27G02
 -71135560.19447 -55412438.70144  23153739.1724                   23153737.9614
  -6474841.51347  -5029881.77544  23024691.5634                   23024689.6134
 -19812567.06747 -15423203.35845  21710397.8594                   21710395.8134
 -22475598.94047 -17496757.60945  22198542.4224                   22198539.9774
 -59515907.06547 -46315256.73845  22007018.0164                   22007015.4024
   5577843.49246   4366698.92444  24338422.8914                   24338425.6764
 -48355257.02048 -37661517.20546  20101617.7274                   20101616.1994
 -32860799.78247 -25589848.97844  22617820.8204                   22617820.3674
 -30251273.06948 -23555769.52046  20957415.6564                   20957411.1524
 11  7 27  0 59  0.0000000  0  9G28G12G10G09G17G05G04G27G02
 -71120345.03647 -55400582.75844  23156635.0704                   23156633.8204
  -6639857.93947  -5158465.99144  22993290.2424                   22993287.6914
 -19955987.32947 -15534959.35145  21683105.7034                   21683104.1604
 -22509890.00147 -17523477.95445  22192017.5164                   22192014.4104
 -59547864.79847 -46340158.91645  22000937.2194                   22000934.4924
   5399205.89447   4227501.04944  24304429.2504                   24304432.4304
 -48387260.81348 -37686455.22146  20095527.7194                   20095525.5634
 -32895352.05347 -25616772.87344  22611245.2664                   22611245.2464
 -30367333.64848 -23646206.30646  20935329.6024                   20935325.6214
 11  7 27  0 59 30.0000000  0  9G28G12G10G09G17G05G04G27G02
 -71104814.38346 -55388481.00744  23159589.6414                   23159589.3404
  -6804702.14347  -5286915.99545  22961920.7894                   22961919.4184
 -20098988.00447 -15646388.43145  21655894.0474                   21655892.2584
 -22543623.78247 -17549764.02445  22185597.7664                   22185594.7584
 -59579698.65547 -46364964.54745  21994879.2894                   21994876.7194
   5220538.00646   4088279.54443  24270430.3834                   24270431.0784
 -48418812.83748 -37711041.22746  20089523.6564                   20089521.2344
 -32929509.06947 -25643388.77944  22604745.6884                   22604746.0394
 -30483000.36648 -23736336.18546  20913318.9064                   20913314.4104
 11  7 27  1  0  0.0000000  0  9G28G12G10G09G17G05G04G27G02
 -71088973.03746 -55376137.10944  23162604.1724                   23162603.0314
  -6969375.09147  -5415232.54545  22930586.2424                   22930582.5314
 -20241569.62847 -15757490.95345  21628761.1254                   21628759.4104
 -22576806.10447 -17575620.41345  22179283.5554                   22179281.9064
 -59611411.44147 -46389675.83545  21988844.0234                   21988841.6604
   5041839.17647   3949033.91744  24236425.9924                   24236425.6174
 -48449918.70748 -37735279.56746  20083604.2734                   20083602.1764
 -32963276.41847 -25669701.06944  22598319.2974                   22598319.4064
 -30598275.65148 -23826161.07046  20891382.7894                   20891378.8594
 11  7 27  1  0 30.0000000  0  9G28G12G10G09G17G05G04G27G02
 -69497401.39946 -54135951.49043  23465469.3594                   23465469.5864
  -5558447.01346  -4315808.05745  23199075.2814                   23199074.0044
 -18808302.52548 -14640659.41345  21901502.8674                   21901501.1524
 -21034016.62647 -16373446.82845  22472865.5554                   22472864.3594
 -58067580.30847 -45186690.54645  22282625.5944                   22282622.5704
   6438539.81646   5037372.22743  24502208.3754                   24502206.5234
 -46905157.80648 -36531569.76946  20377562.4844                   20377560.6214
 -31421233.35047 -24468109.10644  22891761.1484                   22891761.1524
 -29137734.41748 -22688076.96846  21169314.4384                   21169310.3404
 11  7 27  1  1  0.0000000  0  9G28G12G10G09G17G05G04G27G02
 -69480937.21646 -54123122.33243  23468603.3754                   23468602.6214
  -5722764.02147  -4443847.23845  23167807.8754                   23167805.1914
 -18950030.47047 -14751096.71545  21874533.2114                   21874531.7704
 -21066097.13547 -16398444.63845  22466761.4224                   22466759.9574
 -58099044.04447 -45211207.75045  22276638.3054                   22276635.5634
   6259793.51546   4898089.59144  24468193.9844                   24468194.1764
 -46935371.65748 -36555113.03646  20371813.1174                   20371811.1454
 -31454221.37046 -24493814.11344  22885483.5784                   22885483.6844
 -29252221.33248 -22777287.52946  21147528.4064                   21147524.1174
 11  7 27  1  1 30.0000000  0  9G28G12G10G09G17G05G04G27G02
 -69464163.56546 -54110052.00043  23471795.5164                   23471792.6024
  -5886899.24147  -4571744.78845  23136573.4614                   23136571.4384
 -19091327.01047 -14861197.88845  21847644.9384                   21847643.5164
 -21097630.23047 -16423015.91845  22460760.5864                   22460759.6054
 -58130382.28947 -45235627.18845  22270675.2034                   22270672.4804
   6081027.43846   4758791.58943  24434174.7974                   24434176.5234
 -46965142.62148 -36578311.20346  20366147.7734                   20366145.8014
 -31486822.67746 -24519217.78145  22879280.0704                   22879279.1454
 -29366313.94348 -22866190.82746  21125817.4384                   21125813.3404
 11  7 27  1  2  0.0000000  0  9G28G12G10G09G17G05G04G27G02
 -69447083.75746 -54096743.07643  23475045.1564                   23475043.3834
  -6050851.84947  -4699500.04945  23105374.0634                   23105371.0394
 -19232190.73647 -14970961.77245  21820839.3834                   21820838.0004
 -21128619.90747 -16447163.74445  22454864.6724                   22454862.7504
 -58161596.53347 -45259949.96945  22264735.3914                   22264733.1294
   5902243.16746   4619479.38344  24400153.6024                   24400155.9184
 -46994474.31848 -36601167.05846  20360566.3984                   20360564.5514
 -31519040.96947 -24544323.01445  22873149.6174                   22873149.3554
 -29480013.89948 -22954788.16146  21104180.7034                   21104177.0124
 11  7 27  1  2 30.0000000  0  9G28G12G10G09G17G05G04G27G02
 -69429700.35746 -54083197.64443  23478353.7504                   23478352.1524
  -6214620.77747  -4827112.17345  23074209.9614                   23074207.9144
 -19372619.77347 -15080386.97445  21794116.5164                   21794115.0044
 -21159069.88047 -16470891.01945  22449069.8444                   22449068.9574
 -58192687.29147 -45284176.56645  22258819.1174                   22258816.8404
   5723441.79346   4480153.86444  24366128.5634                   24366130.9184
 -47023370.15448 -36623683.29246  20355067.7274                   20355065.3284
 -31550879.52847 -24569132.33845  22867090.2504                   22867089.8794
 -29593322.06848 -23043080.21146  21082619.0554                   21082615.4104
 11  7 27  1  3  0.0000000  0  9G28G12G10G09G17G05G04G27G02
 -69412011.46546 -54069414.12143  23481720.4614                   23481718.8364
  -6378200.20747  -4954576.61045  23043081.0634                   23043079.1724
 -19512607.52247 -15189468.27845  21767478.0944                   21767477.0744
 -21188979.26847 -16494197.07145  22443378.0634                   22443376.4964
 -58223650.85347 -45308304.01945  22252926.2344                   22252924.5204
   5544629.62246   4340819.92844  24332102.5164                   24332102.4384
 -47051829.01148 -36645859.03246  20349652.0164                   20349650.1254
 -31582337.17547 -24593644.87245  22861104.6884                   22861103.8984
 -29706235.16248 -23131064.42246  21061132.1484                   21061128.8794
 11  7 27  1  3 30.0000000  0  9G28G12G10G09G17G05G04G27G02
 -69394021.58246 -54055396.04844  23485143.9774                   23485142.0664
  -6541590.27647  -5081893.50345  23011989.2194                   23011986.4614
 -19652153.83647 -15298205.61645  21740923.3134                   21740921.2344
 -21218353.58146 -16517086.19245  22437788.9224                   22437786.5634
 -58254489.60247 -45332334.24245  22247058.2814                   22247056.4574
   5365806.23846   4201477.29444  24298072.0634                   24298073.2274
 -47079855.86348 -36667698.13146  20344318.2114                   20344316.1914
 -31613418.98747 -24617864.52045  22855190.5084                   22855189.3404
 -29818756.27448 -23218743.18046  21039720.1094                   21039715.9924
 11  7 27  1  4  0.0000000  0  9G28G12G10G09G17G05G04G27G02
 -69375731.90846 -54041144.40044  23488623.5704                   23488623.0784
  -6704788.12347  -5209060.65445  22980933.7974                   22980932.4454
 -19791255.18747 -15406596.22245  21714452.7424                   21714451.1764
 -21247194.83047 -16539559.94745  22432300.4384                   22432298.0084
 -58285203.14347 -45356266.89145  22241213.6334                   22241211.4414
   5186975.15346   4062128.62544  24264042.1174                   24264042.4344
 -47107452.61048 -36689202.09746  20339067.2974                   20339065.6804
 -31644126.69047 -24641792.65745  22849347.7114                   22849346.4224
 -29930884.73448 -23306115.97146  21018382.8754                   21018378.3954
 11  7 27  1  4 30.0000000  0  9G28G12G10G09G17G05G04G27G02
 -69357144.99546 -54026661.10843  23492160.0474                   23492159.6604
  -6867792.58047  -5336077.05545  22949915.3674                   22949913.3094
 -19929909.38948 -15514638.42945  21688067.8914                   21688066.5084
 -21275506.57546 -16561621.08245  22426912.4534                   22426911.4734
 -58315791.47447 -45380101.94945  22235393.0784                   22235390.1214
   5008137.78746   3922775.00044  24230009.3834                   24230010.8984
 -47134622.23148 -36710373.23546  20333896.6564                   20333895.5234
 -31674463.53847 -24665431.78345  22843574.7344                   22843572.9414
 -30042621.44048 -23393183.51146  20997120.1174                   20997115.3014
 11  7 27  1  5  0.0000000  0  9G28G12G10G09G17G05G04G27G02
 -69338262.90046 -54011947.87743  23495753.9454                   23495753.2234
  -7030601.43347  -5462941.08645  22918933.7734                   22918930.8244
 -20068114.35847 -15622330.57545  21661768.4304                   21661766.6764
 -21303291.96547 -16583272.08345  22421625.1254                   22421623.9574
 -58346254.96647 -45403839.74245  22229595.3054                   22229594.0084
   4829296.31646   3783418.27644  24195977.8594                   24195978.3164
 -47161367.74048 -36731213.89446  20328807.3524                   20328806.0554
 -31704432.23247 -24688784.04845  22837870.4384                   22837870.0514
 -30153967.40348 -23479946.55946  20975931.8364                   20975928.0824
 11  7 27  1  5 30.0000000  0  9G28G12G10G09G17G05G04G27G02
 -69319086.83146 -53997005.51844  23499402.9924                   23499402.6454
  -7193212.33647  -5589650.85645  22887990.1024                   22887987.2974
 -20205866.78247 -15729670.06445  21635555.0554                   21635553.5554
 -21330553.25947 -16604514.68345  22416437.3594                   22416436.6994
 -58376592.57147 -45427479.43845  22223823.1334                   22223820.2304
   4650453.98046   3644060.76644  24161945.1564                   24161944.9734
 -47187690.77848 -36751725.34946  20323798.3204                   20323796.2704
 -31734034.56547 -24711850.84245  22832237.6804                   22832237.3094
 -30264922.21648 -23566404.83146  20954817.8284                   20954813.0594
 11  7 27  1  6  0.0000000  0  9G28G12G10G09G17G05G04G27G02
 -69299613.62846 -53981831.61944  23503109.0234                   23503107.9264
  -7355617.68947  -5716200.43945  22857085.1334                   22857082.7664
 -20343158.75647 -15836650.77945  21609429.4384                   21609427.7704
 -21357288.21447 -16625347.16145  22411349.8134                   22411350.5124
 -58406799.62447 -45451017.39545  22218074.3444                   22218073.1644
   4471618.36547   3504708.60344  24127913.7584                   24127913.3204
 -47213588.81948 -36771905.63546  20318870.0554                   20318868.6564
 -31763267.97548 -24734630.16945  22826675.7194                   22826674.5084
 -30375481.00848 -23652554.51746  20933779.3834                   20933775.1884
 11  7 27  1  6 30.0000000  0  9G28G12G10G09G17G05G04G27G02
 -69279855.18146 -53966435.45943  23506867.2344                   23506866.8324
  -7517825.36447  -5842595.99945  22826218.1414                   22826216.2624
 -20479997.93347 -15943278.64745  21583389.3054                   21583387.4734
 -21383509.86247 -16645779.65445  22406359.8444                   22406359.5314
 -58436885.80947 -45474461.19545  22212349.5944                   22212347.8674
   4292781.63646   3365355.49844  24093881.0784                   24093882.6564
 -47239074.45448 -36791764.56546  20314019.9924                   20314018.0354
 -31792144.84147 -24757131.70445  22821180.1414                   22821179.3244
 -30485654.34748 -23738403.85546  20912813.7344                   20912809.5164
 11  7 27  1  7  0.0000000  0  9G28G12G10G09G17G05G04G27G02
 -69259805.35346 -53950812.27643  23510683.6094                   23510681.9304
  -7679825.23247  -5968829.62445  22795390.4924                   22795388.4884
 -20616373.46047 -16049545.23045  21557437.8834                   21557437.0984
 -21409213.06147 -16665808.18645  22401468.8134                   22401467.7584
 -58466842.74147 -45497804.24345  22206648.8444                   22206646.8134
   4113954.49046   3226009.85544  24059851.8834                   24059852.2624
 -47264142.13848 -36811297.82946  20309249.7114                   20309247.6254
 -31820659.94847 -24779351.30345  22815753.6804                   22815752.7194
 -30595434.59448 -23823946.89146  20891923.1884                   20891918.8984
 11  7 27  1  7 30.0000000  0  9G28G12G10G09G17G05G04G27G02
 -69239466.69446 -53934964.00443  23514554.2114                   23514551.8364
  -7841615.32847  -6094899.78545  22764602.5234                   22764600.7854
 -20752282.97947 -16155448.69245  21531574.8834                   21531574.0204
 -21434401.08846 -16685435.27845  22396675.3914                   22396674.4654
 -58496670.55247 -45521046.69345  22200973.0704                   22200971.0864
   3935139.06846   3086673.39444  24025824.3594                   24025825.4804
 -47288794.89548 -36830507.76146  20304558.8204                   20304557.2934
 -31848816.08847 -24801291.20545  22810395.5314                   22810395.6174
 -30704822.06248 -23909183.85046  20871107.6644                   20871103.4884
 11  7 27  1  8  0.0000000  0  9G28G12G10G09G17G05G04G27G02
 -69218840.30846 -53918891.50143  23518480.4144                   23518477.3444
  -8003192.79347  -6220804.25645  22733855.6954                   22733854.0554
 -20887723.22147 -16260986.50345  21505801.4774                   21505800.8054
 -21459076.47846 -16704662.90645  22391980.1094                   22391979.1884
 -58526368.54147 -45544187.98944  22195321.5634                   22195318.3754
   3756338.69346   2947348.63444  23991799.3054                   23991800.1094
 -47313034.37048 -36849395.67446  20299945.8674                   20299944.1764
 -31876615.20647 -24822952.88944  22805106.2194                   22805104.9694
 -30813816.89148 -23994114.86946  20850366.3054                   20850361.7664
 11  7 27  1  8 30.0000000  0  9G28G12G10G09G17G05G04G27G02
 -69197931.16946 -53902598.67243  23522457.5704                   23522456.2074
  -8164558.88447  -6346544.01445  22703148.3984                   22703146.7704
 -21022694.96748 -16366159.24245  21480117.3754                   21480116.3054
 -21483245.57047 -16723496.00345  22387381.5164                   22387380.4454
 -58555940.09847 -45567230.72744  22189694.1254                   22189691.5474
   3577552.28346   2808034.74044  23957777.3054                   23957776.5634
 -47336866.43448 -36867966.12046  20295411.2274                   20295409.2234
 -31904063.09247 -24844340.90144  22799882.4144                   22799881.6254
 -30922422.76448 -24078742.80246  20829699.6644                   20829695.5984
 11  7 27  1  9  0.0000000  0  9G28G12G10G09G17G05G04G27G02
 -69176739.93446 -53886085.99743  23526490.1174                   23526489.7974
  -8325709.61647  -6472115.95945  22672482.6024                   22672480.4064
 -21157194.46048 -16470963.99545  21454523.0394                   21454520.4534
 -21506909.63147 -16741935.57845  22382878.0394                   22382877.5904
 -58585383.28447 -45590173.46045  22184091.1094                   22184088.4024
   3398783.92246   2668734.88344  23923758.8594                   23923758.5704
 -47360292.42148 -36886220.13246  20290953.2114                   20290951.4414
 -31931160.68247 -24865455.96844  22794725.8914                   22794725.3404
 -31030638.53948 -24163066.76446  20809106.3524                   20809102.0434
 11  7 27  1  9 30.0000000  0  9G28G12G10G09G17G05G04G27G02
 -69155270.69147 -53869356.74143  23530576.5004                   23530575.1524
  -8486645.07947  -6597520.16145  22641856.9924                   22641854.7344
 -21291220.78047 -16575400.05145  21429018.4064                   21429016.9574
 -21530073.78047 -16759985.60145  22378470.2274                   22378468.9574
 -58614700.11647 -45613017.71444  22178512.0554                   22178510.0354
   3220034.01646   2529449.38644  23889743.8834                   23889742.9964
 -47383316.59248 -36904161.04846  20286571.7194                   20286569.9534
 -31957912.99246 -24886301.98644  22789634.5704                   22789634.6684
 -31138466.80948 -24247088.76546  20788587.6094                   20788583.0274
 11  7 27  1 10  0.0000000  0  9G28G12G10G09G17G05G04G27G02
 -69133526.20547 -53852413.00443  23534714.1254                   23534713.6684
  -8647364.17347  -6722755.76445  22611273.1954                   22611270.9774
 -21424772.33047 -16679466.14345  21403604.7034                   21403602.5434
 -21552741.95547 -16777649.17245  22374156.2194                   22374156.2624
 -58643891.19547 -45635763.99844  22172957.1804                   22172954.9774
   3041304.30747   2390179.64644  23855733.0164                   23855733.5164
 -47405942.56448 -36921791.67546  20282266.6254                   20282264.2704
 -31984323.29447 -24906881.53144  22784608.4224                   22784609.0234
 -31245908.62448 -24330809.64946  20768142.3204                   20768137.8594
 11  7 27  1 10 30.0000000  0  9G28G12G10G09G17G05G04G27G02
 -69111507.10346 -53835255.30743  23538904.7034                   23538903.4614
  -8807862.58447  -6847819.40345  22580732.2114                   22580729.9494
 -21557844.90447 -16783159.01545  21378281.4694                   21378279.8554
 -21574915.66747 -16794927.45345  22369936.6954                   22369937.3484
 -58672954.48847 -45658410.73145  22167426.8524                   22167424.7424
   2862598.67147   2250928.73744  23821726.0084                   23821726.9184
 -47428171.08748 -36939112.60646  20278036.3444                   20278034.5514
 -32010392.60547 -24927195.28444  22779648.3284                   22779648.1374
 -31352963.23248 -24414228.81046  20747770.2584                   20747766.1724
 11  7 27  1 11  0.0000000  0  9G28G12G10G09G17G05G04G27G02
 -69089210.86846 -53817881.66143  23543147.0164                   23543144.8834
  -8968133.98347  -6972706.14245  22550232.6174                   22550231.0274
 -21690431.60947 -16886473.28845  21353051.5084                   21353049.3634
 -21596593.82347 -16811819.57445  22365811.4614                   22365811.1564
 -58701886.23647 -45680954.92945  22161921.9694                   22161918.7344
   2683924.16047   2111701.97144  23787723.7344                   23787726.6294
 -47450000.51748 -36956122.54646  20273882.4304                   20273880.3834
 -32036119.30747 -24947242.14844  22774752.5164                   22774752.0164
 -31459626.73248 -24497343.19946  20727472.9844                   20727468.6454
 11  7 27  1 11 30.0000000  0  9G28G12G10G09G17G05G04G27G02
 -67491221.85846 -52572695.36243  23847233.5784                   23847231.3524
  -7552752.46847  -5869811.41445  22819571.1174                   22819567.9694
 -20247107.63347 -15761805.19945  21627706.8134                   21627705.0594
 -20042360.36347 -15600728.57245  22661572.8914                   22661571.5434
 -57155266.53647 -44475796.73445  22456233.6484                   22456231.0004
   4080707.36946   3200104.60144  24053523.9844                   24053525.0594
 -45896014.54448 -35745224.39446  20569596.2814                   20569593.9924
 -30486086.94647 -23739424.76244  23069714.2584                   23069713.5664
 -29990477.56748 -23352551.62446  21007042.8984                   21007037.8244
 11  7 27  1 12  0.0000000  0  9G28G12G10G09G17G05G04G27G02
 -67468380.46146 -52554897.03643  23851581.0704                   23851578.6844
  -7712566.45947  -5994341.74945  22789159.6024                   22789156.9574
 -20378718.85447 -15864359.32545  21602661.9774                   21602660.0164
 -20063059.77247 -15616858.02045  22657634.0234                   22657633.0784
 -57183936.92547 -44498137.30545  22450777.4304                   22450774.6484
   3902099.22146   3060929.54144  24019535.5554                   24019535.6844
 -45917056.97048 -35761621.08246  20565591.7894                   20565589.8794
 -30511139.76647 -23758946.52444  23064947.9064                   23064946.8094
 -30096363.46148 -23435060.08746  20986893.1884                   20986889.0084
 11  7 27  1 12 30.0000000  0  9G28G12G10G09G17G05G04G27G02
 -67445270.71046 -52536889.44043  23855979.5314                   23855975.9964
  -7872149.46847  -6118692.10945  22758791.9534                   22758790.2194
 -20509839.47647 -15966531.20145  21577709.9144                   21577708.7074
 -20083275.39347 -15632610.48245  22653787.3594                   22653786.1644
 -57212477.61647 -44520376.80245  22445346.9224                   22445343.5864
   3723526.88447   2921782.43243  23985554.6174                   23985553.8324
 -45937710.76347 -35777714.95046  20561661.3284                   20561659.4344
 -30535860.75147 -23778209.69644  23060243.4384                   23060242.8134
 -30201862.26948 -23517266.92546  20966817.3134                   20966813.3204
 11  7 27  1 13  0.0000000  0  9G28G12G10G09G17G05G04G27G02
 -67421896.51646 -52518675.82643  23860426.1334                   23860424.2974
  -8031501.01647  -6242862.09645  22728468.1954                   22728466.0554
 -20640468.83147 -16068320.25345  21552851.8984                   21552851.5044
 -20103012.32347 -15647989.95845  22650031.0864                   22650028.7734
 -57240890.28747 -44542516.56444  22439939.9454                   22439937.2154
   3544991.16247   2782663.84044  23951580.4614                   23951578.8874
 -45957980.28948 -35793509.39446  20557804.5554                   20557802.6454
 -30560253.99847 -23797217.50944  23055601.8674                   23055601.2304
 -30306976.33248 -23599173.95446  20946814.4844                   20946810.0164
 11  7 27  1 13 30.0000000  0  9G28G12G10G09G17G05G04G27G02
 -67398259.20746 -52500257.14043  23864924.2894                   23864923.3954
  -8190618.14647  -6366849.44845  22698189.4304                   22698187.0084
 -20770604.01147 -16169724.25245  21528088.5084                   21528086.8404
 -20122273.22847 -15662998.52145  22646366.0784                   22646364.0824
 -57269173.76347 -44564555.63745  22434558.1884                   22434555.1024
   3366495.36547   2643576.34144  23917612.7584                   23917612.9844
 -45977867.50648 -35809005.92846  20554019.9774                   20554018.2624
 -30584321.87647 -23815971.79645  23051021.7504                   23051020.5274
 -30411705.86148 -23680781.36346  20926885.1884                   20926881.5554
 11  7 27  1 14  0.0000000  0  9G28G12G10G09G17G05G04G27G02
 -67374359.70746 -52481634.25843  23869472.3444                   23869472.3014
  -8349497.71547  -6490651.67645  22667955.4844                   22667953.9304
 -20900241.41547 -16270740.39045  21503419.6884                   21503418.2424
 -20141060.16747 -15677637.73645  22642791.1884                   22642790.0594
 -57297326.96347 -44586493.19545  22429200.3444                   22429198.1914
   3188043.52946   2504523.14143  23883654.4064                   23883655.4964
 -45997373.99947 -35824205.79546  20550308.0704                   20550306.3874
 -30608065.92047 -23834473.68245  23046503.2194                   23046504.1994
 -30516050.28147 -23762088.69346  20907029.2424                   20907024.7774
 11  7 27  1 14 30.0000000  0  9G28G12G10G09G17G05G04G27G02
 -67350197.50146 -52462806.57543  23874070.7194                   23874069.5984
  -8508135.03947  -6614265.13545  22637767.8364                   22637764.9264
 -21029376.05348 -16371364.73646  21478846.3284                   21478844.0904
 -20159373.73447 -15691908.09245  22639306.6174                   22639304.7424
 -57325347.23247 -44608327.18744  22423868.3754                   22423866.5234
   3009639.78347   2365507.33144  23849705.9454                   23849705.1454
 -46016499.73948 -35839108.97146  20546668.4844                   20546666.5864
 -30631486.43647 -23852723.48945  23042046.7894                   23042047.9694
 -30620007.47748 -23843094.27746  20887247.3204                   20887242.4414
 11  7 27  1 15  0.0000000  0  9G28G12G10G09G17G05G04G27G02
 -67325777.53246 -52443778.12143  23878717.0474                   23878716.3444
  -8666530.78747  -6737690.37345  22607626.0164                   22607623.4884
 -21158008.70747 -16471597.90346  21454367.7974                   21454365.8204
 -20177220.49347 -15705814.70145  22635910.1644                   22635909.1604
 -57353237.22447 -44630059.65344  22418560.3204                   22418558.6564
   2831284.08347   2226528.99844  23815766.3914                   23815765.4414
 -46035250.42648 -35853719.89046  20543100.5004                   20543098.5044
 -30654589.34647 -23870725.83045  23037650.4774                   23037650.3134
 -30723581.07848 -23923800.95446  20867537.7424                   20867532.8444
 11  7 27  1 15 30.0000000  0  9G28G12G10G09G17G05G04G27G02
 -67301100.52146 -52424549.25843  23883413.8674                   23883411.4694
  -8824681.12247  -6860924.36545  22577531.5084                   22577527.4344
 -21286135.09648 -16571436.58345  21429986.1954                   21429984.3204
 -20194601.39946 -15719358.29845  22632602.4144                   22632602.2194
 -57380995.08246 -44651689.18544  22413278.2664                   22413276.9104
   2652980.91947   2087591.60644  23781835.9144                   23781834.8164
 -46053626.78348 -35868039.13246  20539603.1724                   20539601.6804
 -30677375.20447 -23888481.11145  23033315.4844                   23033313.8524
 -30826769.90748 -24004207.80846  20847901.4924                   20847896.6764
 11  7 27  1 16  0.0000000  0  9G28G12G10G09G17G05G04G27G02
 -67276168.65446 -52405121.87843  23888157.9924                   23888156.4534
  -8982583.39947  -6983965.08545  22547483.1334                   22547479.4614
 -21413752.92447 -16670879.00545  21405701.0554                   21405699.6054
 -20211520.15147 -15732541.75945  22629383.0634                   22629381.8364
 -57408620.79346 -44673215.71244  22408021.5704                   22408019.4224
   2474732.48147   1948696.82444  23747916.0394                   23747914.1764
 -46071631.49648 -35882068.77746  20536177.1254                   20536175.0824
 -30699846.81247 -23905991.52245  23029037.8914                   23029038.0474
 -30929574.74148 -24084315.44346  20828337.8594                   20828333.4804
 11  7 27  1 16 30.0000000  0  9G28G12G10G09G17G05G04G27G02
 -67250983.48646 -52385497.09343  23892950.2584                   23892948.4024
  -9140235.17247  -7106810.57945  22517483.0864                   22517479.2934
 -21540859.34747 -16769922.93245  21381513.1564                   21381511.8244
 -20227979.32247 -15745367.15645  22626251.0554                   22626250.6134
 -57436113.56847 -44694638.65744  22402789.9384                   22402787.8754
   2296541.78447   1809847.05944  23714006.6024                   23714006.6724
 -46089266.80948 -35895810.58746  20532821.5004                   20532819.3554
 -30722006.51847 -23923258.87844  23024820.7504                   23024821.2774
 -31031995.56448 -24164123.85046  20808847.8054                   20808843.8794
 11  7 27  1 17  0.0000000  0  9G28G12G10G09G17G05G04G27G02
 -67225548.38846 -52365677.45043  23897790.7894                   23897789.1254
  -9297635.40047  -7229460.06745  22487530.8054                   22487526.6564
 -21667453.93147 -16868568.04245  21357423.2194                   21357421.7274
 -20243984.14246 -15757838.48945  22623205.5634                   22623204.7344
 -57463474.80947 -44715959.16144  22397583.9304                   22397581.2154
   2118410.01847   1671043.21944  23680111.0314                   23680108.7384
 -46106536.94748 -35909267.82846  20529535.2114                   20529532.6644
 -30743858.81847 -23940286.67244  23020661.7504                   23020661.9804
 -31134034.89448 -24243634.99346  20789430.5554                   20789426.6604
 11  7 27  1 17 30.0000000  0  9G28G12G10G09G17G05G04G27G02
 -67199864.04646 -52345663.71643  23902678.4614                   23902677.7384
  -9454779.97147  -7351910.35345  22457626.9454                   22457623.7894
 -21793532.29247 -16966810.88945  21333431.2034                   21333429.3364
 -20259535.60547 -15769956.55444  22620246.3834                   22620244.3524
 -57490702.59147 -44737175.62244  22392402.3054                   22392399.7384
   1940341.86547   1532288.97745  23646225.9774                   23646224.5044
 -46123442.57848 -35922441.03946  20526318.0164                   20526316.4574
 -30765404.60047 -23957075.63544  23016562.6484                   23016561.5864
 -31235691.26048 -24322847.72846  20770085.9534                   20770081.3554
 11  7 27  1 18  0.0000000  0  9G28G12G10G09G17G05G04G27G02
 -67173932.45646 -52325457.30443  23907612.4924                   23907612.9694
  -9611667.80247  -7474160.56245  22427772.2584                   22427769.3524
 -21919092.30547 -17064649.82345  21309537.8754                   21309536.0514
 -20274637.32147 -15781724.17844  22617372.1954                   22617370.7774
 -57517796.50947 -44758287.78844  22387246.1804                   22387244.3404
   1762339.43446   1393585.94144  23612351.8284                   23612351.8524
 -46139986.50148 -35935332.41246  20523169.6024                   20523168.1174
 -30786646.75447 -23973627.96944  23012521.1954                   23012519.1954
 -31336965.52548 -24401762.70346  20750814.1644                   20750809.7774
 11  7 27  1 18 30.0000000  0  9G28G12G10G09G17G05G04G27G02
 -67147756.27046 -52305060.30143  23912592.6174                   23912593.5864
  -9768296.39047  -7596208.79645  22397967.1334                   22397963.8674
 -22044132.15447 -17162083.42845  21285743.8754                   21285741.9064
 -20289293.03747 -15793144.28044  22614583.8444                   22614582.4264
 -57544756.94047 -44779295.93144  22382116.0704                   22382114.2974
   1584405.20746   1254935.99344  23578490.9304                   23578490.7344
 -46156171.68148 -35947944.24346  20520090.2344                   20520087.7154
 -30807588.48847 -23989946.24044  23008536.6484                   23008534.1134
 -31437858.93748 -24480380.92846  20731614.8984                   20731610.3554
 11  7 27  1 19  0.0000000  0  9G28G12G10G09G17G05G04G27G02
 -67121339.29946 -52284475.64543  23917620.3364                   23917620.5514
  -9924664.77847  -7718054.26645  22368211.0314                   22368208.1454
 -22168651.14148 -17259111.16246  21262048.3524                   21262047.0784
 -20303507.53347 -15804220.57644  22611878.4384                   22611877.0664
 -57571585.50347 -44800201.31644  22377010.3524                   22377008.1684
   1406539.67946   1116339.59544  23544644.0704                   23544644.1684
 -46172002.44948 -35960279.89846  20517077.2584                   20517076.0944
 -30828234.12247 -24006033.77944  23004607.4774                   23004606.9224
 -31538373.67348 -24558704.07646  20712487.4384                   20712483.5634
 11  7 27  1 19 30.0000000  0  9G28G12G10G09G17G05G04G27G02
 -67094682.28946 -52263704.01543  23922693.4064                   23922691.8364
 -10080769.69847  -7839694.44745  22338505.6254                   22338502.7074
 -22292645.85748 -17355730.38846  21238452.8984                   21238452.0004
 -20317283.10047 -15814954.85244  22609256.3444                   22609255.7034
 -57598280.57247 -44821002.71344  22371930.2734                   22371928.5554
   1228746.74646    977799.78644  23510811.4924                   23510812.8834
 -46187480.05048 -35972340.35646  20514132.0004                   20514130.0274
 -30848585.08047 -24021891.72444  23000734.7114                   23000733.8874
 -31638508.95448 -24636731.55146  20693432.4304                   20693427.5434
 11  7 27  1 20  0.0000000  0  9G28G12G10G09G17G05G04G27G02
 -67067787.18746 -52242746.74843  23927810.9304                   23927809.9064
 -10236608.26947  -7961127.07245  22308849.9924                   22308848.1884
 -22416113.74747 -17451939.08845  21214957.3914                   21214956.2894
 -20330622.79147 -15825349.48745  22606719.3444                   22606718.3364
 -57624841.71047 -44841699.70544  22366876.1884                   22366874.3794
   1051029.62547    839319.05545  23476993.9454                   23476993.2704
 -46202606.72848 -35984127.38846  20511253.7274                   20511251.4384
 -30868643.99047 -24037522.08244  22996917.1024                   22996917.5744
 -31738265.12548 -24714463.59846  20674449.4144                   20674444.8524
 11  7 27  1 20 30.0000000  0  9G28G12G10G09G17G05G04G27G02
 -67040657.43046 -52221606.69243  23932974.9844                   23932972.2854
 -10392180.02447  -8082351.80145  22279245.8284                   22279242.9924
 -22539053.81847 -17547736.50245  21191562.8594                   21191562.1764
 -20343530.98347 -15835407.92045  22604263.0474                   22604262.2664
 -57651269.88747 -44862293.11844  22361847.3834                   22361845.4304
    873389.62546    700898.40345  23443189.5784                   23443188.9734
 -46217386.58248 -35995644.15346  20508441.1954                   20508438.8014
 -30888414.89347 -24052928.01644  22993155.4224                   22993155.2274
 -31837644.45348 -24791902.00846  20655538.1804                   20655533.3324
 11  7 27  1 21  0.0000000  0  9G28G12G10G09G17G05G04G27G02
 -67013293.68346 -52200284.34343  23938181.4614                   23938180.3674
 -10547481.04548  -8203365.54945  22249693.3054                   22249690.9614
 -22661462.49647 -17643119.86245  21168269.8284                   21168267.6954
 -20356009.85947 -15845131.77445  22601888.0394                   22601887.3284
 -57677563.32947 -44882781.52344  22356844.2974                   22356840.5234
    695830.78146    562540.95945  23409401.8134                   23409401.0594
 -46231820.58248 -36006891.42446  20505694.5234                   20505692.3754
 -30907899.21547 -24068110.65244  22989447.6564                   22989447.5204
 -31936646.00848 -24869046.04546  20636698.8674                   20636694.2464
 11  7 27  1 21 30.0000000  0  9G28G12G10G09G17G05G04G27G02
 -66985699.66046 -52178782.48343  23943432.0164                   23943431.5594
 -10702510.22348  -8324167.49545  22220191.6024                   22220189.9774
 -22783339.25048 -17738088.70645  21145076.7734                   21145075.0984
 -20368064.30547 -15854524.92644  22599593.9844                   22599594.2344
 -57703723.34247 -44903166.00544  22351866.0704                   22351862.8834
    518354.01747    424247.51244  23375629.0704                   23375627.9494
 -46245913.16248 -36017872.65146  20503012.4224                   20503009.9414
 -30927101.30347 -24083073.34344  22985793.9694                   22985794.0084
 -32035272.25048 -24945897.63446  20617930.8914                   20617926.5824
 11  7 27  1 22  0.0000000  0  9G28G12G10G09G17G05G04G27G02
 -65382452.42446 -50929498.97143  24248520.3674                   24248519.6684
  -9281834.04347  -7217147.05345  22490537.3204                   22490534.8714
 -21329251.56248 -16605033.34046  21421780.8204                   21421778.9924
 -18804270.84546 -14635984.65644  22897173.4924                   22897173.7544
 -56154322.80047 -43695840.91244  22646706.9924                   22646703.2424
   1916394.20447   1513629.58045  23641667.1724                   23641667.0124
 -44684240.03848 -34800984.50646  20800189.4304                   20800186.9344
 -29370597.18847 -22870213.00744  23281986.2034                   23281986.5164
 -30558094.43948 -23794849.95346  20899028.1954                   20899023.9654
 11  7 27  1 22 30.0000000  0  9G28G12G10G09G17G05G04G27G02
 -65354396.65646 -50907637.31343  24253859.4454                   24253858.1214
  -9436305.17047  -7337514.14145  22461142.3834                   22461139.4184
 -21450049.71748 -16699161.71546  21398793.6484                   21398792.0634
 -18815478.18547 -14644717.73844  22895041.4224                   22895040.2854
 -56180207.21947 -43716010.60944  22641781.2194                   22641777.8594
   1739097.77147   1375476.62745  23607929.1954                   23607928.5904
 -44697649.09748 -34811433.12546  20797637.7274                   20797635.5084
 -29389235.24647 -22884736.18845  23278439.5164                   23278440.0234
 -30655964.09748 -23871112.01146  20880404.1414                   20880399.5274
 11  7 27  1 23  0.0000000  0  9G28G12G10G09G17G05G04G27G02
 -65326116.52046 -50885600.77843  24259239.5784                   24259239.2584
  -9590497.18347  -7457663.71945  22431800.9694                   22431797.9654
 -21570308.82747 -16792870.05945  21375909.0864                   21375907.6254
 -18826270.53947 -14653127.41045  22892988.0164                   22892987.9264
 -56205957.04747 -43736075.40945  22636881.8914                   22636878.5634
   1561892.27746   1237394.52744  23574206.8914                   23574206.7774
 -44710723.60148 -34821621.05146  20795149.4924                   20795147.8834
 -29407598.75347 -22899045.45144  23274945.7194                   23274946.1764
 -30753459.67948 -23947082.57246  20861851.7734                   20861847.4534
 11  7 27  1 23 30.0000000  0  9G28G12G10G09G17G05G04G27G02
 -65297612.55146 -50863389.97343  24264664.6954                   24264663.2114
  -9744405.92347  -7577592.57645  22402513.1804                   22402509.7854
 -21690024.81748 -16886155.20445  21353128.2274                   21353125.8014
 -18836649.59747 -14661215.03445  22891013.1644                   22891012.9614
 -56231570.07947 -43756033.60345  22632006.7424                   22632004.2894
   1384782.01447   1099386.67644  23540503.7664                   23540502.5124
 -44723464.46748 -34831548.99346  20792724.7814                   20792722.7544
 -29425688.96947 -22913141.78244  23271503.1724                   23271503.2464
 -30850580.51748 -24022761.12746  20843369.7664                   20843365.4064
 11  7 27  1 24  0.0000000  0  9G28G12G10G09G17G05G04G27G02
 -65268888.53646 -50841007.60242  24270129.1254                   24270128.7814
  -9898030.97647  -7697300.36245  22373279.0234                   22373276.2154
 -21809197.38647 -16979016.89145  21330449.9064                   21330448.0514
 -18846620.50347 -14668984.59145  22889115.5084                   22889115.2814
 -56257047.90347 -43775886.49945  22627159.1724                   22627155.5704
   1207767.84547    961453.68744  23506819.6484                   23506817.5554
 -44735876.16548 -34841220.44946  20790362.7894                   20790361.2384
 -29443510.55047 -22927028.74044  23268111.3364                   23268111.3284
 -30947328.98748 -24098149.53446  20824959.4844                   20824955.1564
 11  7 27  1 24 30.0000000  0  9G28G12G10G09G17G05G04G27G02
 -65239943.04745 -50818452.62142  24275638.6564                   24275637.4224
 -10051366.33747  -7816782.44045  22344100.2584                   22344096.7854
 -21927820.97148 -17071450.81545  21307876.8054                   21307874.5234
 -18856183.02847 -14676435.98045  22887296.0394                   22887295.1994
 -56282386.28347 -43795630.70045  22622336.9534                   22622335.2154
   1030856.38847    823600.72844  23473153.9844                   23473154.0514
 -44747957.42748 -34850634.42546  20788063.7424                   20788062.2344
 -29461062.49547 -22940705.62744  23264771.0704                   23264771.0664
 -31043702.09348 -24173245.44846  20806619.9534                   20806615.6024
 11  7 27  1 25  0.0000000  0  9G28G12G10G09G17G05G04G27G02
 -65210779.69045 -50795727.97342  24281187.0634                   24281187.5434
 -10204410.66348  -7936037.72545  22314977.5474                   22314974.1804
 -22045895.25348 -17163456.69746  21285407.8364                   21285405.1724
 -18865341.82047 -14683572.73145  22885553.5784                   22885552.0474
 -56307586.61047 -43815267.33645  22617541.4844                   22617540.0004
    854048.53446    685828.52044  23439507.7114                   23439508.1844
 -44759712.36048 -34859794.11746  20785827.1254                   20785825.2424
 -29478349.17247 -22954175.83045  23261482.2974                   23261481.8134
 -31139702.12548 -24248050.67146  20788352.1094                   20788347.3324
 11  7 27  1 25 30.0000000  0  9G28G12G10G09G17G05G04G27G02
 -65181402.14146 -50772836.34543  24286779.1724                   24286778.0784
 -10357163.06447  -8055065.54345  22285908.8444                   22285906.9494
 -22163418.78048 -17255033.42446  21263043.8204                   21263041.6764
 -18874101.44847 -14690398.46145  22883886.2114                   22883885.9024
 -56332649.60247 -43834796.95945  22612772.2114                   22612770.7424
    677346.03846    548138.39544  23405882.4614                   23405883.7504
 -44771144.53248 -34868702.30946  20783651.8754                   20783650.1174
 -29495374.30847 -22967442.22745  23258242.6254                   23258242.0514
 -31235331.00648 -24322566.65346  20770154.3524                   20770150.2544
 11  7 27  1 26  0.0000000  0  9G28G12G10G09G17G05G04G27G02
 -65151811.47246 -50749778.78043  24292409.9694                   24292410.0704
 -10509621.01847  -8173863.90445  22256897.6724                   22256894.8984
 -22280389.06748 -17346179.04846  21240785.3914                   21240783.5234
 -18882465.28647 -14696915.77545  22882295.3524                   22882293.6454
 -56357574.62147 -43854219.06945  22608029.4924                   22608028.1644
    500751.82147    410532.61244  23372277.8754                   23372277.7934
 -44782256.21348 -34877360.76146  20781537.4304                   20781535.3524
 -29512140.65447 -22980506.94244  23255051.1094                   23255051.5004
 -31330589.05648 -24396793.67546  20752026.8594                   20752022.5984
 11  7 27  1 26 30.0000000  0  9G28G12G10G09G17G05G04G27G02
 -65122010.02446 -50726556.80343  24298080.6484                   24298079.7154
 -10661781.44747  -8292430.44745  22227941.8754                   22227940.5704
 -22396804.19248 -17436892.09146  21218632.4614                   21218630.7774
 -18890436.25347 -14703126.94245  22880777.5084                   22880777.2854
 -56382360.89047 -43873533.08445  22603313.1724                   22603311.1994
    324269.06947    273013.73444  23338694.6094                   23338694.4964
 -44793049.68348 -34885771.26846  20779483.6024                   20779481.6134
 -29528650.46747 -22993371.78344  23251908.9924                   23251909.9534
 -31425476.46748 -24470731.90446  20733970.1094                   20733966.7854
 11  7 27  1 27  0.0000000  0  9G28G12G10G09G17G05G04G27G02
 -65092002.52546 -50703174.35942  24303790.8444                   24303790.8554
 -10813644.42447  -8410765.22045  22199043.0394                   22199041.0164
 -22512664.42548 -17527172.74846  21196584.7344                   21196583.0084
 -18898019.92747 -14709036.31744  22879334.1334                   22879333.1024
 -56407010.77647 -43892740.78545  22598622.3524                   22598619.1454
    147898.27547    135582.09444  23305131.7894                   23305129.4344
 -44803529.51948 -34893937.38646  20777489.3754                   20777487.0744
 -29544908.98547 -23006040.76644  23248816.2894                   23248815.3134
 -31519996.49648 -24544383.85546  20715984.3364                   20715980.2974
 11  7 27  1 27 30.0000000  0  9G28G12G10G09G17G05G04G27G02
 -65061788.44846 -50679630.92242  24309540.6484                   24309540.1454
 -10965205.54847  -8528864.77245  22170202.0004                   22170200.1804
 -22627965.81247 -17617017.95246  21174643.1804                   21174641.6884
 -18905217.81747 -14714645.06844  22877965.0474                   22877963.8524
 -56431521.79047 -43911840.28845  22593957.5314                   22593955.7074
    -28355.82947     -1758.63944  23271591.8134                   23271589.0314
 -44813696.48548 -34901859.69946  20775554.3674                   20775552.3984
 -29560916.98447 -23018514.58044  23245770.2974                   23245768.9694
 -31614147.66148 -24617748.38846  20698067.9384                   20698064.1174
 11  7 27  1 28  0.0000000  0  9G28G12G10G09G17G05G04G27G02
 -65031370.33746 -50655928.52943  24315328.8364                   24315327.1884
 -11116461.99847  -8646726.91345  22141418.6484                   22141417.2704
 -22742705.78148 -17706425.67646  21152809.3834                   21152807.7814
 -18912033.10747 -14719955.64744  22876668.9224                   22876667.3164
 -56455893.26647 -43930831.08645  22589319.4534                   22589317.5664
   -204490.21647   -139006.06044  23238074.7424                   23238073.3134
 -44823552.93348 -34909540.04846  20773678.6804                   20773675.7734
 -29576677.02747 -23030795.21644  23242771.4064                   23242771.3204
 -31707931.07448 -24690826.35946  20680221.5004                   20680217.0744
 11  7 27  1 28 30.0000000  0  8G12G10G09G17G05G04G27G02
 -11267412.73147  -8764350.84945  22112693.4774                   22112691.2384
 -22856883.18548 -17795395.03346  21131081.7424                   21131079.8594
 -18918470.12147 -14724971.54144  22875443.3054                   22875442.2704
 -56480125.82847 -43949713.63645  22584708.7504                   22584707.2074
   -380503.14847   -276158.85645  23204580.8754                   23204580.2814
 -44833102.08448 -34916980.94546  20771861.6724                   20771858.5234
 -29592192.88547 -23042885.54644  23239818.8444                   23239817.5984
 -31801348.12948 -24763618.85846  20662444.7034                   20662440.6334
 11  7 27  1 29  0.0000000  0  8G12G10G09G17G05G04G27G02
 -11418050.89247  -8881731.21045  22084028.4224                   22084026.0354
 -22970492.18448 -17883921.47446  21109463.1884                   21109460.8324
 -18924528.21947 -14729692.16944  22874289.8204                   22874289.8954
 -56504215.19447 -43968484.59045  22580124.7894                   22580122.2274
   -556387.55547   -413211.52745  23171110.6254                   23171110.4494
 -44842342.29748 -34924181.12646  20770103.4144                   20770100.8444
 -29607463.45147 -23054784.74944  23236912.5944                   23236911.5394
 -31894395.55848 -24836123.33546  20644738.9224                   20644734.0514
 11  7 27  1 29 30.0000000  0  8G12G10G09G17G05G04G27G02
 -11568365.38047  -8998859.34945  22055424.6804                   22055421.6804
 -23083521.93648 -17971996.55046  21087953.6804                   21087951.7154
 -18930201.64247 -14734113.04744  22873210.5554                   22873210.7344
 -56528151.68447 -43987136.41945  22575569.7194                   22575568.0124
   -732132.00547   -550155.15545  23137667.4694                   23137667.2074
 -44851267.25748 -34931135.64046  20768404.9694                   20768402.2704
 -29622482.56646 -23066488.00344  23234054.4844                   23234054.2344
 -31987064.87448 -24908333.15446  20627104.0004                   20627099.1994
 11  7 27  1 30  0.0000000  0  8G12G10G09G17G05G04G27G02
 -11718353.03648  -9115732.81546  22026883.3834                   22026880.0824
 -23195970.06447 -18059618.43346  21066555.3364                   21066553.6134
 -18935493.58947 -14738236.70844  22872204.4774                   22872203.4414
 -56551934.49547 -44005668.51545  22571043.9844                   22571041.7734
   -907732.90647   -686986.90044  23104250.9534                   23104251.1564
 -44859878.67448 -34937845.84746  20766766.2814                   20766764.5824
 -29637252.36547 -23077996.98644  23231244.0864                   23231244.9964
 -32079356.37948 -24980248.60246  20609540.9694                   20609537.1134
 11  7 27  1 30 30.0000000  0  8G12G10G09G17G05G04G27G02
 -11868015.37648  -9232352.80146  21998403.7344                   21998400.2074
 -23307838.47147 -18146788.57846  21045267.3524                   21045265.1134
 -18940411.31547 -14742068.69144  22871268.5704                   22871267.5634
 -56575567.12547 -44024083.55145  22566546.8754                   22566544.6174
  -1083191.40447   -823707.68944  23070862.2504                   23070862.5984
 -44868183.16948 -34944316.90346  20765185.8444                   20765183.8914
 -29651779.56947 -23089316.93644  23228479.5004                   23228481.0904
 -32171274.94348 -25051873.43947  20592049.7504                   20592045.3284
 11  7 27  1 31  0.0000000  0  8G12G10G09G17G05G04G27G02
 -12017353.23547  -9348719.93646  21969985.3984                   21969981.9654
 -23419128.80647 -18233508.28546  21024089.8054                   21024087.7624
 -18944961.47547 -14745614.32644  22870402.5314                   22870401.6454
 -56599052.58647 -44042383.91845  22562077.1804                   22562075.9494
  -1258508.05147   -960317.94344  23037501.5004                   23037500.2544
 -44876186.64048 -34950553.37946  20763662.8754                   20763661.0824
 -29666070.30747 -23100452.67244  23225759.6254                   23225760.4774
 -32262824.86948 -25123211.02147  20574628.5944                   20574624.4884
 11  7 27  1 31 30.0000000  0  8G12G10G09G17G05G04G27G02
 -12166365.06247  -9464833.03446  21941629.5634                   21941626.1374
 -23529840.67747 -18319777.24145  21003021.9614                   21003019.6954
 -18949149.32047 -14748877.61144  22869604.3364                   22869603.4224
 -56622391.95547 -44060570.45745  22557637.1334                   22557634.3364
  -1433681.56047  -1096816.66344  23004166.7194                   23004164.5824
 -44883892.90048 -34956558.27546  20762196.4304                   20762194.2154
 -29680128.87747 -23111407.42744  23223085.4384                   23223085.0904
 -32354008.25648 -25194263.00646  20557277.2114                   20557272.7774
 11  7 27  1 32  0.0000000  0  8G12G10G09G17G05G04G27G02
 -12315052.98247  -9580693.73646  21913334.5864                   21913332.3714
 -23639975.41647 -18405596.47746  20982064.0784                   20982061.8874
 -18952981.48047 -14751863.76844  22868876.1094                   22868875.6174
 -56645588.55947 -44078645.75045  22553222.3984                   22553219.8404
  -1608712.52047  -1233204.32345  22970858.9844                   22970858.3914
 -44891307.93048 -34962336.21546  20760785.8444                   20760783.3674
 -29693961.57647 -23122186.26544  23220453.3134                   23220453.5824
 -32444829.48748 -25265032.77247  20539994.3284                   20539990.1024
 11  7 27  1 32 30.0000000  0  8G12G10G09G17G05G04G27G02
 -12463413.99747  -9696299.69046  21885101.8914                   21885100.3834
 -23749530.74548 -18490964.22546  20961216.4534                   20961214.2154
 -18956461.15247 -14754575.25044  22868213.6334                   22868213.4104
 -56668641.42347 -44096609.01145  22548835.3204                   22548832.9224
  -1783597.70347  -1369478.36145  22937580.2194                   22937578.7854
 -44898433.59648 -34967888.70746  20759429.6254                   20759427.5004
 -29707570.86346 -23132790.92043  23217862.6564                   23217862.6054
 -32535288.52448 -25335520.33247  20522780.8984                   20522776.0824
 11  7 27  1 33  0.0000000  0  8G12G10G09G17G05G04G27G02
 -11036019.60847  -8584044.30445  22156726.3364                   22156724.6174
 -22283080.82548 -17348275.91545  21240272.2424                   21240270.3204
 -17384171.02047 -13529414.14644  23167410.9844                   23167411.0434
 -55116128.68747 -42886858.82045  22844268.2424                   22844266.9924
   -382907.71547   -278031.51645  23204122.2504                   23204120.6294
 -43329851.60048 -33745617.02146  21057920.5004                   21057918.4774
 -28145538.49446 -21915622.92644  23515107.8914                   23515107.3914
 -31049962.81148 -24178123.64947  20805428.7344                   20805423.7234
 11  7 27  1 33 30.0000000  0  8G12G10G09G17G05G04G27G02
 -11183721.93147  -8699137.00645  22128618.8444                   22128617.6094
 -22391475.58048 -17432739.32645  21219645.5314                   21219642.6604
 -17386958.88147 -13531586.54244  23166880.6644                   23166879.8164
 -55138895.77847 -42904599.41545  22839936.3914                   22839934.4064
   -557495.95947   -414074.17545  23170898.9694                   23170897.0594
 -43336409.37448 -33750726.98846  21056673.0084                   21056670.5164
 -28158712.82146 -21925888.65444  23512600.2664                   23512600.9454
 -31139703.64948 -24248051.56346  20788351.4844                   20788346.3484
 11  7 27  1 34  0.0000000  0  8G12G10G09G17G05G04G27G02
 -11331092.81347  -8813971.44146  22100575.4534                   22100574.2234
 -22499288.26948 -17516749.18146  21199129.0474                   21199127.6054
 -17389407.23647 -13533494.38644  23166414.5474                   23166414.1884
 -55161520.55647 -42922229.08545  22835630.6334                   22835628.5234
   -731932.62147   -549998.76545  23137704.4384                   23137704.1174
 -43342687.94948 -33755619.38946  21055478.1644                   21055475.5004
 -28171674.83746 -21935989.01144  23510135.1254                   23510134.7304
 -31229087.81948 -24317701.54746  20771342.4924                   20771337.4964
 11  7 27  1 34 30.0000000  0  8G12G10G09G17G05G04G27G02
 -11478126.57647  -8928543.19746  22072596.2344                   22072594.7234
 -22606514.48448 -17600302.03446  21178724.6564                   21178722.5594
 -17391516.79747 -13535138.25544  23166013.8524                   23166013.1644
 -55183999.78947 -42939745.37644  22831353.6564                   22831350.8164
   -906212.00147   -685800.78145  23104539.8204                   23104540.0594
 -43348686.77548 -33760293.80546  21054336.4614                   21054334.6294
 -28184424.58847 -21945923.94144  23507708.6484                   23507708.6134
 -31318113.16048 -24387071.92846  20754401.1804                   20754396.2384
 11  7 27  1 35  0.0000000  0  8G12G10G09G17G05G04G27G02
 -11624820.37447  -9042850.03346  22044681.3284                   22044679.2814
 -22713152.30348 -17683396.43446  21158432.2274                   21158430.4694
 -17393290.49847 -13536520.42244  23165675.3134                   23165675.8484
 -55206332.81847 -42957147.72845  22827103.3204                   22827100.9144
  -1080330.80647   -821477.70345  23071406.5554                   23071405.8054
 -43354408.18948 -33764752.06346  21053247.5004                   21053245.3634
 -28196964.33746 -21955695.22944  23505322.5864                   23505322.5864
 -31406780.30348 -24456163.19847  20737528.6024                   20737524.0354
 11  7 27  1 35 30.0000000  0  8G12G10G09G17G05G04G27G02
 -11771173.38547  -9156891.32346  22016831.8054                   22016828.9964
 -22819201.26847 -17766031.94646  21138251.7504                   21138250.0004
 -17394733.45147 -13537644.80544  23165401.5864                   23165400.9774
 -55228520.66547 -42974436.96045  22822881.6724                   22822879.2344
  -1254287.90847   -957028.60045  23038303.5474                   23038303.0634
 -43359856.07748 -33768997.18746  21052211.3834                   21052208.8364
 -28209298.85646 -21965306.57044  23502975.0944                   23502975.1644
 -31495091.91848 -24524977.44346  20720723.2114                   20720718.6374
 11  7 27  1 36  0.0000000  0  8G12G10G09G17G05G04G27G02
 -11917184.63047  -9270666.29846  21989046.4844                   21989043.8834
 -22924661.43748 -17848208.69046  21118183.5944                   21118181.4384
 -17395850.79347 -13538515.47744  23165188.7424                   23165188.2774
 -55250564.53447 -42991613.98945  22818687.4774                   22818683.9734
  -1428081.93147  -1092452.40245  23005232.1334                   23005230.2424
 -43365034.33348 -33773032.19346  21051226.0394                   21051223.1954
 -28221432.37846 -21974761.30243  23500666.0234                   23500666.2504
 -31583050.01548 -24593516.20846  20703985.1414                   20703980.2074
 11  7 27  1 36 30.0000000  0  8G12G10G09G17G05G04G27G02
 -12062852.07047  -9384173.37046  21961327.3054                   21961324.0204
 -23029531.25448 -17929925.40146  21098227.2894                   21098225.5274
 -17396646.04447 -13539135.18745  23165037.6024                   23165036.9104
 -55272464.48747 -43008678.89045  22814519.1884                   22814517.1644
  -1601710.31647  -1227747.12745  22972191.8444                   22972190.7934
 -43369945.60648 -33776859.17146  21050290.7974                   21050289.0204
 -28233367.88746 -21984061.80744  23498394.0634                   23498395.1454
 -31670655.47948 -24661780.19846  20687314.8524                   20687310.5124
 11  7 27  1 37  0.0000000  0  8G12G10G09G17G05G04G27G02
 -12208174.23547  -9497411.39946  21933672.9144                   21933670.3444
 -23133810.16448 -18011181.66346  21078383.7034                   21078381.7854
 -17397123.40847 -13539507.20845  23164946.7734                   23164945.6914
 -55294220.58047 -43025631.70845  22810379.0944                   22810378.0984
  -1775170.90247  -1362911.12145  22939182.5474                   22939180.3984
 -43374593.01748 -33780480.54546  21049407.1024                   21049405.3634
 -28245109.05346 -21993210.85344  23496160.8204                   23496160.1604
 -31757910.31348 -24729770.96646  20670710.5474                   20670705.8014
 11  7 27  1 37 30.0000000  0  8G12G10G09G17G05G04G27G02
 -12353146.97247  -9610377.15446  21906085.1644                   21906082.6454
 -23237494.81448 -18091974.85945  21058653.4384                   21058651.2034
 -17397284.77147 -13539633.01645  23164916.0314                   23164915.6844
 -55315830.55147 -43042470.65545  22806266.6954                   22806265.7894
  -1948459.19647  -1497940.87845  22906206.8054                   22906204.5434
 -43378977.28448 -33783896.87446  21048572.2974                   21048571.0234
 -28256657.00246 -22002209.32344  23493963.0234                   23493963.9614
 -31844813.53948 -24797487.74346  20654173.7274                   20654168.9104
 11  7 27  1 38  0.0000000  0  8G12G10G09G17G05G04G27G02
 -12497767.64147  -9723068.57746  21878564.8984                   21878561.9144
 -23340583.50748 -18172303.69045  21039036.0634                   21039033.6564
 -17397133.74247 -13539515.37544  23164944.0784                   23164944.3014
 -55337294.30347 -43059195.69744  22802182.6254                   22802179.7424
  -2121572.21947  -1632834.07845  22873264.6414                   22873262.7704
 -43383101.08148 -33787110.23746  21047787.7974                   21047786.1254
 -28268014.74846 -22011059.56044  23491802.1334                   23491803.1374
 -31931366.34148 -24864931.48446  20637702.7584                   20637698.2814
 11  7 27  1 38 30.0000000  0  8G12G10G09G17G05G04G27G02
 -12642031.14947  -9835481.69446  21851111.9614                   21851109.6414
 -23443072.29147 -18252165.04245  21019533.2814                   21019530.7584
 -17396670.94547 -13539154.77644  23165032.5084                   23165032.5784
 -55358608.64247 -43075804.28044  22798126.2894                   22798123.3674
  -2294504.60147  -1767586.51645  22840356.2114                   22840355.7114
 -43386963.95548 -33790120.27846  21047052.7034                   21047050.7344
 -28279182.44046 -22019761.70844  23489676.8444                   23489676.8404
 -32017566.68548 -24932100.55546  20621299.5234                   20621294.8954
 11  7 27  1 39  0.0000000  0  8G12G10G09G17G05G04G27G02
 -12785937.35147  -9947616.38446  21823727.8524                   21823725.5164
 -23544961.74247 -18331559.38845  21000144.5004                   21000141.8554
 -17395902.36247 -13538555.93744  23165178.2974                   23165178.5354
 -55379775.52747 -43092297.97444  22794098.3284                   22794095.7664
  -2467255.42747  -1902197.45045  22807482.8134                   22807481.6644
 -43390570.56548 -33792930.63946  21046366.2034                   21046364.8714
 -28290165.07946 -22028319.60444  23487586.5864                   23487586.8674
 -32103417.64648 -24998997.41446  20604962.6094                   20604957.9264
 11  7 27  1 39 30.0000000  0  8G12G10G09G17G05G04G27G02
 -12929481.92547 -10059469.30346  21796412.1804                   21796410.0744
 -23646248.56448 -18410484.15946  20980870.1884                   20980867.6844
 -17394829.52246 -13537720.01244  23165381.9534                   23165383.3954
 -55400792.52947 -43108674.88244  22790099.2424                   22790097.1254
  -2639820.21647  -2036663.44245  22774644.8834                   22774644.1024
 -43393921.42648 -33795541.71546  21045728.9454                   21045727.2704
 -28300963.59646 -22036734.11344  23485531.4774                   23485532.4144
 -32188918.40748 -25065621.37446  20588692.2664                   20588687.5554
 11  7 27  1 40  0.0000000  0  8G12G10G09G17G05G04G27G02
 -13072667.40047 -10171042.39346  21769165.4774                   21769162.6374
 -23746936.38647 -18488942.17646  20961710.0084                   20961707.6294
 -17393460.91747 -13536653.57844  23165642.4844                   23165643.9534
 -55421664.32547 -43124938.66344  22786127.6484                   22786125.3954
  -2812201.10647  -2170986.12545  22741841.7974                   22741841.0354
 -43397024.02048 -33797959.33546  21045138.2974                   21045136.6454
 -28311586.21446 -22045011.53543  23483510.2584                   23483510.9924
 -32274075.35248 -25131977.43646  20572487.5474                   20572482.8324
 11  7 27  1 40 30.0000000  0  8G12G10G09G17G05G04G27G02
 -13215489.90047 -10282332.64746  21741986.9694                   21741984.3164
 -23847021.84548 -18566930.82646  20942664.3444                   20942662.0784
 -17391798.13547 -13535357.95044  23165959.5634                   23165960.6914
 -55442388.31747 -43141087.27644  22782183.8284                   22782181.6684
  -2984393.38247  -2305161.86345  22709074.9454                   22709073.7194
 -43399878.55848 -33800183.66946  21044595.3204                   21044593.5784
 -28322033.84346 -22053152.59144  23481522.8754                   23481522.4264
 -32358886.83848 -25198064.30146  20556348.6094                   20556344.0634
 11  7 27  1 41  0.0000000  0  8G12G10G09G17G05G04G27G02
 -13357943.55947 -10393335.49946  21714879.4454                   21714876.6174
 -23946500.11348 -18644446.33246  20923734.1954                   20923731.8404
 -17389841.69647 -13533833.48945  23166332.7664                   23166333.0084
 -55462961.56546 -43157118.40444  22778268.9224                   22778267.1254
  -3156390.85647  -2439185.81645  22676345.0704                   22676343.7974
 -43402484.42648 -33802214.21446  21044098.9924                   21044096.9104
 -28332305.85946 -22061156.81444  23479568.9454                   23479569.4184
 -32443350.76048 -25263880.34846  20540275.4844                   20540270.4534
 11  7 27  1 41 30.0000000  0  8G12G10G09G17G05G04G27G02
 -13500029.91147 -10504052.13046  21687840.8914                   21687837.6374
 -24045374.16448 -18721491.02546  20904919.3674                   20904916.8874
 -17387599.21447 -13532086.18644  23166759.3054                   23166758.6844
 -55483387.36646 -43173034.64844  22774381.3984                   22774379.5744
  -3328194.63547  -2573058.81945  22643651.0864                   22643650.1254
 -43404848.20648 -33804056.13146  21043649.7974                   21043647.6564
 -28342409.37146 -22069029.70744  23477646.6334                   23477645.5204
 -32527472.14748 -25329429.48846  20524267.7734                   20524262.9344
 11  7 27  1 42  0.0000000  0  8G12G10G09G17G05G04G27G02
 -13641746.64447 -10614480.75646  21660873.2034                   21660870.2424
 -24143642.55948 -18798063.77546  20886219.1094                   20886216.6844
 -17385074.34547 -13530118.80444  23167239.2664                   23167237.3444
 -55503665.30247 -43188835.69345  22770523.1174                   22770522.7934
  -3499802.44447  -2706779.12645  22610995.5554                   22610993.6374
 -43406972.04448 -33805711.07746  21043245.5314                   21043243.1414
 -28352347.25146 -22076773.58244  23475755.0164                   23475753.8284
 -32611252.05648 -25394712.52146  20508325.3284                   20508320.3914
 11  7 27  1 42 30.0000000  0  8G12G10G09G17G05G04G27G02
 -13783093.68547 -10724621.28346  21633975.6884                   21633972.9694
 -24241305.88148 -18874165.02946  20867634.4224                   20867632.0944
 -17382272.24347 -13527935.40744  23167772.6884                   23167772.4454
 -55523796.95947 -43204522.73645  22766692.3284                   22766690.8284
  -3671212.98747  -2840345.69145  22578377.2344                   22578375.2424
 -43408860.60648 -33807182.67346  21042885.8134                   21042883.4734
 -28362124.52046 -22084392.24644  23473893.8834                   23473892.9774
 -32694693.69148 -25459731.95446  20492446.7894                   20492441.9734
 11  7 27  1 43  0.0000000  0  8G12G10G09G17G05G04G27G02
 -13924065.14447 -10834469.16446  21607149.9064                   21607146.7544
 -24338359.61048 -18949791.28446  20849165.5394                   20849163.4654
 -17379193.33347 -13525536.31644  23168357.8284                   23168358.0164
 -55543778.90447 -43220093.09845  22762890.0234                   22762888.0634
  -3842420.33847  -2973753.93845  22545797.4844                   22545795.8914
 -43410512.84148 -33808470.14746  21042571.3754                   21042569.7504
 -28371740.66546 -22091885.41244  23472064.1484                   23472064.6254
 -32777794.58948 -25524485.88346  20476633.3444                   20476628.6484
 11  7 27  1 43 30.0000000  0  8G12G10G09G17G05G04G27G02
 -14064659.58447 -10944023.25946  21580395.2274                   21580392.3484
 -24434803.30648 -19024942.18446  20830812.7504                   20830810.4344
 -17375842.11447 -13522925.03244  23168996.8984                   23168996.2734
 -55563611.43247 -43235547.04645  22759116.0634                   22759114.0824
  -4013422.30247  -3107002.14245  22513257.0474                   22513256.8364
 -43411931.85048 -33809575.87646  21042301.7194                   21042299.8244
 -28381199.46946 -22099255.94544  23470263.6094                   23470265.4264
 -32860556.45248 -25588975.63446  20460883.9384                   20460879.7234
 11  7 27  1 44  0.0000000  0  9G25G12G10G09G17G05G04G27G02
  15423588.77956  12038522.69153  24785409.6334                   24785411.3244
 -12629452.13248  -9825679.78146  21853506.3834                   21853503.5634
 -22955214.76348 -17872016.00446  21112368.8754                   21112366.7854
 -15796804.30747 -12292505.97944  23469477.8594                   23469476.4494
 -54007875.28247 -42023285.16145  23055163.0784                   23055160.9774
  -2608792.45347  -2012485.31345  22780548.8134                   22780548.8094
 -41837702.11648 -32582903.36646  21341867.3444                   21341866.1604
 -26815085.64047 -20878907.56244  23768285.9534                   23768285.7424
 -31367559.91048 -24425601.70046  20744991.7424                   20744987.2584
 11  7 27  1 44 30.0000000  0  9G25G12G10G09G17G05G04G27G02
  15249013.25246  11902489.86543  24752189.5314                   24752190.6804
 -12769299.27547  -9934651.56346  21826894.3054                   21826891.6994
 -23050448.83048 -17946224.35046  21094246.4064                   21094244.2424
 -15792932.84847 -12289489.30944  23470214.3984                   23470213.6294
 -54027421.44247 -42038515.93045  23051443.9304                   23051441.4304
  -2779389.02447  -2145417.64545  22748085.4614                   22748084.1414
 -41838675.85948 -32583662.13946  21341682.1644                   21341680.2504
 -26824252.49846 -20886050.57444  23766540.6884                   23766540.5394
 -31449660.81148 -24489576.42046  20729368.5394                   20729363.5314
 11  7 27  1 45  0.0000000  0  9G25G12G10G09G17G05G04G27G02
  15074544.80946  11766540.49043  24718988.5944                   24718989.9964
 -12908773.55847 -10043332.80746  21800353.4144                   21800350.2194
 -23145080.50048 -18019963.28746  21076238.9224                   21076237.0314
 -15788810.81247 -12286277.35544  23470998.5164                   23470998.1914
 -54046828.36247 -42053638.22045  23047749.9844                   23047748.9344
  -2949782.82747  -2278191.94045  22715660.4144                   22715658.7424
 -41839434.61548 -32584253.36746  21341537.8364                   21341535.8484
 -26833281.85046 -20893086.46443  23764822.6644                   23764820.9494
 -31531437.16848 -24553298.24746  20713807.0554                   20713802.5864
 11  7 27  1 45 30.0000000  0  9G25G12G10G09G17G05G04G27G02
  14900188.30246  11630678.31843  24685808.8914                   24685811.4884
 -13047869.96947 -10151719.60246  21773884.0234                   21773880.8634
 -23239106.29148 -18093230.12346  21058346.4454                   21058344.0004
 -15784439.18647 -12282870.95344  23471829.9384                   23471830.3754
 -54066093.02747 -42068649.65445  23044084.2424                   23044082.7154
  -3119968.56147  -2410804.10745  22683274.9224                   22683272.9534
 -41839978.37848 -32584677.09046  21341434.3754                   21341432.0474
 -26842174.04846 -20900015.50643  23763131.1024                   23763130.5594
 -31612887.07248 -24616765.69146  20698307.6804                   20698302.9104
 11  7 27  1 46  0.0000000  0  9G25G12G10G09G17G05G04G27G02
  14725948.39046  11494907.14143  24652653.8284                   24652654.0204
 -13186583.56348 -10259808.09646  21747487.5784                   21747484.4304
 -23332522.38347 -18166021.85246  21040569.7504                   21040567.4534
 -15779819.11047 -12279270.92644  23472709.5634                   23472709.8444
 -54085212.73247 -42083548.14145  23040446.4614                   23040444.0664
  -3289941.13147  -2543250.20545  22650930.0944                   22650926.9264
 -41840306.93148 -32584933.10246  21341371.9774                   21341369.8204
 -26850929.47146 -20906837.92043  23761464.7664                   23761464.4884
 -31694009.14548 -24679977.68646  20682870.6094                   20682865.9104
 11  7 27  1 46 30.0000000  0  9G25G12G10G09G17G05G04G27G02
  14551827.72046  11359228.68943  24619518.7814                   24619518.3874
 -13324912.00047 -10367596.46946  21721164.5944                   21721161.4414
 -23425327.78848 -18238337.74146  21022909.2814                   21022906.7814
 -15774953.84746 -12275479.87444  23473635.0554                   23473634.9304
 -54104186.69947 -42098333.03845  23036835.8754                   23036832.9494
  -3459697.36247  -2675527.67945  22618626.6564                   22618623.6804
 -41840422.53548 -32585023.18946  21341350.4924                   21341348.1094
 -26859550.89646 -20913555.98443  23759824.7664                   23759823.4384
 -31774804.43648 -24742935.04646  20667495.9064                   20667491.0434
 11  7 27  1 47  0.0000000  0  9G25G12G10G09G17G05G04G27G02
  14377835.51246  11223650.44343  24586408.2194                   24586407.3324
 -13462846.33447 -10475077.73946  21694916.9224                   21694913.5664
 -23517514.32548 -18310171.38046  21005366.6724                   21005364.0864
 -15769840.50047 -12271495.53344  23474608.7814                   23474606.7384
 -54123007.81147 -42112998.84745  23033253.9064                   23033251.4104
  -3629227.50247  -2807629.04645  22586366.5004                   22586363.8404
 -41840320.73148 -32584943.84546  21341369.1724                   21341367.0514
 -26868034.41246 -20920166.54943  23758210.2114                   23758209.9694
 -31855267.32348 -24805633.39146  20652183.9224                   20652179.3874
 11  7 27  1 47 30.0000000  0  9G25G12G10G09G17G05G04G27G02
  14203972.45546  11088172.91043  24553323.0084                   24553322.2504
 -13600385.47748 -10582251.06646  21668743.7974                   21668741.3714
 -23609082.78748 -18381523.40846  20987942.0864                   20987939.6604
 -15764484.17447 -12267321.86444  23475627.3134                   23475626.8444
 -54141677.03546 -42127546.29745  23029701.2734                   23029698.9024
  -3798530.39747  -2939553.31845  22554148.9454                   22554148.3204
 -41840005.23447 -32584697.99846  21341429.3674                   21341427.3594
 -26876384.61846 -20926673.23944  23756620.7894                   23756622.5394
 -31935400.26848 -24868074.62546  20636935.5314                   20636930.9384
 11  7 27  1 48  0.0000000  0  9G25G12G10G09G17G05G04G27G02
  14030240.25046  10952797.20643  24520263.4614                   24520262.2664
 -13737528.02647 -10689115.34646  21642646.0394                   21642643.2584
 -23700032.51148 -18452393.29446  20970634.7344                   20970632.3204
 -15758889.02747 -12262962.06644  23476693.2114                   23476692.7584
 -54160194.62847 -42141975.59945  23026177.5004                   23026175.4344
  -3967603.80847  -3071298.72146  22521975.6954                   22521974.9184
 -41839479.06847 -32584288.00245  21341529.4144                   21341527.3914
 -26884605.02046 -20933078.78244  23755056.7344                   23755058.6414
 -32015205.07547 -24930260.17746  20621748.7584                   20621743.9384
 11  7 27  1 48 30.0000000  0  9G25G12G10G09G17G05G04G27G02
  13856642.69847  10817526.44343  24487229.1024                   24487228.5234
 -13874270.35448 -10795667.77146  21616625.2034                   21616622.1764
 -23790361.13148 -18522779.21246  20953446.2424                   20953443.9064
 -15753057.04847 -12258417.75644  23477802.6804                   23477802.3284
 -54178559.46746 -42156285.90044  23022683.0864                   23022680.2544
  -4136443.67447  -3202862.18545  22489845.5704                   22489844.4224
 -41838743.17848 -32583714.57446  21341669.3444                   21341667.1724
 -26892697.14846 -20939384.33744  23753517.0474                   23753517.8164
 -32094681.16448 -24992189.57246  20606624.9534                   20606620.2304
 11  7 27  1 49  0.0000000  0  9G25G12G10G09G17G05G04G27G02
  13683180.26847  10682360.94643  24454220.6334                   24454219.5044
 -14010611.88248 -10901907.86846  21590680.0704                   21590677.0204
 -23880069.67048 -18592681.93846  20936374.8284                   20936373.1094
 -15746993.73846 -12253693.11044  23478956.1024                   23478956.4064
 -54196772.76547 -42170478.07244  23019217.1024                   23019214.9694
  -4305048.77147  -3334242.71145  22457761.1724                   22457759.9414
 -41837801.82848 -32582981.03946  21341848.5004                   21341846.3444
 -26900665.58246 -20945593.52843  23752001.4844                   23752000.7194
 -32173831.41248 -25053865.06246  20591562.7114                   20591558.7194
 11  7 27  1 49 30.0000000  0  9G25G12G10G09G17G05G04G27G02
  13509859.65546  10547306.02643  24421237.3594                   24421237.7464
 -14146545.97148 -11007830.49746  21564812.5164                   21564809.6174
 -23969152.98448 -18662097.49146  20919423.3834                   20919421.1174
 -15740698.22647 -12248787.60044  23480155.2504                   23480153.7854
 -54214829.60246 -42184548.36644  23015780.5004                   23015778.4694
  -4473412.12247  -3465434.84545  22425722.1804                   22425720.3674
 -41836652.92948 -32582085.78246  21342067.2194                   21342065.1764
 -26908509.11846 -20951705.41943  23750507.2504                   23750507.7624
 -32252652.97548 -25115284.43946  20576563.9774                   20576559.4694
 11  7 27  1 50  0.0000000  0  9G25G12G10G09G17G05G04G27G02
  13336679.99046  10412360.88343  24388282.8754                   24388282.5864
 -14282073.76448 -11113436.52046  21539022.7034                   21539020.2934
 -24057613.34448 -18731027.61546  20902589.3054                   20902587.0234
 -15734177.52747 -12243706.50644  23481395.1884                   23481394.9064
 -54232732.70846 -42198498.86844  23012373.4384                   23012371.5944
  -4641534.00447  -3596438.86345  22393729.9304                   22393728.3134
 -41835301.91948 -32581033.05946  21342323.9694                   21342322.3204
 -26916233.85645 -20957724.72543  23749036.5864                   23749037.8014
 -32331149.92948 -25176450.89246  20561626.5164                   20561621.6764
 11  7 27  1 50 30.0000000  0  9G25G12G10G09G17G05G04G27G02
  13163642.62546  10277526.68143  24355355.3054                   24355355.2194
 -14417193.81148 -11218724.82946  21513310.5864                   21513307.8914
 -24145450.75747 -18799472.33746  20885874.3754                   20885872.3714
 -15727435.91947 -12238453.41643  23482678.6254                   23482677.6844
 -54250482.99147 -42212330.29844  23008995.5084                   23008994.0744
  -4809412.68747  -3727253.33245  22361783.8204                   22361781.2734
 -41833752.14547 -32579825.44846  21342619.5394                   21342617.7894
 -26923843.70146 -20963654.54343  23747589.4924                   23747590.7934
 -32409324.69548 -25237366.28646  20546750.1484                   20546745.3524
 11  7 27  1 51  0.0000000  0  9G25G12G10G09G17G05G04G27G02
  12990750.44646  10142805.59343  24322454.5084                   24322455.0084
 -14551903.46348 -11323693.35346  21487675.5474                   21487672.7234
 -24232664.24147 -18867430.87146  20869278.0554                   20869276.2424
 -15720476.83847 -12233030.80644  23484002.1174                   23484001.6294
 -54268079.80946 -42226042.14444  23005646.9924                   23005645.8674
  -4977044.96347  -3857875.80945  22329884.7344                   22329883.0164
 -41832005.57648 -32578464.46746  21342951.6414                   21342949.3284
 -26931341.25946 -20969496.83843  23746163.8754                   23746163.2974
 -32487177.51448 -25298030.81647  20531935.5084                   20531931.0274
 11  7 27  1 51 30.0000000  0  9G25G12G10G09G17G05G04G27G02
  12818007.62746  10008200.86743  24289583.1644                   24289582.2624
 -14686198.32748 -11428338.66946  21462120.2814                   21462116.8914
 -24319250.99248 -18934901.04746  20852801.3834                   20852799.0274
 -15713301.94347 -12227440.03344  23485368.6724                   23485368.4884
 -54285520.81346 -42239632.57144  23002328.2274                   23002327.0044
  -5144426.33847  -3988302.77845  22298033.0554                   22298030.9694
 -41830062.50847 -32576950.39346  21343321.0704                   21343319.6994
 -26938727.52946 -20975252.40043  23744758.8834                   23744756.0234
 -32564707.72448 -25358443.95047  20517181.7894                   20517177.0904
 11  7 27  1 52  0.0000000  0  9G25G12G10G09G17G05G04G27G02
  12645417.68246   9873715.26343  24256739.4224                   24256740.5124
 -14820075.48148 -11532658.50346  21436644.6334                   21436641.0354
 -24405209.15548 -19001881.40746  20836443.6564                   20836441.7584
 -15705913.85747 -12221683.12044  23486774.8054                   23486774.7154
 -54302804.65546 -42253100.57144  22999039.5004                   22999037.8954
  -5311552.80347  -4118531.11945  22266229.0004                   22266228.5044
 -41827924.27948 -32575284.23446  21343728.1174                   21343726.5274
 -26946004.42447 -20980922.75943  23743374.3054                   23743371.3324
 -32641915.35948 -25418605.72547  20502490.0234                   20502485.2894
 11  7 27  1 52 30.0000000  0  9G25G12G10G09G17G05G04G27G02
  12472981.03246   9739349.10243  24223925.7194                   24223926.2894
 -14953534.59548 -11636652.58546  21411247.8594                   21411244.2114
 -24490539.83948 -19068372.83846  20820205.9454                   20820203.2424
 -15698318.02847 -12215764.34844  23488219.8524                   23488220.3874
 -54319932.57846 -42266447.02245  22995781.5234                   22995778.6414
  -5478423.28947  -4248559.99945  22234474.8594                   22234473.8324
 -41825594.92548 -32573469.14845  21344171.3054                   21344169.3754
 -26953176.64147 -20986511.51843  23742009.0394                   23742006.6174
 -32718803.41248 -25478518.46247  20487858.7274                   20487854.0164
 11  7 27  1 53  0.0000000  0  9G25G12G10G09G17G05G04G27G02
  12300701.00447   9605104.87943  24191143.1174                   24191142.5044
 -15086572.61547 -11740318.55546  21385931.4924                   21385928.0124
 -24575241.70548 -19134374.27246  20804088.1414                   20804085.8094
 -15690517.01947 -12209685.62544  23489704.2974                   23489703.9654
 -54336903.75646 -42279671.35944  22992550.8524                   22992549.1604
  -5645034.23747  -4378386.66145  22202770.3834                   22202768.6134
 -41823076.02848 -32571506.37446  21344650.9694                   21344648.6374
 -26960246.40246 -20992020.47043  23740662.9064                   23740662.3794
 -32795372.65348 -25538182.79047  20473288.0704                   20473283.1764
 11  7 27  1 53 30.0000000  0  9G25G12G10G09G17G05G04G27G02
  12128580.64647   9470985.14643  24158389.7114                   24158389.2194
 -15219186.67048 -11843654.15846  21360695.7344                   21360692.4064
 -24659313.37648 -19199884.64846  20788090.0944                   20788087.5904
 -15682513.84247 -12203449.45644  23491227.1094                   23491226.6524
 -54353717.09946 -42292772.69544  22989351.0944                   22989349.8284
  -5811382.29347  -4508008.46945  22171115.2424                   22171112.7234
 -41820369.05748 -32569397.03145  21345165.7344                   21345163.6024
 -26967216.07547 -20997451.43344  23739336.8364                   23739337.2974
 -32871622.91048 -25597598.55546  20458777.8134                   20458773.4924
 11  7 27  1 54  0.0000000  0  9G25G12G10G09G17G05G04G27G02
  11956620.75847   9336990.43744  24125666.1174                   24125667.1054
 -15351375.80047 -11946658.65446  21335541.1644                   21335537.8874
 -24742755.77748 -19264904.66846  20772210.8364                   20772208.6454
 -15674313.53647 -12197059.65544  23492787.9304                   23492786.3524
 -54370374.00346 -42305752.11544  22986182.1414                   22986179.6844
  -5977466.29447  -4637424.51846  22139510.4694                   22139508.9304
 -41817478.01848 -32567144.27946  21345716.3284                   21345713.8914
 -26974090.02947 -21002807.78944  23738029.6484                   23738029.2194
 -32947557.33048 -25656768.21446  20444328.1804                   20444323.1884
 11  7 27  1 54 30.0000000  0  9G25G12G10G09G17G05G04G27G02
  11784823.32147   9203122.32644  24092974.6094                   24092975.0984
 -15483138.63247 -12049330.99246  21310467.5474                   21310463.9884
 -24825568.71248 -19329434.21746  20756452.1644                   20756449.4494
 -15665920.37847 -12190519.57343  23494384.0084                   23494383.5234
 -54386874.36646 -42318609.58944  22983041.9224                   22983040.6684
  -6143283.73747  -4766632.84745  22107956.4064                   22107954.1804
 -41814405.28448 -32564749.94546  21346300.7974                   21346298.6844
 -26980871.45447 -21008092.11044  23736739.1564                   23736739.3134
 -33023177.41448 -25715692.94946  20429937.8834                   20429933.7894
 11  7 27  1 55  0.0000000  0  9G25G12G10G09G17G05G04G27G02
  11613192.30147   9069383.85944  24060313.8204                   24060315.2544
 -15614471.40648 -12151668.19146  21285475.8674                   21285472.8634
 -24907750.01848 -19393471.58146  20740813.5234                   20740811.2034
 -15657336.41746 -12183830.82544  23496017.7344                   23496018.2774
 -54403216.24146 -42331343.57444  22979932.7504                   22979929.6374
  -6308830.34647  -4895630.15345  22076453.7034                   22076451.4384
 -41811151.93048 -32562214.86145  21346919.5704                   21346917.8874
 -26987561.92546 -21013305.54243  23735464.9304                   23735465.6644
 -33098482.87748 -25774372.51646  20415608.0784                   20415603.1524
 11  7 27  1 55 30.0000000  0  9G25G12G10G09G17G05G04G27G02
  13017158.05346  10163383.17843  24327479.3524                   24327481.4494
 -14169945.22948 -11026063.37446  21560359.9064                   21560356.7234
 -23413874.34748 -18229412.60846  21025088.8444                   21025086.2664
 -14073143.14446 -10949394.56144  23797479.2974                   23797479.9964
 -52843976.86347 -41116351.88344  23276646.4304                   23276644.4924
  -4898675.62047  -3796808.24045  22344797.1024                   22344795.9224
 -40232297.81348 -31331938.92245  21647365.8754                   21647363.5354
 -25418741.86946 -19790848.36443  24034001.7344                   24034000.8674
 -31598049.85748 -24605203.91546  20701130.3054                   20701126.0204
 11  7 27  1 56  0.0000000  0  9G25G12G10G09G17G05G04G27G02
  12845868.50846  10029910.86143  24294884.4144                   24294885.0824
 -14300409.78348 -11127724.04846  21535533.4694                   21535530.4184
 -23494789.78747 -18292463.57946  21009691.3204                   21009688.0234
 -14064186.83946 -10942415.57243  23799184.6644                   23799182.6804
 -52859999.75846 -41128837.25644  23273596.1644                   23273594.7774
  -5063671.14147  -3925376.14146  22313400.2114                   22313398.3054
 -40228688.13848 -31329126.18645  21648052.9064                   21648050.6024
 -25425257.63746 -19795925.81642  24032761.2194                   24032760.7274
 -31672727.96448 -24663394.64146  20686919.9454                   20686914.7624
 11  7 27  1 56 30.0000000  0  9G25G12G10G09G17G05G04G27G02
  12674751.35346   9896572.85043  24262322.4454                   24262322.7384
 -14430438.89648 -11229045.43446  21510789.4304                   21510786.6174
 -23575073.28948 -18355022.12946  20994413.1094                   20994410.9694
 -14055051.43546 -10935297.07343  23800923.4144                   23800923.2774
 -52875864.51947 -41141199.42545  23270577.6954                   23270575.2584
  -5228388.77647  -4053727.48646  22282054.4694                   22282053.3634
 -40224905.66448 -31326178.81246  21648772.3444                   21648771.2504
 -25431692.53646 -19800940.07442  24031537.4304                   24031536.3674
 -31747096.06548 -24721343.79247  20672768.0944                   20672763.3594
 11  7 27  1 57  0.0000000  0  9G25G12G10G09G17G05G04G27G02
  12503807.56946   9763369.93443  24229791.9774                   24229793.1254
 -14560031.97448 -11330027.04146  21486128.5004                   21486125.9304
 -23654725.79248 -18417088.98746  20979255.8674                   20979253.5164
 -14045742.39647 -10928043.22843  23802693.7274                   23802693.4534
 -52891572.61047 -41153439.50544  23267588.7974                   23267586.7814
  -5392827.38047  -4181861.40346  22250763.3444                   22250761.3594
 -40220954.14348 -31323099.71346  21649524.5084                   21649522.6214
 -25438050.98446 -19805894.77443  24030327.4844                   24030326.3914
 -31821157.06348 -24779053.65046  20658675.0004                   20658670.0164
 11  7 27  1 57 30.0000000  0  9G25G12G10G09G17G05G04G27G02
  12333040.47346   9630304.72044  24197296.4304                   24197297.1374
 -14689186.10048 -11430666.61346  21461551.3364                   21461548.6604
 -23733745.99647 -18478663.16646  20964218.3754                   20964216.4964
 -14036262.25147 -10920656.08343  23804498.5234                   23804497.3954
 -52907122.60346 -41165556.38345  23264629.6884                   23264628.0864
  -5556983.14947  -4309774.94846  22219525.0864                   22219524.1644
 -40216834.69948 -31319889.75845  21650308.3754                   21650306.5314
 -25444334.77346 -19810791.29342  24029132.5234                   24029130.9734
 -31894911.00548 -24836524.24446  20644639.9924                   20644634.9144
 11  7 27  1 58  0.0000000  0  9G25G12G10G09G17G05G04G27G02
  12162455.55246   9497381.46743  24164834.3594                   24164836.6294
 -14817896.08048 -11530960.11546  21437058.7274                   21437056.0204
 -23812130.62948 -18539742.06746  20949302.5864                   20949300.7274
 -14026611.53247 -10913136.09644  23806334.6334                   23806333.5004
 -52922511.17247 -41177547.44745  23261701.0944                   23261698.8054
  -5720850.32547  -4437463.59745  22188342.5314                   22188341.1724
 -40212546.71147 -31316548.47545  21651124.2194                   21651122.1884
 -25450544.06046 -19815629.68442  24027949.7974                   24027950.6994
 -31968356.18248 -24893754.23946  20630663.9534                   20630659.1764
 11  7 27  1 58 30.0000000  0  9G25G12G10G09G17G05G04G27G02
  11992053.65947   9364600.81544  24132408.8134                   24132409.0514
 -14946161.29848 -11630907.05046  21412650.6334                   21412648.1644
 -23889880.95148 -18600326.73046  20934507.8524                   20934505.0394
 -14016795.20947 -10905487.02344  23808202.2664                   23808203.4304
 -52937739.42947 -41189413.60144  23258803.7344                   23258801.2854
  -5884427.80747  -4564926.51646  22157214.5004                   22157213.1914
 -40208093.88747 -31313078.76045  21651971.7274                   21651969.5004
 -25456683.20746 -19820413.40343  24026782.0084                   24026782.1644
 -32041495.09148 -24950745.58547  20616745.9924                   20616741.2304
 11  7 27  1 59  0.0000000  0  9G25G12G10G09G17G05G04G27G02
  11821838.89047   9231966.00144  24100018.0394                   24100018.7114
 -15073978.23648 -11730504.66946  21388327.6954                   21388325.4184
 -23966994.85048 -18660415.47346  20919833.3984                   20919830.6914
 -14006815.57446 -10897710.69544  23810102.3054                   23810102.2624
 -52952805.80246 -41201153.58344  23255935.8364                   23255934.8404
  -6047711.24347  -4692160.31546  22126143.2584                   22126141.2894
 -40203476.72047 -31309480.96245  21652850.2584                   21652847.7544
 -25462753.54946 -19825143.71142  24025626.9844                   24025626.2074
 -32114327.68348 -25007498.22547  20602886.3674                   20602881.2304
 11  7 27  1 59 30.0000000  0  9G25G12G10G09G17G05G04G27G02
  11651810.77247   9099476.57043  24067663.0704                   24067661.8914
 -15201347.43848 -11829753.41446  21364090.1094                   21364087.9264
 -24043474.86448 -18720010.27946  20905279.7344                   20905277.0904
 -13996679.01546 -10889812.10644  23812031.0084                   23812030.9574
 -52967712.61846 -41212769.28644  23253098.5784                   23253098.3554
  -6210700.81847  -4819165.12046  22095126.8754                   22095125.8014
 -40198700.46548 -31305759.21045  21653759.2034                   21653756.7894
 -25468760.93045 -19829824.81642  24024483.0944                   24024482.3324
 -32186858.01448 -25064015.36147  20589084.3444                   20589079.4104
 11  7 27  2  0  0.0000000  0  9G25G12G10G09G17G05G04G27G02
  11481974.10947   8967136.39443  24035344.1724                   24035343.6484
 -15328264.67348 -11928649.97346  21339938.6254                   21339936.2464
 -24119318.43548 -18779109.14946  20890846.9614                   20890844.7704
 -13986386.43046 -10881791.98043  23813988.3754                   23813990.6024
 -52982457.33246 -41224258.63344  23250294.3524                   23250292.4734
  -6373391.43547  -4945936.97546  22064167.7584                   22064165.8284
 -40193764.62347 -31301913.11645  21654698.2274                   21654696.1024
 -25474705.78045 -19834457.20342  24023350.7734                   24023350.5944
 -32259084.65848 -25120295.83247  20575339.9304                   20575335.2304
 11  7 27  2  0 30.0000000  0  9G25G12G10G09G17G05G04G27G02
  11312330.90746   8834946.91743  24003061.5944                   24003060.2074
 -15454728.37148 -12027193.13146  21315873.3054                   21315870.8754
 -24194525.86048 -18837712.32746  20876535.6884                   20876533.4494
 -13975942.12446 -10873653.63343  23815976.2034                   23815977.7074
 -52997040.40446 -41235622.04844  23247519.0704                   23247517.7384
  -6535780.92447  -5072474.19745  22033266.5394                   22033263.9734
 -40188672.19948 -31297944.98745  21655667.4774                   21655665.8674
 -25480591.65145 -19839043.69142  24022231.8754                   24022232.5274
 -32331009.49448 -25176341.14246  20561652.7734                   20561648.4534
 11  7 27  2  1  0.0000000  0  9G25G12G10G09G17G05G04G27G02
  11142883.75546   8702910.27243  23970816.5554                   23970815.7074
 -15580736.09448 -12125380.98446  21291895.1484                   21291892.8484
 -24269096.73647 -18895819.48046  20862345.2664                   20862342.8324
 -13965349.45846 -10865399.64144  23817991.8914                   23817993.3284
 -53011461.14847 -41246858.99244  23244774.7034                   23244771.4064
  -6697866.25747  -5198774.37845  22002422.1884                   22002419.8914
 -40183424.93447 -31293856.21545  21656665.8054                   21656664.1564
 -25486421.21345 -19843586.28542  24021123.1174                   24021122.6844
 -32402633.51248 -25232152.04246  20548023.4534                   20548018.4774
 11  7 27  2  1 30.0000000  0  9G25G12G10G09G17G05G04G27G02
  10973634.55046   8571027.84543  23938609.0634                   23938608.6334
 -15706286.37648 -12223212.37146  21268003.8444                   21268000.9384
 -24343031.15347 -18953430.68746  20848275.9064                   20848273.6254
 -13954612.68746 -10857033.39744  23820036.8134                   23820036.8984
 -53025719.56147 -41257969.42344  23242062.1174                   23242058.8874
  -6859645.37147  -5324835.96745  21971636.6334                   21971634.5434
 -40178025.71247 -31289649.04145  21657693.1724                   21657691.5434
 -25492197.89245 -19848087.65843  24020024.3284                   24020025.5314
 -32473958.63248 -25287730.03947  20534450.8984                   20534446.2304
 11  7 27  2  2  0.0000000  0  9G25G12G10G09G17G05G04G27G02
  10804584.75846   8439300.86744  23906439.8914                   23906440.0664
 -15831378.41248 -12320686.68646  21244199.6254                   21244196.7074
 -24416330.24047 -19010546.83746  20834327.4064                   20834325.4414
 -13943736.49346 -10848558.41444  23822105.7194                   23822107.1524
 -53039816.51347 -41268954.04744  23239378.2584                   23239375.7424
  -7021116.38247  -5450657.47546  21940909.4144                   21940907.5314
 -40172477.42047 -31285325.70045  21658748.5784                   21658747.5634
 -25497925.69346 -19852550.86343  24018934.6254                   24018934.3554
 -32544987.05548 -25343076.83846  20520934.3754                   20520929.6884
 11  7 27  2  2 30.0000000  0  9G25G12G10G09G17G05G04G27G02
  10635739.50447   8307733.18644  23874310.4304                   23874311.5664
 -15956007.52848 -12417800.28646  21220483.7034                   21220481.2384
 -24488991.08448 -19067165.65646  20820500.4304                   20820498.1764
 -13932721.53147 -10839975.38144  23824202.6954                   23824200.9264
 -53053749.65646 -41279811.04344  23236726.6254                   23236725.1604
  -7182274.27547  -5576235.01846  21910242.3134                   21910240.0314
 -40166779.80547 -31280886.00445  21659833.4064                   21659830.9534
 -25503605.02746 -19856976.46843  24017853.4384                   24017853.5514
 -32615717.37148 -25398191.35446  20507474.6644                   20507469.9304
 11  7 27  2  3  0.0000000  0  9G25G12G10G09G17G05G04G27G02
  10467101.44247   8176326.98244  23842219.8674                   23842221.7304
 -16080171.09748 -12514551.09946  21196856.2974                   21196853.6954
 -24561013.45647 -19123286.97346  20806795.1174                   20806792.7504
 -13921570.97047 -10831286.71544  23826324.5554                   23826322.6454
 -53067518.04946 -41290539.70144  23234106.4924                   23234104.0204
  -7343116.19847  -5701566.31246  21879635.1254                   21879633.5354
 -40160934.74047 -31276331.40445  21660945.6724                   21660943.8754
 -25509238.61946 -19861366.24343  24016781.6804                   24016781.8404
 -32686150.72347 -25453074.46746  20494071.8834                   20494067.4104
 11  7 27  2  3 30.0000000  0  9G25G12G10G09G17G05G04G27G02
  10298670.70647   8045082.34144  23810168.5554                   23810170.0744
 -16203870.22748 -12610940.02546  21173316.9614                   21173313.7344
 -24632399.50547 -19178912.42746  20793210.9304                   20793208.7974
 -13910290.97747 -10822497.15144  23828470.5634                   23828469.8634
 -53081123.64247 -41301141.43344  23231517.6024                   23231515.8284
  -7503641.39347  -5826650.82145  21849088.2034                   21849085.1914
 -40154946.65447 -31271665.37745  21662084.9304                   21662083.0314
 -25514831.41546 -19865724.35443  24015718.1804                   24015719.1094
 -32756290.45347 -25507728.78947  20480724.8914                   20480719.9574
 11  7 27  2  4  0.0000000  0  9G25G12G10G09G17G05G04G27G02
  10130454.15147   7914004.53244  23778158.1804                   23778158.3284
 -16327098.25848 -12706961.85146  21149867.6094                   21149864.9924
 -24703145.08347 -19234038.83046  20779748.2034                   20779746.0004
 -13898880.63447 -10813605.98644  23830641.9844                   23830641.9144
 -53094562.05947 -41311612.90744  23228960.9844                   23228958.9734
  -7663843.01647  -5951483.19746  21818602.5394                   21818600.7344
 -40148813.23047 -31266886.08345  21663252.7424                   21663250.3754
 -25520382.00746 -19870049.55443  24014660.4774                   24014660.8984
 -32826133.50148 -25562151.93747  20467434.0004                   20467429.5124
 11  7 27  2  4 30.0000000  0  9G25G12G10G09G17G05G04G27G02
   9962450.18547   7783092.40544  23746187.5634                   23746187.3244
 -16449857.07348 -12802618.04946  21126507.5314                   21126504.6454
 -24773254.23248 -19288669.31446  20766407.4844                   20766405.1294
 -13887347.49447 -10804619.17844  23832837.1564                   23832837.2304
 -53107837.02547 -41321956.99444  23226434.7894                   23226432.9144
  -7823722.66147  -6076064.66846  21788178.5004                   21788177.6374
 -40142540.72247 -31261998.41845  21664446.0864                   21664443.8364
 -25525897.30346 -19874347.24443  24013611.1254                   24013612.1454
 -32895685.43148 -25616348.22947  20454198.7664                   20454194.3954
 11  7 27  2  5  0.0000000  0  9G25G12G10G09G17G05G04G27G02
   9794662.53747   7652348.77844  23714258.7974                   23714257.8874
 -16572143.57548 -12897906.21446  21103237.1254                   21103233.7814
 -24842725.43347 -19342802.70146  20753187.0634                   20753184.7154
 -13875693.88547 -10795538.50344  23835054.6024                   23835054.0434
 -53120946.96047 -41332172.55844  23223940.4304                   23223938.1884
  -7983276.42847  -6200392.20846  21757816.7664                   21757814.4694
 -40136129.96347 -31257003.00345  21665665.9304                   21665664.2624
 -25531379.16446 -19878618.90643  24012568.1024                   24012569.7774
 -32964946.25447 -25670317.67747  20441018.9144                   20441014.1954
 11  7 27  2  5 30.0000000  0  9G25G12G10G09G17G05G04G27G02
   9627094.65147   7521776.45343  23682370.7974                   23682370.0044
 -16693954.90848 -12992824.11846  21080057.1094                   21080054.3324
 -24911558.04847 -19396438.48546  20740088.7034                   20740086.5314
 -13863922.61346 -10786366.13643  23837293.7974                   23837293.2074
 -53133890.76446 -41342258.66044  23221476.2194                   23221475.0664
  -8142500.35747  -6324462.75546  21727517.6334                   21727514.9844
 -40129582.05947 -31251900.77045  21666912.1334                   21666910.3594
 -25536829.30646 -19882865.90343  24011532.6334                   24011531.3244
 -33033915.83748 -25724060.19547  20427894.3914                   20427889.4414
 11  7 27  2  6  0.0000000  0  9G25G12G10G09G17G05G04G27G02
   9459744.73347   7391373.98243  23650525.1644                   23650524.6764
 -16815293.56748 -13087373.68646  21056966.9774                   21056963.5514
 -24979756.23547 -19449579.90646  20727110.8134                   20727108.6334
 -13852041.10646 -10777107.91143  23839554.0314                   23839554.9844
 -53146672.54247 -41352218.52544  23219044.4454                   23219042.8594
  -8301396.10347  -6448277.54746  21697280.7194                   21697277.5864
 -40122903.21547 -31246696.47345  21668183.3134                   21668181.7154
 -25542254.92746 -19887093.77143  24010498.1174                   24010499.6134
 -33102599.85448 -25777580.18247  20414824.2424                   20414819.7074
 11  7 27  2  6 30.0000000  0  9G25G12G10G09G17G05G04G27G02
  10868046.73047   8488752.14443  23918516.0554                   23918515.9384
 -15360727.51348 -11953945.57746  21333761.5084                   21333758.9804
 -23471892.20547 -18274620.90146  21014047.8914                   21014046.0594
 -12264627.57746  -9540162.38143  24141630.4304                   24141629.5274
 -51583865.71547 -40134446.99044  23516437.7664                   23516434.0864
  -6884530.00547  -5344225.97046  21966900.9304                   21966898.3054
 -38540670.05647 -30013787.50845  21969271.8674                   21969269.8244
 -23972232.98746 -18663699.97443  24309264.8134                   24309265.3634
 -31595571.62648 -24603272.45647  20701602.2194                   20701596.6644
 11  7 27  2  7  0.0000000  0  9G25G12G10G09G17G05G04G27G02
  10701149.71347   8358702.54644  23886757.6644                   23886757.4454
 -15481105.29348 -12047746.41646  21310854.2034                   21310850.9964
 -23538812.78547 -18326766.79946  21001313.2814                   21001310.9774
 -12252527.18446  -9530733.56143  24143932.6414                   24143932.4884
 -51596313.11847 -40144146.29044  23514068.8984                   23514066.0274
  -7042752.48447  -5467516.15146  21936791.8914                   21936789.2814
 -38533726.28747 -30008376.78645  21970592.9384                   21970590.8954
 -23977608.84446 -18667889.16842  24308241.9534                   24308242.3094
 -31663679.34647 -24656343.39547  20688641.6484                   20688636.8794
 11  7 27  2  7 30.0000000  0  9G25G12G10G09G17G05G04G27G02
  10534480.33347   8228830.30444  23855041.3834                   23855040.7894
 -15601002.37148 -12141172.67546  21288038.3984                   21288035.0434
 -23605097.23247 -18378417.00346  20988699.6414                   20988697.3014
 -12240325.24046  -9521225.66543  24146254.5084                   24146254.5434
 -51608595.29446 -40153716.81544  23511730.5704                   23511728.2234
  -7200636.78947  -5590542.81746  21906747.4384                   21906746.0634
 -38526655.86047 -30002867.36245  21971938.4774                   21971936.6024
 -23982966.96245 -18672064.50042  24307222.1644                   24307221.9414
 -31731503.17348 -24709193.12447  20675735.0864                   20675730.6564
 11  7 27  2  8  0.0000000  0  9G25G12G10G09G17G05G04G27G02
  10368042.95847   8099138.87544  23823369.2664                   23823368.6374
 -15720415.27548 -12234221.66146  21265315.1954                   21265311.9574
 -23670744.13347 -18429570.41646  20976207.5864                   20976205.5124
 -12228023.05946  -9511639.65143  24148595.0004                   24148596.0234
 -51620710.29846 -40163157.11044  23509424.3524                   23509423.3204
  -7358178.17847  -5713302.26646  21876769.1024                   21876767.0434
 -38519458.93847 -29997259.37445  21973308.1334                   21973306.3754
 -23988308.24245 -18676226.63342  24306204.8444                   24306206.9024
 -31799042.52748 -24761821.16947  20662882.3834                   20662877.8444
 11  7 27  2  8 30.0000000  0  9G25G12G10G09G17G05G04G27G02
  10201838.98347   7969629.30444  23791741.8284                   23791740.9614
 -15839342.86648 -12326892.48146  21242684.0474                   21242681.0904
 -23735754.36348 -18480227.72346  20963836.7504                   20963834.7504
 -12215625.55447  -9501979.23244  24150954.7894                   24150953.4884
 -51632659.08646 -40172467.84144  23507151.5164                   23507150.2384
  -7515375.71547  -5835793.81146  21846854.7344                   21846853.3754
 -38512138.40947 -29991555.06245  21974701.4694                   21974699.6414
 -23993636.33945 -18680378.44542  24305191.3984                   24305192.4304
 -31866299.86148 -24814229.45446  20650084.3204                   20650079.7974
 11  7 27  2  9  0.0000000  0  9G25G12G10G09G17G05G04G27G02
  10035871.97347   7840304.36244  23760159.1174                   23760159.0744
 -15957781.86948 -12419182.59346  21220145.5004                   21220142.5864
 -23800127.28448 -18530388.43346  20951586.5864                   20951584.8164
 -12203135.09147  -9492246.51844  24153332.5944                   24153331.3594
 -51644440.35146 -40181648.01244  23504910.0164                   23504908.2974
  -7672225.46548  -5958014.33646  21817007.0394                   21817005.5634
 -38504695.32347 -29985755.26845  21976117.5164                   21976115.7114
 -23998953.23445 -18684521.56642  24304178.7664                   24304180.7544
 -31933275.16848 -24866417.99846  20637338.8054                   20637334.2274
 11  7 27  2  9 30.0000000  0  9G25G12G10G09G17G05G04G27G02
   9870142.73547   7711164.71844  23728622.1254                   23728622.7624
 -16075733.28848 -12511092.74846  21197700.0234                   21197696.8554
 -23863864.81448 -18580054.02146  20939457.9064                   20939455.8204
 -12190556.67546  -9482445.23644  24155725.5084                   24155725.5274
 -51656055.52246 -40190698.80344  23502699.0784                   23502697.7734
  -7828726.59348  -6079963.20546  21787226.0164                   21787223.5634
 -38497133.31348 -29979862.80545  21977556.6484                   21977555.0704
 -24004263.54415                  24303166.984
 -31999971.61548 -24918389.23347  20624647.1884                   20624642.5394
 11  7 27  2 10  0.0000000  0  9G25G12G10G09G17G05G04G27G02
   9704652.97847   7582211.64444  23697130.5234                   23697131.7544
 -16193195.49648 -12602621.70446  21175347.5314                   21175344.7584
 -23926968.29348 -18629225.56346  20927449.6414                   20927447.6134
 -12177894.75946  -9472578.85743  24158134.9064                   24158134.4534
 -51667505.22147 -40199620.61345  23500520.5394                   23500518.7114
  -7984877.34848  -6201639.05846  21757511.5084                   21757508.2034
 -38489455.34847 -29973879.95945  21979017.9384                   21979015.9774
 -24009570.816 5                  24302160.742
 -32066391.38848 -24970144.86947  20612008.0784                   20612002.7934
 11  7 27  2 10 30.0000000  0  9G25G12G10G09G17G05G04G27G02
   9539406.77647   7453448.39344  23665684.7034                   23665686.2544
 -16310165.25048 -12693766.94446  21153089.2814                   21153086.1994
 -23989436.53548 -18677902.09046  20915562.4224                   20915560.0594
 -12165151.20146  -9462648.80543  24160559.2504                   24160560.7664
 -51678787.79747 -40208412.23345  23498374.7274                   23498372.2734
  -8140673.33847  -6323038.46646  21727864.4384                   21727861.2234
 -38481661.80347 -29967807.07545  21980500.6024                   21980498.6764
 -24014876.43745 -18696929.48053  24301150.2344                   24301150.5784
 -32132534.32748 -25021684.79347  20599421.3914                   20599416.8364
 11  7 27  2 11  0.0000000  0  9G25G12G10G09G17G05G04G27G02
   9374407.92647   7324877.85444  23634287.0864                   23634286.7664
 -16426639.26448 -12784525.88346  21130924.8594                   21130921.7774
 -24051268.36248 -18726082.71946  20903796.5634                   20903794.1374
 -12152328.32746  -9452657.01643  24162998.8284                   24163000.6994
 -51689901.73247 -40217072.40644  23496259.7424                   23496256.6174
  -8296110.77747  -6444158.48946  21698285.3834                   21698283.9804
 -38473753.26447 -29961644.56445  21982005.8364                   21982003.4774
 -24020182.22546 -18701063.98042  24300142.0004                   24300141.6174
 -32198400.10348 -25073008.75546  20586887.6024                   20586882.2384
 11  7 27  2 11 30.0000000  0  9G25G12G10G09G17G05G04G27G02
   9209658.16147   7196501.39644  23602935.9534                   23602936.3594
 -16542616.64248 -12874897.82346  21108855.1644                   21108851.9884
 -24112465.16448 -18773768.50746  20892151.0314                   20892148.5704
 -12139430.26746  -9442606.67743  24165453.4844                   24165454.6374
 -51700847.55347 -40225601.64444  23494175.8524                   23494174.0234
  -8451187.83947  -6564997.71446  21668774.9384                   21668773.3094
 -38465732.61447 -29955394.69045  21983531.8524                   21983529.8444
 -24025491.54346 -18705201.11943  24299129.0084                   24299130.0824
 -32263990.74148 -25124118.32947  20574406.4844                   20574401.1484
 11  7 27  2 12  0.0000000  0  9G25G12G10G09G17G05G04G27G02
   9045157.09847   7068318.73644  23571632.0944                   23571632.1524
 -16658098.72348 -12964883.83046  21086879.4614                   21086876.5314
 -24173030.29948 -18820962.11046  20880625.7894                   20880623.0594
 -12126463.19546  -9432502.50143  24167922.9224                   24167922.9344
 -51711628.01447 -40234002.01144  23492123.8834                   23492122.0084
  -8605905.08247  -6685556.56646  21639333.7424                   21639332.1374
 -38457604.67847 -29949061.22645  21985078.5084                   21985077.2734
 -24030810.09746 -18709345.53743  24298118.0784                   24298118.3674
 -32329310.76448 -25175017.02947  20561976.2734                   20561970.5044
 11  7 27  2 12 30.0000000  0  9G25G12G10G09G17G05G04G27G02
   8880910.78747   6940334.57444  23540376.6724                   23540377.9024
 -16773079.73348 -13054479.37546  21064999.3594                   21064996.1054
 -24232960.33348 -18867660.81346  20869221.2974                   20869218.6724
 -12113427.23646  -9422344.63243  24170402.8914                   24170401.6094
 -51722238.96246 -40242270.27344  23490104.9384                   23490103.1214
  -8760256.30148  -6805830.19346  21609961.6644                   21609959.3954
 -38449367.84047 -29942642.90845  21986646.0084                   21986644.2894
 -24036137.13646 -18713496.53343  24297104.8204                   24297105.0124
 -32394357.50148 -25225702.78446  20549598.2894                   20549593.1914
 11  7 27  2 13  0.0000000  0  9G25G12G10G09G17G05G04G27G02
   8716924.78747   6812553.27344  23509170.9224                   23509172.2734
 -16887555.36148 -13143681.12146  21043215.3444                   21043212.2584
 -24292253.11748 -18913862.96545  20857938.3984                   20857935.8094
 -12100322.92946  -9412133.54843  24172897.1724                   24172895.3874
 -51732677.72046 -40250404.38844  23488118.4774                   23488116.5354
  -8914235.96847  -6925814.28746  21580660.2194                   21580657.4884
 -38441020.95447 -29936138.84545  21988234.4844                   21988232.5124
 -24041472.48746 -18717653.98043  24296089.4844                   24296089.8164
 -32459129.59248 -25276174.53046  20537271.8984                   20537267.1414
 11  7 27  2 13 30.0000000  0  9G25G12G10G09G17G05G04G27G02
   8553197.34146   6684973.43144  23478014.2734                   23478016.1054
 -17001527.80748 -13232490.78146  21021527.0474                   21021524.1334
 -24350913.38348 -18959572.25145  20846775.5084                   20846772.6954
 -12087157.83646  -9401875.10643  24175402.2424                   24175402.7194
 -51742948.17146 -40258407.35744  23486164.7424                   23486162.0704
  -9067845.87247  -7045510.27546  21551428.7734                   21551425.9654
 -38432570.51247 -29929554.07445  21989842.5314                   21989840.5784
 -24046823.31646 -18721823.60943  24295070.7814                   24295071.0864
 -32523632.42748 -25326436.44946  20524997.6024                   20524992.5084
 11  7 27  2 14  0.0000000  0  9G25G12G10G09G17G05G04G27G02
   8389730.46847   6557596.66944  23446907.9384                   23446910.6294
 -17114996.60848 -13320907.99046  20999934.7814                   20999931.6254
 -24408942.18647 -19004789.47345  20835732.9924                   20835730.2854
 -12073935.89847  -9391572.30544  24177918.3364                   24177918.9104
 -51753050.58546 -40266279.34344  23484241.9694                   23484239.5634
  -9221084.09647  -7164916.61746  21522268.4614                   21522265.7344
 -38424018.46747 -29922890.12545  21991470.1884                   21991467.7114
 -24052193.00146 -18726007.75343  24294048.6484                   24294050.4024
 -32587867.96748 -25376490.09447  20512773.9924                   20512768.8404
 11  7 27  2 14 30.0000000  0  9G25G12G10G09G17G05G04G27G02
   8226527.00447   6430425.17144  23415851.9774                   23415853.6724
 -17227959.17148 -13408930.71946  20978438.6334                   20978435.7664
 -24466339.36648 -19049514.52645  20824810.5704                   20824807.3634
 -12060660.21347  -9381227.65344  24180443.9454                   24180444.5744
 -51762984.49847 -40274020.03744  23482351.7194                   23482349.5084
  -9373947.44647  -7284030.85246  21493180.1804                   21493177.3914
 -38415366.77647 -29916148.53845  21993116.5474                   21993115.2734
 -24057583.82846 -18730208.50543  24293022.9454                   24293023.4144
 -32651837.01148 -25426336.08046  20500600.9844                   20500596.3204
 11  7 27  2 15  0.0000000  0  9G25G12G10G09G17G05G04G27G02
   8063592.66047   6303463.36944  23384846.4694                   23384848.0514
 -17340410.70348 -13496555.23546  20957039.7974                   20957036.7384
 -24523102.86448 -19093745.81445  20814009.3134                   20814006.0704
 -12047331.11846  -9370841.39844  24182979.9454                   24182980.9384
 -51772746.59046 -40281626.87344  23480493.7114                   23480491.4964
  -9526430.45447  -7402848.73646  21464163.2894                   21464160.7704
 -38406614.08747 -29909328.27745  21994781.9454                   21994779.3984
 -24062995.58646 -18734425.53343  24291993.3984                   24291992.2584
 -32715537.80248 -25475973.03546  20488479.0864                   20488473.9064
 11  7 27  2 15 30.0000000  0  9G25G12G10G09G17G05G04G27G02
   7900930.59447   6176713.70144  23353893.5234                   23353893.7304
 -17452349.11148 -13583779.92246  20935738.3914                   20935735.6844
 -24579232.43448 -19137483.11245  20803327.9774                   20803325.3134
 -12033951.37546  -9360415.65844  24185526.6254                   24185525.8404
 -51782335.89946 -40289099.03544  23478668.2424                   23478667.2074
  -9678530.23848  -7521367.98846  21435219.6334                   21435217.4224
 -38397761.67147 -29902430.26245  21996466.7344                   21996464.0554
 -24068430.37946 -18738660.46343  24290960.0394                   24290961.4654
 -32778970.84548 -25525401.35946  20476408.3754                   20476403.7774
 11  7 27  2 16  0.0000000  0  9G25G12G10G09G17G05G04G27G02
   7738544.01347   6050178.72444  23322992.2974                   23322992.5004
 -17563771.95148 -13670602.86346  20914535.5704                   20914532.6334
 -24634728.01848 -19180726.40345  20792767.2814                   20792764.3444
 -12020523.70847  -9349952.61044  24188082.1094                   24188081.9184
 -51791751.62546 -40296435.98244  23476877.6414                   23476875.1334
  -9830243.24248  -7639585.86546  21406349.4454                   21406347.6254
 -38388810.53547 -29895455.32945  21998169.7734                   21998167.5394
 -24073890.52246 -18742915.18743  24289920.9384                   24289920.9064
 -32842136.79248 -25574621.55846  20464388.2894                   20464383.1804
 11  7 27  2 16 30.0000000  0  9G25G12G10G09G17G05G04G27G02
   7576431.59646   5923857.41744  23292142.3984                   23292143.9184
 -17674681.54848 -13757025.88846  20893430.1884                   20893426.9384
 -24689594.16048 -19223479.22145  20782326.7664                   20782324.2624
 -12007055.33947  -9339457.82744  24190645.3364                   24190645.4694
 -51800997.72447 -40303640.70344  23475118.6024                   23475116.8094
  -9981570.87247  -7757503.45946  21377552.1254                   21377550.7304
 -38379766.62547 -29888408.10945  21999890.1724                   21999888.4574
 -24079382.41446 -18747194.65643  24288876.0554                   24288875.6334
 -32905041.02148 -25623637.80346  20452417.9384                   20452413.3134
 11  7 27  2 17  0.0000000  0  9G25G12G10G09G17G05G04G27G02
   7414597.02746   5797752.60144  23261346.3204                   23261347.0984
 -17785075.21748 -13843046.87246  20872422.7974                   20872420.1524
 -24743830.53548 -19265741.30845  20772006.1094                   20772003.0394
 -11993548.44546  -9328933.03744  24193215.8914                   24193217.2774
 -51810072.85846 -40310712.21644  23473390.8914                   23473389.9694
 -10132509.71447  -7875118.09046  21348830.3444                   21348827.3754
 -38370630.46047 -29881289.02845  22001629.0394                   22001627.3094
 -24084907.98046 -18751500.37043  24287825.0864                   24287825.1254
 -32967683.28848 -25672449.92646  20440498.1954                   20440492.4614
 11  7 27  2 17 30.0000000  0  9G25G12G10G09G17G05G04G27G02
   8828468.64347   6899470.82344  23530397.1334                   23530397.1954
 -16319527.04848 -12701061.25646  21151306.8594                   21151304.0354
 -23222015.51148 -18079911.39545  21061597.2584                   21061594.8834
 -10404586.57746  -8090781.03544  24495584.4774                   24495586.1094
 -50243555.68147 -39090049.51544  23771489.4064                   23771487.1214
  -8707631.51948  -6764823.33746  21619975.1334                   21619973.0164
 -36785983.88647 -28646499.48545  22303177.7664                   22303175.0004
 -22515049.13246 -17528233.82443  24586558.8284                   24586559.3554
 -31454642.47348 -24493457.06046  20728419.8284                   20728414.3634
 11  7 27  2 18  0.0000000  0  9G25G12G10G09G17G05G04G27G02
   8667195.89647   6773803.83444  23499707.8914                   23499708.4694
 -16428885.21448 -12786275.37846  21130496.9614                   21130493.6254
 -23274995.83347 -18121194.73845  21051515.3594                   21051513.4414
 -10391014.29446  -8080205.30343  24498167.1414                   24498169.5944
 -50252289.21147 -39096854.89844  23769827.0784                   23769825.3834
  -8857786.40248  -6881827.09146  21591401.6334                   21591399.2384
 -36776670.33747 -28639242.14845  22304950.0704                   22304946.9844
 -22520651.45945 -17532599.39543  24585491.2114                   24585492.9844
 -31516766.34748 -24541865.23346  20716598.0944                   20716593.2664
 11  7 27  2 18 30.0000000  0  9G25G12G10G09G17G05G04G27G02
   8506207.66547   6648358.54044  23469072.7584                   23469072.5824
 -16537723.65148 -12871084.51046  21109785.9384                   21109782.4734
 -23327349.57547 -18161989.82845  21041552.7894                   21041550.6684
 -10377414.60146  -8069608.22943  24500756.3674                   24500757.2274
 -50260852.14947 -39103527.29944  23768197.5314                   23768195.5944
  -9007545.99348  -6998522.83446  21562903.6564                   21562901.2034
 -36767271.11147 -28631918.06944  22306738.1414                   22306735.8324
 -22526296.29146 -17536998.05542  24584418.5394                   24584419.1374
 -31578633.30448 -24590073.22946  20704824.8594                   20704819.6764
 11  7 27  2 19  0.0000000  0  9G25G12G10G09G17G05G04G27G02
   8345508.53447   6523138.51044  23438492.9304                   23438492.6094
 -16646038.76948 -12955485.88246  21089174.3204                   21089170.7584
 -23379075.57047 -18202295.77045  21031710.1414                   21031707.6334
 -10363788.85346  -8058990.77443  24503349.9534                   24503349.7464
 -50269242.19747 -39110065.02144  23766601.6484                   23766598.0704
  -9156905.92048  -7114907.15046  21534481.1484                   21534478.4844
 -36757785.84947 -28624526.98845  22308543.2974                   22308541.6484
 -22531984.49045 -17541430.46542  24583335.9144                   24583337.3404
 -31640242.51848 -24638080.39346  20693100.8204                   20693096.3134
 11  7 27  2 19 30.0000000  0  9G25G12G10G09G17G05G04G27G02
   8185101.94147   6398146.39344  23407968.7424                   23407968.1724
 -16753827.81247 -13039477.31746  21068662.7344                   21068658.8714
 -23430173.65947 -18242112.45645  21021986.4144                   21021984.1454
 -10350139.31755  -8048354.89152  24505946.7504                   24505946.7464
 -50277458.17347 -39116467.10844  23765038.4454                   23765035.6174
  -9305862.68948  -7230977.31246  21506135.5314                   21506132.9654
 -36748215.47347 -28617069.55644  22310364.7504                   22310361.9694
 -22537717.67145 -17545898.02042  24582245.0394                   24582247.1524
 -31701594.40248 -24685887.02346  20681425.9924                   20681421.3244
 11  7 27  2 20  0.0000000  0  8G25G12G10G09G17G05G04G02
   8024988.14347   6273382.48644  23377500.1094                   23377500.3834
 -16861091.87347 -13123059.66146  21048250.4144                   21048247.4224
 -23480647.15147 -18281442.41846  21012381.4694                   21012379.3634
 -10336471.48445  -8037704.64842  24508547.1724                   24508547.1374
 -50285502.18647 -39122735.18444  23763507.6484                   23763505.5354
  -9454416.21048  -7346733.25346  21477867.0004                   21477863.4924
 -36738563.97047 -28609548.91044  22312201.3204                   22312198.8984
 -31762692.18348 -24733495.65446  20669799.5784                   20669794.9454
 11  7 27  2 20 30.0000000  0  8G25G12G10G09G17G05G04G02
   7865173.23147   6148851.44745  23347088.8134                   23347089.1524
 -16967825.82447 -13206228.95346  21027940.0164                   21027937.0234
 -23530493.38547 -18320283.62245  21002895.8834                   21002893.8524
 -10322785.37955  -8027040.20752  24511151.9454                   24511150.3794
 -50293370.87546 -39128866.63744  23762009.2894                   23762008.0904
  -9602560.36548  -7462170.21346  21449675.7814                   21449673.6414
 -36728829.65647 -28601963.72644  22314053.9614                   22314050.9144
 -31823534.00048 -24780904.85046  20658221.4774                   20658216.6484
 11  7 27  2 21  0.0000000  0  8G25G12G10G09G17G05G04G02
   7705665.33847   6024559.63544  23316735.8134                   23316734.8984
 -17074022.43147 -13288979.53646  21007731.5704                   21007728.1684
 -23579707.17947 -18358632.00945  20993530.9454                   20993529.0594
 -10309078.67145  -8016359.72342  24513760.6954                   24513759.8674
 -50301058.27346 -39134856.80444  23760547.2504                   23760545.0124
  -9750287.29048  -7577282.05846  21421564.6334                   21421561.9574
 -36719008.49447 -28594310.91244  22315922.6414                   22315920.8754
 -31884115.32748 -24828111.05046  20646693.3204                   20646688.4024
 11  7 27  2 21 30.0000000  0  8G25G12G10G09G17G05G04G02
   7546469.25947   5900510.81645  23286441.4694                   23286441.5944
 -17179678.31148 -13371308.77646  20987625.9614                   20987623.0904
 -23628287.42247 -18396486.72045  20984286.2034                   20984284.2194
 -10295352.25714                  24516371.758
 -50308562.00246 -39140703.86544  23759118.4534                   23759116.6524
  -9897592.44348  -7692065.26046  21393532.8984                   21393530.8874
 -36709100.28047 -28586590.22445  22317808.0704                   22317805.9304
 -31944435.40548 -24875113.68546  20635214.8984                   20635209.9734
 11  7 27  2 22  0.0000000  0  8G25G12G10G09G17G05G04G02
   7387584.64047   5776704.68345  23256206.7194                   23256205.9224
 -17284794.97148 -13453217.84346  20967622.8284                   20967619.3014
 -23676237.76647 -18433850.61645  20975161.3444                   20975159.8874
 -10281612.68115                  24518986.641
 -50315884.76446 -39146409.91244  23757725.1484                   23757724.1724
 -10044476.18248  -7806520.08046  21365581.6884                   21365579.4264
 -36699109.40047 -28578805.16545  22319709.3284                   22319707.6134
 -32004498.17348 -24921915.81946  20623785.8054                   20623781.0044
 11  7 27  2 22 30.0000000  0  8G25G12G10G09G17G05G04G02
   7229008.78747   5653139.16045  23226030.2974                   23226030.6644
 -17389375.95248 -13534709.50046  20947721.6254                   20947718.8054
 -23723564.70447 -18470728.71845  20966155.6484                   20966152.7074
 -10267868.07746  -7984247.83753  24521602.7584                   24521600.4964
 -50323031.76847 -39151978.98344  23756365.7034                   23756363.8484
 -10190941.29348  -7920648.71146  21337710.2974                   21337708.0634
 -36689042.81148 -28570961.10045  22321624.7894                   22321622.3834
 -32064310.19048 -24968522.54546  20612403.7664                   20612398.1884
 11  7 27  2 23  0.0000000  0  8G25G12G10G09G17G05G04G02
   7070742.38647   5529814.76845  23195913.4694                   23195913.5514
 -17493421.90948 -13615784.25946  20927922.2734                   20927918.9064
 -23770271.22647 -18507123.39645  20957267.8914                   20957264.5044
 -10254123.65146  -7973537.93742  24524216.9144                   24524217.9534
 -50330004.71446 -39157412.47243  23755039.4924                   23755035.2384
 -10336987.43748  -8034450.85246  21309918.7974                   21309915.9264
 -36678904.24247 -28563060.93344  22323554.0004                   22323552.4454
 -32123874.66648 -25014936.40946  20601069.0314                   20601063.5124
 11  7 27  2 23 30.0000000  0  8G25G12G10G09G17G05G04G02
   6912791.27647   5406736.04844  23165854.9614                   23165855.4574
 -17596927.86747 -13696438.24046  20908225.6884                   20908222.3164
 -23816355.04947 -18543032.85645  20948498.4064                   20948495.4804
 -10240379.24846  -7962828.09743  24526832.3134                   24526833.8444
 -50336800.06846 -39162707.59244  23753745.3054                   23753743.1054
 -10482609.00948  -8147922.15946  21282207.8444                   21282205.0354
 -36668692.04447 -28555103.41444  22325498.0164                   22325495.5434
 -32183189.46348 -25061155.69246  20589781.6414                   20589776.7624
 11  7 27  2 24  0.0000000  0  8G25G12G10G09G17G05G04G02
   6755155.52947   5283903.09245  23135858.2734                   23135858.6484
 -17699894.43847 -13776671.91246  20888631.7894                   20888628.7854
 -23861819.87347 -18578459.95445  20939846.7274                   20939843.9224
 -10226640.86446  -7952122.83543  24529447.2814                   24529448.9614
 -50343420.41946 -39167866.30643  23752485.8754                   23752482.4774
 -10627806.37548  -8261062.91746  21254577.8674                   21254575.2664
 -36658410.15647 -28547091.58744  22327454.3834                   22327451.7774
 -32242258.23748 -25107183.28146  20578541.2424                   20578536.3794
 11  7 27  2 24 30.0000000  0  8G25G12G10G09G17G05G04G02
   6597836.16847   5161316.59944  23105921.8754                   23105921.3674
 -17802322.94947 -13856486.31546  20869140.2034                   20869137.0124
 -23906668.11947 -18613406.61745  20931312.3674                   20931309.4734
 -10212913.57246  -7941426.27443  24532059.3754                   24532059.5944
 -50349867.27946 -39172889.88344  23751259.1414                   23751256.6024
 -10772578.20148  -8373872.10646  21227029.1804                   21227026.3094
 -36648062.14047 -28539028.22744  22329423.1954                   22329422.0554
 -32301084.04248 -25153021.54046  20567347.0234                   20567341.7154
 11  7 27  2 25  0.0000000  0  8G25G12G10G09G17G05G04G02
   6440834.80647   5038977.94744  23076045.5474                   23076045.4454
 -17904212.58147 -13935880.83346  20849750.8364                   20849748.0744
 -23950901.49646 -18647874.14945  20922895.0164                   20922891.8794
 -10199200.76446  -7930740.99043  24534669.7034                   24534668.7034
 -50356141.09447 -39177778.50044  23750065.1174                   23750062.1374
 -10916923.12148  -8486348.64346  21199560.5394                   21199558.1684
 -36637650.27447 -28530915.09144  22331404.5864                   22331402.4804
 -32359668.88148 -25198672.03646  20556198.4534                   20556194.0234
 11  7 27  2 25 30.0000000  0  8G25G12G10G09G17G05G04G02
   6284152.68547   4916888.02345  23046229.6644                   23046228.9064
 -18005563.20047 -14014855.32746  20830465.0004                   20830462.1684
 -23994522.96746 -18681864.88444  20914593.9694                   20914590.6564
 -10185507.31346  -7920070.84243  24537275.6254                   24537275.0314
 -50362243.21547 -39182533.40544  23748904.1024                   23748901.7384
 -11060840.50148  -8598492.02946  21172174.4384                   21172172.3594
 -36627177.53847 -28522754.55744  22333397.8364                   22333395.4304
 -32418015.43948 -25244136.87746  20545095.4454                   20545090.3984
 11  7 27  2 26  0.0000000  0  8G25G12G10G09G17G05G04G02
   6127794.54547   4795050.52345  23016475.9614                   23016475.8134
 -18106371.19148 -14093406.98546  20811281.3444                   20811278.6804
 -24037531.58847 -18715378.05945  20906410.1024                   20906406.4024
 -10171834.16746  -7909416.53243  24539876.7814                   24539877.8874
 -50368171.29347 -39187152.64944  23747775.8364                   23747772.0004
 -11204325.90448  -8710298.79446  21144869.7424                   21144867.1174
 -36616643.33747 -28514546.08444  22335402.1254                   22335400.0084
 -32476122.67948 -25289415.23746  20534037.8204                   20534033.2424
 11  7 27  2 26 30.0000000  0  8G25G12G10G09G17G05G04G02
   5971761.90047   4673466.71645  22986783.1414                   22986783.3364
 -18206636.38047 -14171535.67946  20792202.1024                   20792199.3714
 -24079929.00247 -18748415.00444  20898341.3754                   20898338.1094
 -10158185.87345  -7898781.53142  24542473.0164                   24542474.4454
 -50373925.98547 -39191636.83044  23746680.9694                   23746678.6884
 -11347377.88948  -8821767.82946  21117647.7114                   21117644.5634
 -36606050.33847 -28506291.78944  22337417.9384                   22337415.2384
 -32533992.83848 -25334508.86746  20523025.5004                   20523020.8364
 11  7 27  2 27  0.0000000  0  8G25G12G10G09G17G05G04G02
   5816059.07547   4552139.87645  22957154.6724                   22957153.2704
 -18306355.90848 -14249239.19046  20773226.0394                   20773223.1334
 -24121714.87446 -18780975.39744  20890389.7734                   20890386.8554
 -10144563.21946  -7888166.53243  24545065.3914                   24545066.7234
 -50379505.67146 -39195984.65943  23745618.6174                   23745615.9344
 -11489992.13948  -8932895.77946  21090509.1884                   21090506.4384
 -36595398.46147 -28497991.67044  22339445.4064                   22339443.5204
 -32591625.06848 -25379417.08246  20512058.7114                   20512054.1644
 11  7 27  2 27 30.0000000  0  8G25G12G10G09G17G05G04G02
   5660688.28947   4431071.74145  22927588.5704                   22927587.2504
 -18405528.52748 -14326516.53146  20754354.0784                   20754350.7344
 -24162890.62946 -18813060.38344  20882555.1724                   20882552.2034
 -10130969.95046  -7877574.48043  24547653.1094                   24547654.0554
 -50384910.93546 -39200196.56043  23744589.4774                   23744587.5634
 -11632166.89648  -9043681.27546  21063453.9454                   21063451.5274
 -36584689.57547 -28489647.08744  22341483.6094                   22341480.5164
 -32649021.28048 -25424141.39146  20501136.4924                   20501131.8984
 11  7 27  2 28  0.0000000  0  8G25G12G10G09G17G05G04G02
   5505652.24847   4310264.45645  22898086.0314                   22898085.9884
 -18504153.06648 -14403366.79746  20735586.6024                   20735583.5394
 -24203457.55246 -18844670.93644  20874835.1254                   20874833.3754
 -10117409.21446  -7867007.70843  24550234.2424                   24550234.4104
 -50390140.97346 -39204271.92143  23743595.2734                   23743592.6954
 -11773899.94148  -9154122.58146  21036483.1334                   21036480.4144
 -36573925.09547 -28481259.20544  22343531.1644                   22343529.7704
 -32706182.49048 -25468682.58846  20490259.2664                   20490254.1884
 11  7 27  2 28 30.0000000  0  8G25G12G10G09G17G05G04G02
   6926377.15347   5417322.85045  23168440.3054                   23168441.1214
 -17026806.12148 -13252187.33646  21016716.5164                   21016713.4694
 -22667997.15946 -17648208.27644  21167023.6094                   21167021.1484
  -8528466.09146  -6628870.30843  24852601.2894                   24852599.9734
 -48819777.14946 -37980611.77343  24042425.3594                   24042423.6414
 -10339765.70248  -8036615.33746  21309389.5314                   21309387.6254
 -34987688.25847 -27245230.52844  22645382.1484                   22645380.2384
 -31187689.59548 -24285441.37646  20779218.9224                   20779213.7464
 11  7 27  2 29  0.0000000  0  8G25G12G10G09G17G05G04G02
   6772018.65147   5297043.49345  23139067.3984                   23139067.0864
 -17124330.25048 -13328180.13846  20998158.2114                   20998155.4884
 -22707349.85646 -17678872.68844  21159534.8914                   21159531.9064
  -8514979.33746  -6618361.20343  24855166.2344                   24855166.5204
 -48824656.41146 -37984413.79044  24041497.1564                   24041495.4024
 -10480607.97848  -8146362.53046  21282588.5704                   21282585.8984
 -34976816.67547 -27236759.14344  22647451.3754                   22647449.2664
 -31244384.28848 -24329619.05046  20768430.3984                   20768425.5664
 11  7 27  2 29 30.0000000  0  8G25G12G10G09G17G05G04G02
   6618001.35747   5177030.03945  23109759.3054                   23109759.5274
 -17221303.66548 -13403743.80547  20979704.6334                   20979701.4844
 -22746098.56146 -17709066.49244  21152161.1644                   21152158.2234
  -8501535.51846  -6607885.51543  24857724.2814                   24857725.0474
 -48829361.53246 -37988080.14344  24040601.3364                   24040600.2584
 -10621002.89348  -8255761.11946  21255872.0784                   21255869.5474
 -34965895.39747 -27228249.04044  22649529.2504                   22649526.9454
 -31300848.85948 -24373617.39446  20757685.3134                   20757680.3364
 11  7 27  2 30  0.0000000  0  8G25G12G10G09G17G05G04G02
   6464328.21747   5057284.75545  23080515.5704                   23080515.9574
 -17317725.05248 -13478877.33546  20961356.2894                   20961353.4774
 -22784244.42746 -17738790.51343  21144902.3054                   21144898.9414
  -8488137.15246  -6597445.36443  24860273.9924                   24860274.9924
 -48833891.94946 -37991610.32244  24039739.2974                   24039737.8914
 -10760948.06748  -8364809.25946  21229241.0784                   21229238.8634
 -34954925.32047 -27219700.95644  22651617.1254                   22651613.9774
 -31357084.00248 -24417436.97946  20746984.2734                   20746979.3484
 11  7 27  2 30 30.0000000  0  8G25G12G10G09G17G05G04G02
   6311000.80047   4937808.82245  23051338.6414                   23051338.1094
 -17413594.25848 -13553580.57646  20943112.8204                   20943110.2664
 -22821789.84046 -17768046.65743  21137757.7814                   21137754.2274
  -8474788.43646  -6587043.74943  24862813.8134                   24862815.2234
 -48838248.57046 -37995005.12444  24038910.6564                   24038908.4344
 -10900441.81248  -8473505.64646  21202696.2814                   21202693.6294
 -34943908.99147 -27211116.81744  22653712.6564                   22653711.2854
 -31413091.88548 -24461079.47446  20736326.1804                   20736321.2624
 11  7 27  2 31  0.0000000  0  8G25G12G10G09G17G05G04G02
   6158022.72347   4818605.14145  23022227.3754                   23022227.8404
 -17508908.90148 -13627851.70546  20924975.1254                   20924972.1644
 -22858735.14046 -17796835.14143  21130726.9454                   21130723.7584
  -8461491.71546  -6576682.80943  24865344.3444                   24865347.6994
 -48842430.27646 -37998263.58344  24038114.8834                   24038112.4304
 -11039481.15948  -8581847.96446  21176238.4454                   21176235.8134
 -34932846.81347 -27202496.93044  22655818.8754                   22655816.8954
 -31468872.66148 -24504544.99546  20725711.3674                   20725706.0274
 11  7 27  2 31 30.0000000  0  8G25G12G10G09G17G05G04G02
   6005396.76247   4699675.82945  22993183.6254                   22993184.7544
 -17603667.60548 -13701689.63246  20906943.0944                   20906940.1804
 -22895081.02346 -17825156.65643  21123810.7344                   21123807.7154
  -8448249.75646  -6566364.37142  24867864.0864                   24867865.4494
 -48846436.68746 -38001385.48543  24037352.0234                   24037350.1524
 -11178063.59448  -8689834.24846  21149866.6484                   21149864.3094
 -34921740.07547 -27193842.34644  22657931.7814                   22657928.7464
 -31524427.61048 -24547834.55046  20715139.8054                   20715134.4064
 11  7 27  2 32  0.0000000  0  8G25G12G10G09G17G05G04G02
   5853126.32147   4581023.54445  22964207.6644                   22964208.4574
 -17697868.38548 -13775092.82147  20889017.1954                   20889014.3444
 -22930828.51146 -17853011.82043  21117007.1094                   21117005.4224
  -8435064.64646  -6556090.34842  24870374.3054                   24870375.2624
 -48850266.83846 -38004370.04943  24036623.8674                   24036620.1644
 -11316186.24048  -8797462.25846  21123582.5784                   21123580.3914
 -34910589.50547 -27185153.56144  22660053.8834                   22660051.2504
 -31579756.56948 -24590948.00846  20704610.9224                   20704605.7854
 11  7 27  2 32 30.0000000  0  8G25G12G10G09G17G05G04G02
   5701215.82947   4462651.72745  22935300.1564                   22935300.7114
 -17791508.31448 -13848058.98847  20871198.0164                   20871195.6914
 -22965977.07446 -17880400.31743  21110319.6174                   21110316.9804
  -8421937.32346  -6545861.32042  24872872.5944                   24872874.0164
 -48853918.89346 -38007215.80843  24035928.2034                   24035927.1094
 -11453844.81448  -8904728.63346  21097386.9534                   21097384.8164
 -34899394.19247 -27176429.96744  22662183.9694                   22662182.2664
 -31634859.19248 -24633885.10646  20694125.0234                   20694120.4384
 11  7 27  2 33  0.0000000  0  8G25G12G10G09G17G05G04G02
   5549663.92247   4344559.35845  22906460.5474                   22906460.6994
 -17884590.43048 -13920590.47746  20853484.9924                   20853482.0664
 -23000532.12946 -17907326.28643  21103744.3054                   21103740.6954
  -8408874.84046  -6535682.82842  24875358.9384                   24875358.0554
 -48857396.56646 -38009925.70644  24035267.2584                   24035264.8794
 -11591041.36448  -9011634.98946  21071279.4614                   21071277.1884
 -34888159.88647 -27167675.94744  22664321.9774                   22664319.8914
 -31689740.46948 -24676649.71646  20683681.4534                   20683676.6604
 11  7 27  2 33 30.0000000  0  7G25G12G10G17G05G04G02
   5398476.66147   4226751.09545  22877690.5944                   22877690.2384
 -17977110.04748 -13992683.66046  20835879.2504                   20835876.0904
 -23034491.47046 -17933788.12543  21097281.4304                   21097279.1564
 -48860696.31146 -38012496.94444  24034639.7974                   24034637.0394
 -11727770.30048  -9118176.97446  21045260.8204                   21045258.2344
 -34876884.47247 -27158889.91244  22666467.1334                   22666465.7814
 -31744398.00348 -24719239.99046  20673280.3984                   20673275.2074
 11  7 27  2 34  0.0000000  0  7G25G12G10G17G05G04G02
   5247658.63647   4109230.57445  22848990.8054                   22848991.3594
 -18069064.08248 -14064336.13846  20818380.8284                   20818377.8364
 -23067854.72246 -17959785.42244  21090932.7194                   21090929.4574
 -48863816.12446 -38014927.91444  24034045.2274                   24034044.0434
 -11864027.27648  -9224351.18746  21019332.2664                   21019329.7194
 -34865567.04747 -27150071.13744  22668620.9224                   22668619.1524
 -31798831.09348 -24761655.37246  20662922.0004                   20662917.2664
 11  7 27  2 34 30.0000000  0  7G25G12G10G17G05G04G02
   5097217.39147   3992003.66745  22820363.1174                   22820363.0554
 -18160446.24548 -14135542.98646  20800991.5084                   20800988.4064
 -23100618.34646 -17985315.53444  21084698.2274                   21084695.4264
 -48866750.70846 -38017214.56644  24033486.9774                   24033484.3524
 -11999805.11448  -9330152.05846  20993494.6334                   20993491.6644
 -34854204.12747 -27141216.91044  22670783.1804                   22670781.3134
 -31853035.49648 -24803892.53946  20652607.3834                   20652602.2154
 11  7 27  2 35  0.0000000  0  7G25G12G10G17G05G04G02
   4947155.78147   3875072.53945  22791807.0234                   22791806.4024
 -18251255.73248 -14206303.59646  20783710.8524                   20783708.0984
 -23132783.66346 -18010379.40644  21078577.5004                   21078574.4694
 -48869499.79746 -38019356.66844  24032963.4534                   24032962.8984
 -12135101.48048  -9435577.75346  20967748.3204                   20967746.2734
 -34842796.76347 -27132328.06844  22672953.2734                   22672952.2114
 -31907012.15648 -24845952.25046  20642336.0474                   20642331.1214
 11  7 27  2 35 30.0000000  0  7G25G12G10G17G05G04G02
   4797469.96247   3758434.25945  22763322.8914                   22763321.9844
 -18341497.82948 -14276622.09146  20766538.4774                   20766535.1294
 -23164358.42046 -18034983.09944  21072568.7504                   21072565.4024
 -48872069.68146 -38021359.20344  24032474.8594                   24032473.4264
 -12269920.65648  -9540631.63146  20942093.1884                   20942090.7114
 -34831352.81847 -27123410.69045  22675131.4844                   22675130.4534
 -31960768.72148 -24887840.44746  20632106.5084                   20632101.4494
 11  7 27  2 36  0.0000000  0  7G25G12G10G17G05G04G02
   4648162.19347   3642090.60445  22734910.7114                   22734908.5354
 -18431171.71148 -14346497.82046  20749474.4224                   20749470.6884
 -23195344.48546 -18059128.06144  21066672.9144                   21066669.5004
 -48874460.33147 -38023222.03344  24032020.2894                   24032018.4414
 -12404260.84448  -9645312.25646  20916528.9614                   20916526.2814
 -34819873.52247 -27114465.79345  22677316.2814                   22677314.5824
 -32014306.65448 -24929558.29446  20621918.5704                   20621913.3834
 11  7 27  2 36 30.0000000  0  7G25G12G10G17G05G04G02
   4499231.38847   3526040.64245  22706569.6804                   22706567.8484
 -18520279.89348 -14415932.73646  20732517.3204                   20732513.8484
 -23225747.12246 -18082818.40744  21060887.1414                   21060883.7664
 -48876675.50146 -38024948.17343  24031597.9384                   24031595.2114
 -12538123.85148  -9749621.04846  20891055.7344                   20891052.4964
 -34808364.14247 -27105497.43544  22679506.5554                   22679504.0514
 -32067630.51048 -24971109.32846  20611770.9454                   20611765.8674
 11  7 27  2 37  0.0000000  0  7G25G12G10G17G05G04G02
   4350676.46047   3410283.59545  22678300.8134                   22678300.4304
 -18608825.45948 -14484929.27046  20715667.8674                   20715664.9614
 -23255571.46046 -18106058.13544  21055211.4454                   21055208.7544
 -48878718.56746 -38026540.14243  24031208.0394                   24031207.0784
 -12671510.94348  -9853559.00346  20865672.6724                   20865669.7384
 -34796829.46547 -27096509.34845  22681701.4924                   22681699.3014
 -32120745.09048 -25012497.29746  20601663.7664                   20601658.5944
 11  7 27  2 37 30.0000000  0  7G25G12G10G17G05G04G02
   4202503.55847   3294824.22045  22650104.3054                   22650103.6294
 -18696803.54448 -14553483.60346  20698926.0164                   20698922.6844
 -23284815.56746 -18128845.76844  21049646.3284                   21049644.7464
 -48880586.23546 -38027995.38643  24030852.0704                   24030851.9104
 -12804416.51348  -9957121.73646  20840381.7504                   20840378.4304
 -34785267.18047 -27087499.78444  22683900.5084                   22683899.5004
 -32173647.86548 -25053720.22746  20591596.6954                   20591591.7814
 11  7 27  2 38  0.0000000  0  7G25G12G10G17G05G04G02
   4054712.26847   3179662.20445  22621980.6094                   22621979.9694
 -18784216.53148 -14621597.59746  20682291.5164                   20682288.5864
 -23313484.31246 -18151184.99145  21044191.4534                   21044189.1954
 -48882281.29346 -38029316.28343  24030530.1024                   24030527.9654
 -12936841.32148 -10060309.85946  20815181.8984                   20815179.3954
 -34773681.48647 -27078471.97744  22686105.6484                   22686103.7974
 -32226342.99048 -25094781.33846  20581568.8594                   20581564.1054
 11  7 27  2 38 30.0000000  0  7G25G12G10G17G05G04G02
   3907308.49947   3064802.18045  22593930.1884                   22593928.9964
 -18871060.05448 -14689267.84046  20665765.6254                   20665762.8134
 -23341575.40746 -18173074.15845  21038845.5084                   21038843.3054
 -48883799.91247 -38030499.59343  24030243.0394                   24030241.2974
 -13068780.33148 -10163119.44146  20790075.3364                   20790072.1254
 -34762070.22647 -27069424.24044  22688315.3204                   22688313.7234
 -32278828.17748 -25135678.86346  20571581.7814                   20571576.3874
 11  7 27  2 39  0.0000000  0  7G25G12G10G17G05G04G02
   3760293.91847   2950245.43445  22565954.3444                   22565952.5434
 -18957333.95248 -14756494.22546  20649348.2734                   20649345.6334
 -23369091.58547 -18194515.27645  21033609.8054                   21033607.3244
 -48885143.22147 -38031546.32144  24029987.4304                   24029985.0274
 -13200232.11348 -10265549.37146  20765060.6254                   20765058.0234
 -34750435.61547 -27060358.30944  22690529.6174                   22690527.5434
 -32331105.06948 -25176414.07846  20561633.6724                   20561629.1174
 11  7 27  2 39 30.0000000  0  7G25G12G10G17G05G04G02
   5189095.01647   4063596.97345  22837846.1414                   22837845.7624
 -17467615.57148 -13595674.68946  20932832.2894                   20932829.4454
 -21820614.76647 -16987910.00245  21328274.7584                   21328272.2734
 -47310891.86047 -36804856.95544  24329557.7344                   24329554.5204
 -11755771.68748  -9139995.75946  21039932.2424                   21039929.3484
 -33163360.04747 -25823676.04744  22992540.0164                   22992537.7624
 -30807754.19248 -23989387.39446  20851517.5944                   20851513.1174
 11  7 27  2 40  0.0000000  0  7G25G12G10G17G05G04G02
   5042866.09947   3949652.43145  22810019.6414                   22810019.2704
 -17552748.37648 -13662011.92746  20916632.5704                   20916629.5314
 -21846986.80447 -17008459.59245  21323255.6724                   21323253.3444
 -47311884.24247 -36805630.24644  24329367.8284                   24329365.7424
 -11886243.98848  -9241662.45046  21015104.0554                   21015101.7274
 -33151682.54847 -25814576.70945  22994762.3204                   22994760.3134
 -30859618.82948 -24029801.36546  20841648.3284                   20841642.9804
 11  7 27  2 40 30.0000000  0  7G25G12G10G17G05G04G02
   4897030.47047   3836014.33045  22782268.2814                   22782267.3874
 -17637312.72148 -13727906.19946  20900540.3914                   20900537.1374
 -21872792.61847 -17028567.97445  21318345.2894                   21318342.4774
 -47312704.75447 -36806269.60644  24329211.4144                   24329209.5704
 -12016226.43448  -9342947.42746  20990369.0164                   20990365.6374
 -33139988.68547 -25805464.64045  22996987.3134                   22996985.8754
 -30911281.84748 -24070058.24646  20831816.7114                   20831812.1764
 11  7 27  2 41  0.0000000  0  7G25G12G10G17G05G04G02
   4751593.83247   3722687.15545  22754592.1334                   22754592.1764
 -17721304.62148 -13793354.41746  20884557.1884                   20884554.0704
 -21898030.56247 -17048233.91945  21313542.7894                   21313540.5904
 -47313349.96946 -36806772.39844  24329088.7894                   24329086.7974
 -12145714.13348  -9443846.90646  20965728.3594                   20965725.9104
 -33128276.33047 -25796338.16045  22999216.4614                   22999215.3754
 -30962741.23248 -24110156.44846  20822024.6644                   20822019.3204
 11  7 27  2 41 30.0000000  0  7G25G12G10G17G05G04G02
   4606557.60247   3609671.96945  22726992.5784                   22726991.9224
 -17804724.41748 -13858356.83746  20868682.7734                   20868680.2304
 -21922703.82846 -17067459.80245  21308847.5084                   21308845.2114
 -47313820.66546 -36807139.17144  24328999.2274                   24328997.7304
 -12274706.32848  -9544360.26446  20941181.9144                   20941178.9104
 -33116547.80247 -25787199.06745  23001448.4844                   23001446.7074
 -31013999.32148 -24150097.79546  20812270.2894                   20812265.2544
 11  7 27  2 42  0.0000000  0  7G25G12G10G17G05G04G02
   4461922.16547   3496969.11845  22699469.7974                   22699469.1684
 -17887573.46748 -13922914.53246  20852916.9924                   20852913.7034
 -21946816.18747 -17086248.62845  21304259.2584                   21304257.5204
 -47314119.31546 -36807371.88944  24328941.8674                   24328940.5124
 -12403203.39748  -9644487.82346  20916729.7114                   20916726.9024
 -33104806.59447 -25778050.09845  23003682.3524                   23003680.3324
 -31065059.07848 -24189884.60046  20802554.2734                   20802549.5824
 11  7 27  2 42 30.0000000  0  8G25G12G10G29G17G05G04G02
   4317689.40147   3384580.03445  22672023.5004                   22672022.1604
 -17969851.76847 -13987027.48247  20837260.2424                   20837257.0554
 -21970370.05047 -17104602.26145  21299776.4924                   21299774.2854
  23344841.33356  18208141.53953  24706232.1804                   24706232.9844
 -47314246.36546 -36807470.88844  24328919.0784                   24328916.5004
 -12531203.83148  -9744228.37646  20892372.7664                   20892369.8404
 -33093054.11947 -25768892.35245  23005919.0784                   23005917.1604
 -31115922.19148 -24229518.16946  20792875.2584                   20792870.4224
 11  7 27  2 43  0.0000000  0  8G25G12G10G29G17G05G04G02
   4173856.22047   3272502.33045  22644652.8524                   22644651.5784
 -18051563.85047 -14050699.21146  20821710.8914                   20821707.8444
 -21993372.63847 -17122526.34545  21295399.6884                   21295397.7034
  23193384.12246  18090122.88543  24677412.2344                   24677412.5944
 -47314207.24246 -36807440.39444  24328925.9774                   24328924.4184
 -12658711.47648  -9843584.96446  20868108.1644                   20868105.6254
 -33081297.32647 -25759731.21045  23008156.2504                   23008154.3014
 -31166595.33948 -24269003.72947  20783232.4774                   20783227.3484
 11  7 27  2 43 30.0000000  0  8G25G12G10G29G17G05G04G02
   4030424.53347   3160737.46445  22617358.4144                   22617357.5784
 -18132709.95948 -14113929.94646  20806269.4694                   20806265.9104
 -22015826.91346 -17140023.15644  21291126.8284                   21291124.0314
  23041846.18745  17972041.48842  24648575.8284                   24648576.0514
 -47314002.36147 -36807280.70043  24328964.8054                   24328963.3094
 -12785724.97648  -9942556.47946  20843938.4064                   20843935.5554
 -33069537.69647 -25750567.88445  23010393.5944                   23010392.3404
 -31217079.99348 -24308342.41046  20773625.4614                   20773620.6294
 11  7 27  2 44  0.0000000  0  8G25G12G10G29G17G05G04G02
   3887398.55147   3049288.73945  22590141.7114                   22590141.5634
 -18213288.00448 -14176718.03346  20790935.9694                   20790932.2154
 -22037732.62846 -17157092.55144  21286958.4304                   21286955.9734
  22890229.798 5                  24619724.203
 -47313630.13147 -36806990.63344  24329036.5004                   24329034.1604
 -12912240.82148 -10041140.21946  20819863.1644                   20819860.0354
 -33057774.74647 -25741401.97645  23012632.9454                   23012630.8014
 -31267375.58348 -24347533.77146  20764054.5394                   20764049.9064
 11  7 27  2 44 30.0000000  0  8G25G12G10G29G17G05G04G02
   3744780.11947   2938157.57445  22563002.0164                   22563003.1174
 -18293297.64548 -14239063.19546  20775710.7194                   20775706.7504
 -22059092.27846 -17173736.42344  21282894.0004                   21282891.4064
  22738534.522 5                  24590857.273
 -47313090.94347 -36806570.46243  24329138.5314                   24329135.1454
 -13038257.46748 -10139334.96546  20795882.9144                   20795880.2624
 -33046010.10247 -25732234.76045  23014870.8284                   23014869.4844
 -31317483.90048 -24386579.19847  20754519.0704                   20754514.0904
 11  7 27  2 45  0.0000000  0  8G25G12G10G29G17G05G04G02
   3602580.17147   2827352.49045  22535942.0784                   22535942.4304
 -18372729.93048 -14300958.47546  20760594.7274                   20760591.3874
 -22079899.37946 -17189949.75344  21278934.4454                   21278931.0594
                                  24561977.5084                   24561972.9614
 -47312376.54947 -36806013.82143  24329274.7194                   24329269.3954
 -13163764.88548 -10237132.91446  20771999.6024                   20771996.6884
 -33034236.24446 -25723060.35144  23017111.7974                   23017109.4924
 -31367397.21148 -24425472.68346  20745021.0084                   20745016.2114
 11  7 27  2 45 30.0000000  0  8G25G12G10G29G17G05G04G02
   3460800.16147   2716874.64945  22508962.1174                   22508962.1454
 -18451585.25847 -14362404.18446  20745589.3914                   20745585.6564
 -22100156.48747 -17205734.53245  21275079.6644                   21275076.6254
  22434935.38745  17499124.24443  24533082.6254                   24533080.9184
 -47311487.95046 -36805321.36243  24329443.0234                   24329438.7734
 -13288762.22448 -10334533.40946  20748213.6094                   20748210.1564
 -33022455.48046 -25713880.51544  23019353.2974                   23019351.3244
 -31417117.40247 -24464215.68546  20735560.0234                   20735554.3484
 11  7 27  2 46  0.0000000  0  8G25G12G10G29G17G05G04G02
   3319443.61647   2606726.76845  22482063.1334                   22482063.2584
 -18529861.65747 -14423398.76846  20730693.7974                   20730689.9964
 -22119864.87046 -17221091.67244  21271328.8364                   21271326.2154
  22283032.81345  17380758.72543  24504176.9924                   24504176.7734
 -47310423.88846 -36804492.28343  24329645.5634                   24329641.9024
 -13413246.60248 -10431534.18946  20724525.0554                   20724522.2704
 -33010667.58847 -25704695.14644  23021596.6564                   23021593.8984
 -31466644.58648 -24502808.27447  20726134.8594                   20726129.4534
 11  7 27  2 46 30.0000000  0  8G25G12G10G29G17G05G04G02
   3178514.69147   2496912.08045  22455244.0864                   22455244.7734
 -18607557.37648 -14483940.86746  20715908.5314                   20715905.2624
 -22139024.71246 -17236021.40844  21267682.3914                   21267680.7584
  22131064.24146  17262341.69143  24475258.5084                   24475258.6454
 -47309182.79946 -36803525.17743  24329882.2814                   24329879.3594
 -13537214.94047 -10528132.85846  20700934.4614                   20700931.7304
 -32998872.02346 -25695503.81644  23023841.9924                   23023839.5044
 -31515978.00648 -24541249.89046  20716747.2194                   20716742.2734
 11  7 27  2 47  0.0000000  0  8G25G12G10G29G17G05G04G02
   3038013.47947   2387430.67445  22428508.1644                   22428508.5704
 -18684673.76048 -14544031.55346  20701234.2274                   20701230.2424
 -22157640.28146 -17250527.03944  21264140.2734                   21264138.1644
  21979027.70646  17143871.77143  24446326.8284                   24446325.6844
 -47307766.80746 -36802421.83443  24330150.8914                   24330150.0274
 -13660667.36247 -10624329.51546  20677441.9774                   20677439.3134
 -32987071.99547 -25686308.99744  23026086.6024                   23026085.2234
 -31565120.77648 -24579542.95346  20707395.2974                   20707390.4024
 11  7 27  2 47 30.0000000  0  8G25G12G10G29G17G05G04G02
   2897940.90447   2278283.26245  22401853.4774                   22401853.3794
 -18761211.91148 -14603671.66346  20686669.2344                   20686666.3014
 -22175714.87346 -17264611.15044  21260701.5944                   21260698.9734
  21826923.15746  17025348.84443  24417383.3674                   24417381.4024
 -47306177.52746 -36801183.37543  24330453.4144                   24330452.2034
 -13783603.74047 -10720124.06746  20654047.9614                   20654045.6454
 -32975269.98547 -25677112.64744  23028332.4614                   23028331.0594
 -31614075.46048 -24617689.44246  20698079.8444                   20698074.7304
 11  7 27  2 48  0.0000000  0  8G25G12G10G29G17G05G04G02
   2758300.65547   2169472.72245  22375280.2504                   22375280.1524
 -18837170.45148 -14662860.12846  20672214.7584                   20672211.4224
 -22193249.21246 -17278274.29444  21257364.9144                   21257360.4844
  21674752.35746  16906774.21343  24388425.3524                   24388422.8444
 -47304413.79146 -36799808.95143  24330788.8054                   24330786.6174
 -13906021.15847 -10815514.22646  20630753.0164                   20630749.9414
 -32963465.92547 -25667914.66444  23030578.9774                   23030576.5044
 -31662841.90448 -24655689.25646  20688799.6174                   20688795.2344
 11  7 27  2 48 30.0000000  0  8G25G12G10G29G17G05G04G02
   2619096.44047   2061001.94645  22348791.3444                   22348791.2704
 -18912547.57048 -14721595.52546  20657870.6024                   20657867.8484
 -22210243.79646 -17291516.76544  21254131.7584                   21254127.2664
  21522517.15646  16788149.43043  24359456.6954                   24359453.7814
 -47302474.31346 -36798297.69643  24331158.7504                   24331157.9804
 -14027916.48048 -10910497.55746  20607556.9534                   20607553.8874
 -32951659.33247 -25658714.71044  23032825.3204                   23032823.4414
 -31711419.70648 -24693542.06946  20679555.5084                   20679550.5004
 11  7 27  2 49  0.0000000  0  8G25G12G10G29G17G05G04G02
   2480328.61547   1952871.21645  22322383.9924                   22322384.7464
 -18987344.82448 -14779879.09046  20643637.3444                   20643634.1804
 -22226702.87746 -17304342.04943  21250998.5314                   21250994.7854
  21370216.13846  16669473.40943  24330474.7344                   24330471.5904
 -47300360.94746 -36796650.87943  24331560.5084                   24331558.2304
 -14149290.33148 -11005074.55246  20584460.4774                   20584457.4264
 -32939853.13747 -25649515.08944  23035072.4534                   23035070.2304
 -31759811.72648 -24731250.09746  20670347.4304                   20670341.6524
 11  7 27  2 49 30.0000000  0  8G25G12G10G29G17G05G04G02
   2342000.08048   1845082.76145  22296061.2504                   22296062.0204
 -19061561.15448 -14837709.97946  20629514.2974                   20629511.4844
 -22242628.40246 -17316751.53144  21247968.3914                   21247964.5124
  21217850.39546  16550746.97243  24301481.0314                   24301477.5634
 -47298073.29646 -36794868.29543  24331996.6644                   24331992.7154
 -14270140.58348 -11099243.55346  20561463.2664                   20561460.5514
 -32928047.89347 -25640316.16044  23037318.9534                   23037317.1524
 -31808018.47548 -24768813.78046  20661173.8364                   20661168.8794
 11  7 27  2 50  0.0000000  0  8G25G12G10G29G17G05G04G02
   2204113.71547   1737638.85545  22269822.2504                   22269823.0164
 -19135195.88248 -14895087.68546  20615502.5634                   20615499.0204
 -22258021.69246 -17328746.28744  21245038.8364                   21245036.0594
  21065421.51346  16431971.32044  24272473.0234                   24272472.3134
 -47295610.98046 -36792949.60043  24332463.6884                   24332461.0084
 -14390464.91148 -11193002.75346  20538566.3054                   20538563.6484
 -32916244.05047 -25631118.36044  23039565.7034                   23039563.1954
 -31856040.44848 -24806233.47646  20652035.4304                   20652030.1134
 11  7 27  2 50 30.0000000  0  8G25G12G10G29G17G05G04G02
   3642095.57147   2858144.23545  22543461.0164                   22543461.5744
 -17632827.04148 -13724410.65146  20901393.7584                   20901389.9264
 -20697464.96146 -16112728.04343  21542003.1024                   21542000.7154
  22488354.30147  17540750.22244  24543248.6414                   24543247.3914
 -45717554.94946 -35563295.57643  24632758.2664                   24632755.6454
 -12934838.67347 -10058748.51146  20815562.3594                   20815559.9184
 -31329023.78247 -24394323.34344  23341602.3054                   23341601.2814
 -30328457.83448 -23615909.34246  20942724.3754                   20942719.2074
 11  7 27  2 51  0.0000000  0  8G25G12G10G29G17G05G04G02
   3505098.33447   2751393.18645  22517391.5164                   22517391.1604
 -17705299.22548 -13780882.48946  20887602.4614                   20887599.4024
 -20711801.73746 -16123899.51644  21539275.4924                   21539271.9964
  22335798.67647  17421875.76443  24514218.8284                   24514215.9384
 -45714745.73546 -35561106.55443  24633293.4924                   24633290.6724
 -13054108.51647 -10151686.02946  20792866.1954                   20792863.3364
 -31317227.67846 -24385131.55144  23343847.3444                   23343845.9964
 -30376115.27048 -23653044.99546  20933655.7734                   20933650.7154
 11  7 27  2 51 30.0000000  0  8G25G12G10G29G17G05G04G02
   3368546.55647   2644989.21045  22491406.6644                   22491406.2814
 -17777192.93348 -13836903.54546  20873921.6954                   20873918.8324
 -20725616.11346 -16134663.99444  21536645.4144                   21536642.7584
  22183178.19346  17302950.77543  24485175.0704                   24485173.1764
 -45711765.69246 -35558784.41743  24633861.1254                   24633857.8524
 -13172851.61547 -10244213.09746  20770269.5554                   20770267.0044
 -31305439.55847 -24375945.98944  23346090.5784                   23346088.7704
 -30423594.41548 -23690041.71846  20924620.8134                   20924615.6094
 11  7 27  2 52  0.0000000  0  7G25G12G10G29G05G04G02
   3232443.02847   2538934.54445  22465507.1484                   22465506.3324
 -17848507.16048 -13892473.07246  20860351.3594                   20860347.7344
 -20738909.91946 -16145022.79143  21534116.9924                   21534112.3754
  22030493.93346  17183976.10143  24456120.8754                   24456119.0554
 -13291065.91347 -10336328.10146  20747774.5474                   20747771.9144
 -31293659.86147 -24366767.00844  23348332.8284                   23348330.6254
 -30470895.87948 -23726899.99946  20915619.8674                   20915614.8284
 11  7 27  2 52 30.0000000  0  7G25G12G10G29G05G04G02
   3096796.13547   2433235.69245  22439694.3444                   22439694.2894
 -17919235.39548 -13947585.96547  20846892.0084                   20846889.1764
 -20751679.29046 -16154972.92144  21531686.8524                   21531682.1094
  21877752.82546  17064957.13443  24427055.5004                   24427052.2974
 -13408743.75947 -10428025.09346  20725380.9144                   20725378.5824
 -31281883.35747 -24357590.50844  23350574.2664                   23350571.8404
 -30518014.19248 -23763615.55546  20906652.8754                   20906648.5944
 11  7 27  2 53  0.0000000  0  7G25G12G10G29G05G04G02
   2961611.34947   2327896.91445  22413969.1804                   22413969.1524
 -17989374.21248 -14002239.58847  20833545.3834                   20833541.9734
 -20763923.19447 -16164513.60644  21529356.1724                   21529354.5394
  21724958.63846  16945896.89143  24397979.6484                   24397977.5394
 -13525880.43448 -10519300.40246  20703091.0554                   20703089.0474
 -31270107.66547 -24348414.62844  23352814.3284                   23352813.2274
 -30564947.47248 -23800186.94146  20897722.1254                   20897717.3014
 11  7 27  2 53 30.0000000  0  7G25G12G10G29G05G04G02
   2826890.16848   2222919.40245  22388333.6414                   22388332.7734
 -18058924.28747 -14056434.45546  20820309.9774                   20820306.8404
 -20775644.44647 -16173647.07544  21527125.6414                   21527123.6994
  21572111.71846  16826795.51244  24368894.2664                   24368892.9144
 -13642475.49648 -10610153.65346  20680903.7114                   20680900.5634
 -31258334.57147 -24339240.76744  23355054.4774                   23355052.7504
 -30611697.50048 -23836615.53646  20888825.3984                   20888821.2854
 11  7 27  2 54  0.0000000  0  7G25G12G10G29G05G04G02
   2692630.99948   2118301.89845  22362784.4064                   22362784.1954
 -18127889.31448 -14110173.43746  20807186.4454                   20807183.2894
 -20786849.18347 -16182378.02944  21524993.5634                   21524991.5824
  21419208.77847  16707650.47544  24339797.1174                   24339795.6644
 -13758531.18548 -10700586.63446  20658819.3594                   20658816.3484
 -31246568.80247 -24330072.62844  23357294.1254                   23357291.8524
 -30658268.63448 -23872904.72246  20879963.4144                   20879958.9384
 11  7 27  2 54 30.0000000  0  7G25G12G10G29G05G04G02
   2558835.89648   2014046.00846  22337324.0234                   22337323.5514
 -18196269.48848 -14163456.69246  20794174.1024                   20794170.9454
 -20797539.71347 -16190708.32244  21522959.2584                   21522957.1994
  21266250.39846  16588462.20243  24310688.1174                   24310689.6334
 -13874046.27348 -10790598.37146  20636837.2344                   20636833.5594
 -31234811.36447 -24320911.00644  23359530.5864                   23359528.9574
 -30704662.18248 -23909055.52946  20871135.5634                   20871129.7234
 11  7 27  2 55  0.0000000  0  7G25G12G10G29G05G04G02
   2425505.10248   1910151.92246  22311952.3134                   22311951.8524
 -18264066.68348 -14216285.68446  20781272.9304                   20781269.6334
 -20807720.35347 -16198641.27144  21521021.7894                   21521018.8634
  21113234.96346  16469229.47943  24281570.8524                   24281571.5864
 -13989021.43248 -10880189.38046  20614958.1564                   20614955.2034
 -31223065.22047 -24311758.10044  23361766.4844                   23361763.3054
 -30750880.95248 -23945070.13446  20862340.3134                   20862334.7344
 11  7 27  2 55 30.0000000  0  7G25G12G10G29G05G04G02
   2292642.25448   1806622.45246  22286669.3524                   22286668.0274
 -18331279.46748 -14268659.27546  20768482.6334                   20768479.6024
 -20817391.99947 -16206177.60545  21519181.4304                   21519179.0164
  20960165.51647  16349954.62743  24252444.1564                   24252442.5234
 -14103453.69748 -10969357.34146  20593182.4384                   20593179.3014
 -31211329.63747 -24302613.47844  23364000.0164                   23363996.6024
 -30796924.55148 -23980948.25646  20853578.5944                   20853573.7704
 11  7 27  2 56  0.0000000  0  7G25G12G10G29G05G04G02
   2160244.03647   1703455.05546  22261474.5004                   22261473.5004
 -18397913.18248 -14320581.65246  20755802.6024                   20755799.3204
 -20826562.30447 -16213323.30445  21517435.8754                   21517433.5664
  20807036.81547  16230633.60844  24223303.9844                   24223302.5634
 -14217347.32748 -11058105.60846  20571509.2974                   20571506.4454
 -31199611.08047 -24293482.10844  23366228.7034                   23366227.2384
 -30842799.47248 -24016694.91046  20844848.5634                   20844843.4144
 11  7 27  2 56 30.0000000  0  7G25G12G10G29G05G04G02
   2028313.18348   1600651.83246  22236369.4144                   22236368.2544
 -18463967.49248 -14372052.57046  20743232.7584                   20743229.6994
 -20835233.07347 -16220079.72945  21515785.8754                   21515783.8324
  20653850.42647  16111267.66944  24194154.1954                   24194151.6684
 -14330700.48948 -11146432.71446  20549938.8914                   20549936.0944
 -31187909.69347 -24284364.15144  23368456.3134                   23368453.7154
 -30888505.95648 -24052310.33946  20836150.8834                   20836145.9384
 11  7 27  2 57  0.0000000  0  7G25G12G10G29G05G04G02
   1896852.05948   1498214.63346  22211352.9694                   22211352.0084
 -18529441.74748 -14423071.46646  20730773.4924                   20730770.3954
 -20843406.31147 -16226448.46445  21514230.9844                   21514228.9224
  20500607.42147  15991857.61244  24164992.9614                   24164991.3134
 -14443511.75648 -11234337.58446  20528471.2894                   20528468.4224
 -31176226.28247 -24275260.16443  23370679.2114                   23370676.0274
 -30934044.54248 -24087794.93346  20827484.8134                   20827479.7974
 11  7 27  2 57 30.0000000  0  7G25G12G10G29G05G04G02
   1765860.61548   1396143.42846  22186425.8444                   22186425.0744
 -18594338.53348 -14473640.40746  20718424.3054                   20718420.6684
 -20851086.65947 -16232433.16945  21512769.6564                   21512766.8874
  20347306.37046  15872402.25243  24135818.3984                   24135817.5554
 -14555782.02848 -11321820.88546  20507107.1094                   20507104.3164
 -31164563.83047 -24266172.51943  23372898.4844                   23372896.1804
 -30979418.51748 -24123151.26046  20818850.5944                   20818845.1414
 11  7 27  2 58  0.0000000  0  7G25G12G10G29G05G04G02
   1635345.20148   1294443.18446  22161589.3134                   22161588.7624
 -18658653.70848 -14523756.14146  20706185.4614                   20706182.0704
 -20858272.36648 -16238032.41345  21511402.0784                   21511398.9884
  20193952.21045  15752905.46243  24106636.0944                   24106636.4344
 -14667505.67248 -11408878.25046  20485846.7664                   20485843.4264
 -31152918.92047 -24257098.56644  23375114.3754                   23375112.9804
 -31024624.56648 -24158376.73446  20810248.0004                   20810242.9414
 11  7 27  2 58 30.0000000  0  7G25G12G10G29G05G04G02
   1505307.16448   1193114.86646  22136844.1724                   22136842.9534
 -18722388.17448 -14573419.35846  20694057.1334                   20694053.8554
 -20864966.60448 -16243248.68345  21510128.0164                   21510124.9144
  20040545.02246  15633367.42844  24077444.6334                   24077445.0164
 -14778682.35748 -11495509.40646  20464690.5864                   20464687.4654
 -31141293.05947 -24248039.46743  23377326.6564                   23377324.1524
 -31069664.58148 -24193472.82646  20801677.2584                   20801672.3324
 11  7 27  2 59  0.0000000  0  7G25G12G10G29G05G04G02
   1375748.38348   1092159.99846  22112189.3134                   22112188.7734
 -18785541.99048 -14622630.13146  20682039.4224                   20682036.0044
 -20871171.72048 -16248083.83145  21508947.5704                   21508944.8754
  19887085.65646  15513788.70844  24048242.7734                   24048239.8634
 -14889311.25748 -11581713.71046  20443638.5634                   20443635.6684
 -31129687.23947 -24238995.94844  23379535.3914                   23379533.2774
 -31114539.11248 -24228439.98646  20793137.9844                   20793133.1564
 11  7 27  2 59 30.0000000  0  7G25G12G10G29G05G04G02
   1246670.59048    991579.96245  22087626.5864                   22087625.1094
 -18848116.04348 -14671389.13446  20670131.9924                   20670128.8834
 -20876890.31448 -16252539.86745  21507859.2424                   21507856.9494
  19733574.45046  15394169.62144  24019030.9844                   24019028.2384
 -14999391.40348 -11667490.41146  20422690.7114                   20422687.4024
 -31118102.70846 -24229969.03644  23381739.3284                   23381737.7704
 -31159249.58248 -24263279.31546  20784629.6414                   20784624.7154
 11  7 27  3  0  0.0000000  0  7G25G12G10G29G05G04G02
   1118074.90648    891375.58146  22063155.6334                   22063154.2624
 -18910111.00948 -14719696.91246  20658334.6804                   20658331.4734
 -20882126.03348 -16256619.63745  21506863.0944                   21506860.3754
  19580011.16945  15274509.94943  23989807.3364                   23989806.3164
 -15108922.73448 -11752839.48046  20401847.4924                   20401844.6174
 -31106541.17946 -24220960.05344  23383939.9534                   23383938.3914
 -31203798.17348 -24297992.49246  20776152.8594                   20776147.8984
 11  7 27  3  0 30.0000000  0  7G25G12G10G29G05G04G02
    989962.09748    791547.45346  22038776.4844                   22038776.2704
 -18971528.92948 -14767555.03946  20646646.8914                   20646644.1214
 -20886882.57848 -16260326.03845  21505957.6414                   21505954.9384
  19426395.73045  15154809.68443  23960574.1094                   23960573.1994
 -15217905.35248 -11837760.98046  20381109.2194                   20381105.7704
 -31095004.66546 -24211970.59043  23386135.2424                   23386132.2704
 -31248186.74948 -24332580.97346  20767705.9694                   20767700.9224
 11  7 27  3  1  0.0000000  0  7G25G12G10G29G05G04G02
    862335.15848    692097.89845  22014489.3524                   22014488.6724
 -19032368.90148 -14814962.80446  20635069.5314                   20635066.8284
 -20891161.14948 -16263659.97345  21505143.6644                   21505140.3484
  19272729.81546  15035070.04043  23931334.2194                   23931332.5824
 -15326337.17748 -11922253.29846  20360475.2584                   20360472.0474
 -31083493.12346 -24203000.49244  23388326.3674                   23388323.7624
 -31292415.29348 -24367044.76546  20759289.2814                   20759283.8324
 11  7 27  3  1 30.0000000  0  7G25G12G10G29G05G04G02
   2310620.07248   1820631.66246  22290089.7584                   22290088.6414
 -17517209.05848 -13634318.75046  20923394.9064                   20923392.4024
 -19319544.59848 -15039023.69845  21804212.1644                   21804209.3714
  20694439.22546  16142895.58243  24201876.6954                   24201875.6564
 -13858793.81248 -10778713.00146  20639739.3914                   20639736.1374
 -29496587.66846 -22966450.78843  23690304.0004                   23690301.7504
 -29761063.60548 -23173783.69846  21050695.5864                   21050691.0084
 11  7 27  3  2  0.0000000  0  7G25G12G10G29G05G04G02
   2183972.52648   1721945.29045  22265989.1644                   22265988.8674
 -17576891.84148 -13680824.83246  20912037.0784                   20912034.7234
 -19322873.33248 -15041617.50645  21803578.6414                   21803576.1724
  20540676.86446  16023080.71643  24172617.5474                   24172614.0234
 -13966119.16348 -10862343.14046  20619316.3204                   20619313.3554
 -29485126.13746 -22957519.71343  23692484.5234                   23692482.5554
 -29804973.19448 -23207998.95046  21042340.2114                   21042334.7854
 11  7 27  3  2 30.0000000  0  7G25G12G10G29G05G04G02
   2057818.61848   1623643.57745  22241982.9064                   22241982.5944
 -17635995.85848 -13726879.89946  20900790.5554                   20900787.2544
 -19325729.70848 -15043843.24246  21803035.2114                   21803032.2194
  20386868.54747  15903230.16543  24143349.3674                   24143345.1214
 -14072888.78648 -10945540.21046  20598998.3914                   20598995.5004
 -29473689.78846 -22948608.26543  23694660.7034                   23694658.1454
 -29848723.45148 -23242090.04846  21034014.5084                   21034009.2544
 11  7 27  3  3  0.0000000  0  7G25G12G10G29G05G04G02
   1932162.19248   1525729.50845  22218071.4304                   22218070.4534
 -17694519.10148 -13772482.42346  20889653.9774                   20889650.3484
 -19328114.66148 -15045701.64246  21802581.5634                   21802578.5274
  20233017.33746  15783346.09743  24114072.3054                   24114069.2544
 -14179100.04048 -11028302.19646  20578786.9534                   20578784.1454
 -29462277.68847 -22939715.72843  23696833.2734                   23696831.2814
 -29892313.35648 -23276056.19946  21025719.8204                   21025714.4224
 11  7 27  3  3 30.0000000  0  7G25G12G10G29G05G04G02
   1807001.39548   1428201.66546  22194253.5704                   22194253.1054
 -17752466.26248 -13817636.05746  20878627.1484                   20878623.2624
 -19330034.39648 -15047197.53946  21802216.0784                   21802213.4414
  20079120.38346  15663426.47543  24084785.6564                   24084782.9774
 -14284755.74448 -11110631.29446  20558681.5314                   20558678.1454
 -29450894.36247 -22930845.54943  23698998.9774                   23698997.6054
 -29935747.70948 -23309901.13546  21017454.6724                   21017449.2384
 11  7 27  3  4  0.0000000  0  7G25G12G10G29G05G04G02
   1682339.18048   1331062.31245  22170530.8054                   22170530.8674
 -17809836.50248 -13862340.15646  20867709.5164                   20867705.7704
 -19331490.30948 -15048332.01846  21801938.9144                   21801936.0594
  19925179.36246  15543472.53643  24055491.7274                   24055488.6414
 -14389853.67048 -11192525.74646  20538681.7894                   20538679.1024
 -29439539.30747 -22921997.54343  23701159.8754                   23701156.4264
 -29979026.36948 -23343624.76346  21009219.0004                   21009213.2234
 11  7 27  3  4 30.0000000  0  7G25G12G10G29G05G04G02
   1558175.37448   1234311.31846  22146903.6724                   22146903.6334
 -17866632.43747 -13906596.72146  20856901.8364                   20856898.3524
 -19332486.88948 -15049108.56446  21801748.8594                   21801746.8244
  19771192.95546  15423483.22144  24026189.0784                   24026186.6294
 -14494394.80248 -11273986.34546  20518788.4144                   20518785.3794
 -29428215.29047 -22913173.55843  23703315.6334                   23703310.9304
 -30022152.21748 -23377229.29346  21001011.9924                   21001006.7664
 11  7 27  3  5  0.0000000  0  7G25G12G10G29G05G04G02
   1434515.66548   1137953.13146  22123372.0234                   22123371.7384
 -17922850.60047 -13950403.09746  20846204.1414                   20846200.1644
 -19333022.86948 -15049526.20646  21801647.5234                   21801644.8444
  19617166.24246  15303462.44443  23996877.3204                   23996874.4064
 -14598374.59747 -11355009.55346  20499001.5314                   20498998.4734
 -29416919.30446 -22904371.48243  23705463.5634                   23705461.8134
 -30065122.29747 -23410712.46746  20992834.8674                   20992829.8364
 11  7 27  3  5 30.0000000  0  7G25G12G10G29G05G04G02
   1311359.86448   1041987.59146  22099936.3204                   22099935.8164
 -17978493.09947 -13993760.89146  20835616.0004                   20835611.8554
 -19333102.97848 -15049588.61645  21801631.5864                   21801629.5164
  19463097.99947  15183409.36444  23967561.1094                   23967557.7154
 -14701794.64448 -11435596.58346  20479321.7034                   20479318.7854
 -29405654.14547 -22895593.43343  23707608.7274                   23707606.1884
 -30107939.30248 -23444076.34846  20984687.5314                   20984682.2774
 11  7 27  3  6  0.0000000  0  7G25G12G10G29G05G04G02
   1188709.27848    946415.74546  22076596.8674                   22076596.2274
 -18033561.81847 -14036671.57246  20825136.6094                   20825132.7464
 -19332730.25648 -15049298.18745  21801702.7734                   21801700.0084
  19308988.91546  15063324.42444  23938234.4774                   23938232.6994
 -14804654.36248 -11515746.99446  20459748.1174                   20459744.7304
 -29394420.97446 -22886840.36343  23709744.9144                   23709742.6884
 -30150604.76948 -23477322.16146  20976568.6564                   20976563.5514
 11  7 27  3  6 30.0000000  0  7G25G12G10G29G05G04G02
   1066564.92248    851238.36946  22053353.0784                   22053353.1564
 -18088057.73048 -14079135.91746  20814766.4064                   20814762.7894
 -19331908.10148 -15048657.54745  21801859.7974                   21801856.8444
  19154838.76247  14943207.49544  23908901.5704                   23908899.8554
 -14906953.74848 -11595460.78146  20440281.1564                   20440277.8484
 -29383221.29546 -22878113.37343  23711877.0864                   23711872.7854
 -30193120.34648 -23510451.17646  20968477.7734                   20968472.7384
 11  7 27  3  7  0.0000000  0  7G25G12G10G29G05G04G02
    944932.58448    756459.97146  22030207.3284                   22030206.9414
 -18141977.48947 -14121151.31546  20804505.8134                   20804502.6174
 -19330635.19548 -15047665.64145  21802101.8444                   21802098.6644
  19000652.56546  14823062.47644  23879559.4924                   23879558.6254
 -15008687.87148 -11674734.09846  20420921.4694                   20420918.5634
 -29372051.60146 -22869409.60942  23714001.3754                   23713998.8324
 -30235482.86348 -23543460.91046  20960416.9304                   20960411.4924
 11  7 27  3  7 30.0000000  0  7G25G12G10G29G05G04G02
    823812.59348    662080.79446  22007158.8834                   22007158.8794
 -18195323.13647 -14162719.34846  20794354.0314                   20794350.8874
 -19328915.67847 -15046325.72945  21802428.6484                   21802425.9774
  18846430.14246  14702889.33444  23850212.1024                   23850210.6484
 -15109857.62747 -11753567.65746  20401669.7114                   20401666.8914
 -29360914.21546 -22860731.16643  23716122.8134                   23716119.3094
 -30277694.69447 -23576353.23446  20952383.9614                   20952378.9304
 11  7 27  3  8  0.0000000  0  7G25G12G10G29G05G04G02
    703203.24748    568099.49546  21984207.8204                   21984207.6684
 -18248098.56747 -14203843.07846  20784311.0554                   20784307.8404
 -19326755.84648 -15044642.75545  21802840.3594                   21802836.9774
  18692168.80646  14582685.79144  23820856.2504                   23820854.0434
 -15210465.84947 -11831963.63946  20382524.5394                   20382521.2854
 -29349813.21746 -22852081.07043  23718234.5084                   23718231.7074
 -30319760.02848 -23609131.41146  20944378.9924                   20944374.6334
 11  7 27  3  8 30.0000000  0  7G25G12G10G29G05G04G02
    583109.63048    474520.07046  21961354.6644                   21961353.4384
 -18300301.26747 -14244520.51246  20774377.4534                   20774374.7384
 -19324154.64947 -15042615.81545  21803335.1334                   21803331.6954
  18537873.09246  14462455.44944  23791495.3594                   23791493.3204
 -15310508.41848 -11909918.86546  20363487.1484                   20363483.6524
 -29338745.88946 -22843457.11843  23720339.9844                   23720336.5474
 -30361676.37047 -23641793.46346  20936403.0164                   20936398.3984
 11  7 27  3  9  0.0000000  0  7G25G12G10G29G05G04G02
    463532.68948    381343.26646  21938600.4774                   21938599.2344
 -18351932.45147 -14284752.60346  20764552.1884                   20764549.3834
 -19321115.56747 -15040247.68645  21803913.1804                   21803909.9224
  18383543.05047  14342198.45044  23762128.2584                   23762124.2464
 -15409985.29748 -11987433.28146  20344557.1644                   20344553.6914
 -29327713.73146 -22834860.59943  23722440.8284                   23722436.4064
 -30403445.21748 -23674340.62046  20928454.6414                   20928449.7664
 11  7 27  3  9 30.0000000  0  7G25G12G10G29G05G04G02
    344475.04848    288571.09646  21915944.4534                   21915942.6954
 -18402992.21248 -14324539.45046  20754836.0784                   20754832.8714
 -19317640.40548 -15037539.75745  21804574.1644                   21804572.0434
  18229180.92747  14221916.28744  23732753.7424                   23732751.4924
 -15508895.05848 -12064505.79946  20325734.9304                   20325732.2544
 -29316716.57746 -22826291.41843  23724531.8914                   23724528.4654
 -30445066.48748 -23706772.76046  20920534.0314                   20920528.8484
 11  7 27  3 10  0.0000000  0  7G25G12G10G29G05G04G02
    225938.47448    196204.96946  21893387.2734                   21893386.1644
 -18453480.43148 -14363880.91646  20745228.8834                   20745225.4024
 -19313731.84647 -15034494.11745  21805318.1564                   21805315.0744
  18074787.75847  14101610.00544  23703373.3054                   23703371.0234
 -15607237.24548 -12141136.05146  20307021.1024                   20307018.0474
 -29305754.63246 -22817749.61342  23726618.4064                   23726614.7704
 -30486541.08248 -23739090.61146  20912641.2814                   20912636.4064
 11  7 27  3 10 30.0000000  0  7G25G12G10G29G05G04G02
    107926.59448    104247.71346  21870930.3444                   21870930.1684
 -18503397.09548 -14402777.02946  20735729.8054                   20735726.3554
 -19309390.18147 -15031111.00045  21806144.4454                   21806141.6604
  17920366.30047  13981281.64244  23673986.9454                   23673985.9884
 -15705008.80948 -12217321.67347  20288416.0164                   20288413.2854
 -29294826.60945 -22809234.25843  23728697.2114                   23728696.0784
 -30527867.71248 -23771293.16046  20904777.7194                   20904772.1134
 11  7 27  3 11  0.0000000  0  7G25G12G10G29G05G04G02
     -9560.08948     12699.65946  21848573.5394                   21848572.9574
 -18552743.90248 -14441229.08446  20726339.4534                   20726335.8164
 -19304619.26247 -15027393.38445  21807052.3444                   21807049.7734
  17765916.72347  13860931.40644  23644596.0234                   23644594.4304
 -15802210.89248 -12293063.53747  20269919.2274                   20269916.6884
 -29283934.32045 -22800746.76843  23730770.0004                   23730768.1414
 -30569048.26348 -23803381.90046  20896941.2894                   20896935.8094
 11  7 27  3 11 30.0000000  0  7G25G12G10G29G05G04G02
   -126520.97348    -78438.65746  21826316.4304                   21826315.8524
 -18601522.15048 -14479238.09846  20717056.7814                   20717053.6844
 -19299423.04747 -15023344.37845  21808041.2974                   21808038.0664
  17611438.82746  13740559.08244  23615200.3594                   23615198.6054
 -15898843.24148 -12368361.45346  20251530.6644                   20251527.0594
 -29273079.55146 -22792288.50843  23732835.5314                   23732833.3444
 -30610084.59248 -23835358.24646  20889132.1804                   20889127.3594
 11  7 27  3 12  0.0000000  0  7G25G12G10G29G05G04G02
   -242954.92048   -169166.36246  21804159.9844                   21804158.6804
 -18649733.62548 -14516805.49046  20707882.4694                   20707879.4964
 -19293804.91147 -15018966.59545  21809110.5084                   21809106.9224
  17456933.21446  13620165.21344  23585799.3754                   23585796.1954
 -15994906.29848 -12443215.76646  20233250.2194                   20233247.3094
 -29262263.11446 -22783860.13342  23734894.7194                   23734891.6214
 -30650978.02748 -23867223.25046  20881350.2814                   20881345.1564
 11  7 27  3 12 30.0000000  0  7G25G12G10G29G05G04G02
   1216561.51448    968119.20846  22081896.9384                   22081895.2814
 -17121959.19348 -13326331.91746  20998608.7114                   20998605.1134
 -17712349.48447 -13786663.65945  22110051.1954                   22110048.2344
  18877824.01747  14727352.90944  23856186.0164                   23856182.3164
 -14514978.48048 -11290025.23846  20514870.8594                   20514867.6954
 -27676068.02946 -21547863.96443  24036737.9924                   24036734.7274
 -29116309.95848 -22671377.98446  21173388.2894                   21173383.1724
 11  7 27  3 13  0.0000000  0  7G25G12G10G29G05G04G02
   1101184.21148    878214.82646  22059941.3914                   22059939.8484
 -17169040.97148 -13363019.00846  20989649.3674                   20989646.1134
 -17705896.95246 -13781635.71545  22111279.0864                   22111275.5704
  18723264.36647  14606916.88844  23826773.7734                   23826771.8324
 -14609903.10048 -11363992.45746  20496807.6254                   20496804.2624
 -27665332.18446 -21539498.40443  24038780.8204                   24038777.7234
 -29156921.52248 -22703023.34946  21165660.3134                   21165654.4654
 11  7 27  3 13 30.0000000  0  7G25G12G10G29G05G04G02
    986337.57048    788723.98346  22038086.4614                   22038085.7304
 -17215559.60248 -13399267.28646  20980797.1094                   20980793.9304
 -17699031.21746 -13776285.79045  22112585.2814                   22112581.9534
  18568679.64747  14486461.30644  23797357.3834                   23797355.4224
 -14704257.87848 -11437515.62746  20478852.3834                   20478849.2154
 -27654637.37446 -21531164.69143  24040815.1724                   24040812.2814
 -29197393.39548 -22734559.86246  21157958.5234                   21157953.3674
 11  7 27  3 14  0.0000000  0  7G25G12G10G29G05G04G02
    872025.92448    699650.00646  22016333.3914                   22016332.7034
 -17261513.14548 -13435075.22546  20972052.3204                   20972048.8954
 -17691752.62346 -13770614.14145  22113970.4924                   22113966.9734
  18414073.51247  14365989.07144  23767936.9144                   23767933.3674
 -14798039.72948 -11510592.38146  20461006.3364                   20461003.3714
 -27643981.50146 -21522861.39143  24042842.7424                   24042839.8244
 -29237723.57448 -22765985.96346  21150283.9614                   21150278.5664
 11  7 27  3 14 30.0000000  0  7G25G12G10G29G05G04G02
    758248.79848    610992.53446  21994682.0084                   21994681.7974
 -17306903.98948 -13470444.70446  20963414.8054                   20963411.4414
 -17684065.62547 -13764624.27245  22115433.8204                   22115430.8284
  18259444.77247  14245499.21444  23738511.6644                   23738508.3484
 -14891250.00248 -11583223.74746  20443269.1564                   20443265.9884
 -27633366.97646 -21514590.38543  24044862.0554                   24044860.4304
 -29277914.74048 -22797303.74346  21142635.7584                   21142630.4144
 11  7 27  3 15  0.0000000  0  7G25G12G10G29G05G04G02
    645008.46547    522753.34146  21973133.4534                   21973132.6644
 -17351732.93548 -13505376.33346  20954884.0864                   20954880.8874
 -17675971.79047 -13758317.36545  22116973.2894                   22116970.3324
  18104796.00947  14124993.75244  23709082.9534                   23709078.5044
 -14983887.60648 -11655408.87846  20425640.8054                   20425637.5124
 -27622793.75446 -21506351.55743  24046874.8284                   24046872.7544
 -29317966.75248 -22828513.09046  21135014.1254                   21135009.1134
 11  7 27  3 15 30.0000000  0  7G25G12G10G29G05G04G02
    532306.13747    434933.36546  21951686.3984                   21951686.0474
 -17396000.88348 -13539870.84746  20946460.6254                   20946456.7344
 -17667474.37147 -13751695.96845  22118590.1724                   22118587.6884
  17950127.89047  14004473.23944  23679649.6254                   23679648.4384
 -15075952.38548 -11727147.65247  20408121.2734                   20408118.6724
 -27612262.29246 -21498145.22443  24048878.4064                   24048877.2304
 -29357880.67248 -22859614.82846  21127418.6724                   21127413.7894
 11  7 27  3 16  0.0000000  0  7G25G12G10G29G05G04G02
    420141.41047    347532.33946  21930342.4534                   21930342.6334
 -17439710.84548 -13573930.55346  20938142.5084                   20938138.7074
 -17658577.95347 -13744763.69045  22120283.6564                   22120280.9494
  17795439.52147  13883936.92744  23650214.5864                   23650211.7274
 -15167446.16748 -11798441.47947  20390710.6254                   20390707.8204
 -27601774.96545 -21489973.26343  24050874.0554                   24050872.9304
 -29397658.94848 -22890610.87546  21119849.0234                   21119843.5824
 11  7 27  3 16 30.0000000  0  7G25G12G10G29G05G04G02
    308518.99547    260553.85246  21909101.2974                   21909100.4614
 -17482860.81348 -13607553.91146  20929931.4844                   20929927.7424
 -17649282.12747 -13737520.16945  22122052.5554                   22122049.3324
  17640735.67646  13763388.59844  23620774.0164                   23620773.8794
 -15258364.99848 -11869287.31347  20373409.3364                   20373406.0394
 -27591329.46645 -21481833.99443  24052862.0164                   24052859.5784
 -29437299.11648 -22921499.30146  21112305.7194                   21112300.1724
 11  7 27  3 17  0.0000000  0  7G25G12G10G29G05G04G02
    197435.20048    173995.06746  21887962.9614                   21887961.8914
 -17525456.67248 -13640745.48746  20921825.4454                   20921822.2624
 -17639595.08547 -13729971.82645  22123895.5164                   22123892.9064
  17486012.59747  13642825.25744  23591331.5944                   23591330.0004
 -15348713.86248 -11939689.00346  20356216.3754                   20356212.7504
 -27580930.70446 -21473731.07443  24054841.0704                   24054839.0594
 -29476807.00648 -22952284.65846  21104787.6414                   21104782.5354
 11  7 27  3 17 30.0000000  0  7G25G12G10G29G05G04G02
     86893.95148     87859.05646  21866927.2344                   21866927.0124
 -17567496.97248 -13673504.14346  20913825.4224                   20913822.2384
 -17629516.77947 -13722118.57545  22125814.2734                   22125811.2114
  17331273.52147  13522249.46344  23561885.2114                   23561884.9574
 -15438489.99248 -12009644.40746  20339132.8674                   20339129.4414
 -27570577.00045 -21465663.26543  24056811.6094                   24056809.7974
 -29516180.84848 -22982965.56246  21097295.2194                   21097290.3484
 11  7 27  3 18  0.0000000  0  7G25G12G10G29G05G04G02
    -23101.55747      2148.29446  21845996.2734                   21845994.9064
 -17608981.17648 -13705829.49146  20905931.0394                   20905927.9844
 -17619047.87746 -13713960.99445  22127805.9924                   22127802.8984
  17176521.29647  13401663.38244  23532437.4064                   23532436.5824
 -15527691.15648 -12079151.77946  20322158.3674                   20322154.3954
 -27560266.92146 -21457629.43543  24058773.2734                   24058770.9454
 -29555419.50148 -23013541.13146  21089828.2274                   21089823.0744
 11  7 27  3 18 30.0000000  0  7G25G12G10G29G05G04G02
   -132549.73948    -83135.97246  21825168.9534                   21825167.7894
 -17649910.15547 -13737722.19246  20898142.7424                   20898139.2584
 -17608190.96146 -13705501.04745  22129871.9694                   22129868.3914
  17021757.88247  13281068.60644  23502987.5474                   23502984.8834
 -15616317.04748 -12148210.90247  20305293.3134                   20305289.9494
 -27550000.80346 -21449629.79243  24060726.8674                   24060725.3244
 -29594523.21947 -23044011.53846  21082386.9454                   21082381.7854
 11  7 27  3 19  0.0000000  0  7G25G12G10G29G05G04G02
   -241449.91347   -167993.21646  21804446.0784                   21804444.0554
 -17690285.69747 -13769183.66646  20890459.7894                   20890455.3324
 -17596949.55346 -13696741.48744  22132010.0704                   22132007.6054
  16866984.02747  13160465.76444  23473534.2344                   23473533.0234
 -15704368.12748 -12216822.09846  20288537.6414                   20288533.9844
 -27539779.56746 -21441665.25143  24062671.6334                   24062670.0234
 -29633493.42447 -23074377.92246  21074970.9224                   21074966.2624
 11  7 27  3 19 30.0000000  0  7G25G12G10G29G05G04G02
   -349801.84148   -252423.27746  21783826.5394                   21783826.9694
 -17730109.69948 -13800215.36246  20882881.1334                   20882877.1024
 -17585327.80046 -13687685.58244  22134222.8364                   22134219.1414
  16712199.68947  13039854.67444  23444078.8594                   23444075.9494
 -15791845.24448 -12284986.07146  20271891.3984                   20271887.9344
 -27529604.84646 -21433736.97343  24064608.2894                   24064605.6414
 -29672331.93448 -23104641.69246  21067580.4064                   21067575.6644
 11  7 27  3 20  0.0000000  0  7G25G12G10G29G05G04G02
   -457604.30548   -336425.19346  21763312.9924                   21763312.3874
 -17769383.93248 -13830818.66646  20875407.7814                   20875404.0984
 -17573328.38746 -13678335.35644  22136506.1174                   22136502.4694
  16557405.87147  12919236.20244  23414623.8054                   23414619.4264
 -15878748.56248 -12352702.91547  20255354.2194                   20255350.5124
 -27519477.07446 -21425845.16842  24066534.7504                   24066531.7114
 -29711039.39948 -23134803.34546  21060214.7194                   21060209.6094
 11  7 27  3 20 30.0000000  0  7G25G12G10G29G05G04G02
   -564856.49548   -419998.31246  21742903.0084                   21742902.1024
 -17808110.19748 -13860994.98146  20868038.3524                   20868034.9964
 -17560954.23846 -13668693.15544  22138860.1484                   22138857.7894
  16402603.26147  12798610.90644  23385164.6094                   23385162.0664
 -15965078.29748 -12419972.81647  20238926.1884                   20238923.1844
 -27509397.28046 -21417990.80942  24068453.2894                   24068450.0124
 -29749616.83948 -23164863.69246  21052873.7194                   21052868.8444
 11  7 27  3 21  0.0000000  0  7G25G12G10G29G05G04G02
   -671555.72648   -503140.55846  21722598.8914                   21722598.1804
 -17846287.61348 -13890743.61746  20860773.4694                   20860770.3954
 -17548206.82646 -13658760.13044  22141286.1414                   22141283.4884
  16247795.07847  12677981.20744  23355706.9064                   23355702.6884
 -16050832.82248 -12486794.49747  20222607.6954                   20222604.5084
 -27499364.06846 -21410172.75543  24070363.4924                   24070360.7624
 -29788063.47148 -23194822.10746  21045557.2504                   21045552.3244
 11  7 27  3 21 30.0000000  0  7G25G12G10G29G05G04G02
   -777702.09548   -585852.00046  21702400.1254                   21702399.2504
 -17883919.31248 -13920067.01846  20853612.1174                   20853608.8794
 -17535090.53846 -13648539.65544  22143781.3204                   22143779.2074
  16092980.98447  12557346.92244  23326246.1254                   23326242.7774
 -16136013.20948 -12553168.79347  20206398.2114                   20206395.2664
 -27489379.35746 -21402392.50043  24072263.3134                   24072259.8524
 -29826381.33048 -23224680.18246  21038265.7584                   21038260.6914
 11  7 27  3 22  0.0000000  0  7G25G12G10G29G05G04G02
   -883294.18848   -668131.54846  21682306.8754                   21682305.1604
 -17921006.64347 -13948966.23346  20846554.5004                   20846551.3954
 -17521607.81946 -13638033.64744  22146348.4924                   22146345.0514
  15938162.31046  12436709.07644  23296783.5164                   23296784.2974
 -16220619.60048 -12619095.82547  20190298.1644                   20190294.7424
 -27479443.53246 -21394650.26943  24074154.0314                   24074151.3594
 -29864570.94147 -23254438.32346  21030998.7274                   21030993.3134
 11  7 27  3 22 30.0000000  0  7G25G12G10G29G05G04G02
   -988331.43048   -749978.74846  21662318.5944                   21662317.0904
 -17957550.91247 -13977442.28846  20839600.6334                   20839597.2504
 -17507762.01246 -13627244.67844  22148982.3444                   22148978.7894
  15783340.03947  12316068.38744  23267322.9384                   23267321.3984
 -16304652.22548 -12684575.76747  20174307.4384                   20174304.1844
 -27469557.22746 -21386946.63843  24076035.7034                   24076031.9574
 -29902633.24147 -23284097.26646  21023755.5474                   21023750.1334
 11  7 27  3 23  0.0000000  0  7G25G12G10G29G05G04G02
  -1092811.96648   -831392.14846  21642436.7664                   21642435.4964
 -17993553.18148 -14005496.01546  20832749.6024                   20832746.7624
 -17493555.20947 -13616174.45344  22151686.1414                   22151683.6994
  15628516.21847  12195426.48444  23237860.4844                   23237858.8714
 -16388110.68748 -12749608.31147  20158425.3834                   20158422.1054
 -27459720.32846 -21379281.57042  24077907.4694                   24077902.8914
 -29940568.24948 -23313657.00746  21016536.5864                   21016531.5904
 11  7 27  3 23 30.0000000  0  7G25G12G10G29G05G04G02
    378688.90648    315231.92846  21922454.0864                   21922453.7344
 -16453593.04748 -12805527.07146  21125794.1174                   21125791.4224
 -15903570.45847 -12377225.31244  22454250.2424                   22454247.9964
  17049117.33146  13302388.43844  23508192.1414                   23508191.2464
 -14895572.24148 -11586591.32547  20442445.7974                   20442442.8014
 -25874513.41546 -20144055.39842  24379562.0314                   24379557.3324
 -28402955.40747 -22115517.12946  21309134.5474                   21309129.0204
 11  7 27  3 24  0.0000000  0  7G25G12G10G29G05G04G02
    275325.44147    234688.96446  21902783.9304                   21902784.1024
 -16488514.72048 -12832738.77346  21119149.1414                   21119146.2814
 -15888649.84247 -12365598.85644  22457089.1884                   22457086.6804
  16894294.55947  13181747.33044  23478730.4224                   23478728.7424
 -14977881.94148 -11650728.73447  20426783.1094                   20426780.4064
 -25864776.10846 -20136467.93042  24381414.2734                   24381411.4614
 -28440637.46848 -22144879.77146  21301963.9844                   21301958.6954
 11  7 27  3 24 30.0000000  0  7G25G12G10G29G05G04G02
    172522.35448    154582.67146  21883221.8054                   21883221.0234
 -16522898.01448 -12859530.95246  21112606.5004                   21112603.2814
 -15873376.53447 -12353697.55144  22459995.9224                   22459992.0204
  16739474.37347  13061108.26244  23449270.5314                   23449266.6994
 -15059617.04148 -11714418.39847  20411229.4924                   20411226.5124
 -25855088.75846 -20128919.30543  24383258.2664                   24383256.8364
 -28478193.81847 -22174144.46046  21294817.2894                   21294812.0634
 11  7 27  3 25  0.0000000  0  7G25G12G10G29G05G04G02
     70278.13348     74911.88046  21863764.8674                   21863764.6094
 -16556747.02748 -12885906.81446  21106165.1564                   21106162.0594
 -15857755.46347 -12341525.29544  22462968.4774                   22462964.8054
  16584655.82847  12940470.46944  23419808.5704                   23419805.7734
 -15140780.53548 -11777662.66347  20395784.8054                   20395781.5664
 -25845454.52346 -20121412.14643  24385091.0474                   24385090.2034
 -28515627.54848 -22203313.59846  21287694.0084                   21287688.5234
 11  7 27  3 25 30.0000000  0  7G25G12G10G29G05G04G02
    -31403.77548     -4320.77446  21844416.2344                   21844415.5354
 -16590060.89248 -12911865.66346  21099825.6954                   21099822.6254
 -15841787.24447 -12329082.51244  22466007.7814                   22466004.2504
  16429842.69847  12819836.87845  23390348.9844                   23390346.3714
 -15221370.16548 -11840459.75247  20380448.6564                   20380445.8714
 -25835871.30946 -20113944.76243  24386916.2274                   24386913.8054
 -28552936.94648 -22232385.84746  21280594.4924                   21280588.9264
 11  7 27  3 26  0.0000000  0  7G25G12G10G29G05G04G02
   -132523.63948    -83115.46146  21825173.8834                   21825173.2504
 -16622842.28448 -12937409.62646  21093587.5554                   21093584.0354
 -15825476.11947 -12316372.52844  22469111.2424                   22469107.3054
  16275034.70247  12699207.28145  23360889.1174                   23360887.4884
 -15301387.01448 -11902810.51847  20365222.1804                   20365219.0314
 -25826340.54545 -20106518.21542  24388727.3594                   24388726.2194
 -28590123.42847 -22261362.31546  21273518.3284                   21273512.8984
 11  7 27  3 26 30.0000000  0  7G25G12G10G29G05G04G02
   -233080.77448   -161471.64446  21806038.3594                   21806037.6214
 -16655092.64348 -12962539.77246  21087449.9614                   21087447.3054
 -15808825.00147 -12303397.63344  22472279.8134                   22472276.8594
  16120233.17947  12578582.75745  23331431.4924                   23331430.7584
 -15380831.96748 -11964715.64647  20350103.8134                   20350100.8754
 -25816862.91345 -20099133.06242  24390531.2814                   24390529.2734
 -28627188.35148 -22290244.07746  21266464.4534                   21266459.1954
 11  7 27  3 27  0.0000000  0  7G25G12G10G29G05G04G02
   -333074.01048   -239388.43246  21787010.0634                   21787009.3054
 -16686813.87448 -12987257.62946  21081413.8984                   21081410.8244
 -15791836.70047 -12290159.99044  22475513.0944                   22475509.8014
  15965439.93047  12457964.66544  23301974.7274                   23301973.2234
 -15459704.72947 -12026174.92647  20335095.3984                   20335092.0434
 -25807438.43145 -20091789.30142  24392325.2974                   24392322.3444
 -28664131.92348 -22319031.26346  21259434.7894                   21259429.1604
 11  7 27  3 27 30.0000000  0  7G25G12G10G29G05G04G02
   -432502.62448   -316865.24246  21768089.7114                   21768089.5044
 -16718007.57048 -13011564.41346  21075478.1484                   21075474.9614
 -15774514.25347 -12276662.01744  22478808.2664                   22478806.1804
  15810655.96746  12337353.82144  23272520.8754                   23272518.9454
 -15538005.75648 -12087188.69547  20320195.0474                   20320191.9104
 -25798067.94046 -20084487.62542  24394109.3204                   24394105.8874
 -28700954.78748 -22347724.38046  21252426.9774                   21252421.8834
 11  7 27  3 28  0.0000000  0  8G25G12G10G29G26G05G04G02
   -531368.41448   -393903.51146  21749275.7734                   21749275.6214
 -16748677.65348 -13035463.17146  21069642.1954                   21069638.7154
 -15756862.97247 -12262907.76544  22482167.6884                   22482164.5394
  15655880.08647  12216749.30845  23243067.1884                   23243066.3634
  29617282.13855  23097455.18052  24798535.7114                   24798532.9224
 -15615738.08048 -12147759.32047  20305403.0084                   20305400.2274
 -25788754.23046 -20077230.19142  24395881.7584                   24395879.5044
 -28737660.44148 -22376326.17946  21245442.7974                   21245437.4804
 11  7 27  3 28 30.0000000  0  8G25G12G10G29G26G05G04G02
   -629676.46548   -470507.16246  21730568.3754                   21730567.5864
 -16778832.25548 -13058960.27146  21063903.7114                   21063900.6294
 -15738891.80747 -12248904.26844  22485587.4064                   22485583.1454
  15501107.61346  12096147.43544  23213615.6484                   23213613.3164
  29450340.14055  22967370.46152  24766768.1174                   24766764.8404
 -15692908.07047 -12207891.77447  20290717.8284                   20290714.9304
 -25779503.50446 -20070021.78142  24397641.5314                   24397638.9804
 -28774255.31547 -22404841.66446  21238478.7424                   21238473.9884
 11  7 27  3 29  0.0000000  0  8G25G12G10G29G26G05G04G02
   -727425.21948   -546674.99646  21711967.7894                   21711966.7424
 -16808471.85148 -13082056.06646  21058263.7034                   21058259.9454
 -15720603.01247 -12234653.25444  22489068.1484                   22489064.3754
  15346340.62747  11975549.82044  23184164.2504                   23184161.9264
  29283272.35146  22837187.77342  24734974.9304                   24734973.1054
 -15769515.20848 -12267585.63147  20276139.9924                   20276137.2894
 -25770315.43946 -20062862.21142  24399389.6094                   24399387.2304
 -28810739.18747 -22433270.64146  21231536.3674                   21231530.8324
 11  7 27  3 29 30.0000000  0  8G25G12G10G29G26G05G04G02
   -824609.76948   -622403.21546  21693473.6254                   21693473.6484
 -16837594.53448 -13104749.06746  21052721.5004                   21052718.3094
 -15701995.21347 -12220153.68244  22492608.3054                   22492605.9804
  15191585.08847  11854961.11545  23154715.3054                   23154714.3244
  29116086.18845  22706912.79742  24703161.2114                   24703160.4384
 -15845555.89147 -12326838.10247  20261670.4144                   20261666.9304
 -25761186.22546 -20055748.55142  24401127.8914                   24401125.3954
 -28847108.47148 -22461610.33446  21224615.0864                   21224609.6484
 11  7 27  3 30  0.0000000  0  8G25G12G10G29G26G05G04G02
   -921228.47048   -697690.49146  21675088.1724                   21675087.6604
 -16866200.56348 -13127039.46646  21047277.8054                   21047274.5664
 -15683070.51947 -12205407.16644  22496210.1414                   22496207.7704
  15036843.01347  11734382.94444  23125269.1954                   23125266.4494
  28948785.57255  22576548.80952  24671323.5314                   24671323.0274
 -15921029.41048 -12385648.60747  20247307.8444                   20247305.4414
 -25752115.27146 -20048680.27042  24402853.6334                   24402851.0434
 -28883362.85548 -22489860.47546  21217716.6254                   21217710.5944
